ftp/pub/palmer/observations_modified/2017/November/AR171121_BASE.txt

Download

Sample DateTime	Unit Id	WS Avg 2min	WD Avg 2min	WGS 10min	WGD 10min	Air Temp	Rel Humidity	Dew Point	Pyranometer	Quantum	Air Pressure	Snow Level	Rainfall	PW Current	Visibility	CBase 1	CBase 2	CBase 3	Vert Vis
2017/11/21 00:00:00	BASE	5.39	206	6.58	215	-1.7	90	-3.1	24	58	985.6	NA	0.0000		9999	1840	0	0	0
2017/11/21 00:01:00	BASE	5.12	204	6.58	215	-1.7	90	-3.2	24	58	985.7	NA	0.0000		9999	1770	0	0	0
2017/11/21 00:02:00	BASE	4.78	202	6.58	215	-1.7	90	-3.2	24	58	985.7	NA	0.0000		9999	1770	0	0	0
2017/11/21 00:03:00	BASE	4.73	199	6.58	215	-1.7	89	-3.2	23	56	985.7	NA	0.0000		9999	1770	0	0	0
2017/11/21 00:04:00	BASE	4.73	202	6.58	215	-1.6	89	-3.2	22	54	985.6	NA	0.0000		9999	1870	0	0	0
2017/11/21 00:05:00	BASE	4.58	206	6.58	215	-1.6	89	-3.2	21	52	985.6	NA	0.0000		9999	1740	0	0	0
2017/11/21 00:06:00	BASE	4.30	208	6.58	215	-1.6	89	-3.1	21	52	985.7	NA	0.0000		9999	1800	0	0	0
2017/11/21 00:07:00	BASE	3.91	208	6.38	208	-1.6	90	-3.0	21	50	985.6	NA	0.0000		9999	1770	0	0	0
2017/11/21 00:08:00	BASE	4.04	209	6.38	208	-1.6	90	-3.0	20	49	985.6	NA	0.0000		9999	1770	0	0	0
2017/11/21 00:09:00	BASE	4.31	213	6.38	208	-1.6	91	-2.9	20	49	985.6	NA	0.0000		9999	1770	0	0	0
2017/11/21 00:10:00	BASE	4.28	215	5.35	199	-1.6	91	-2.9	20	49	985.6	NA	0.0000		9999	1670	0	0	0
2017/11/21 00:11:00	BASE	4.05	216	5.35	199	-1.6	91	-2.8	20	48	985.6	NA	0.0000		9999	1800	0	0	0
2017/11/21 00:12:00	BASE	3.83	216	5.35	199	-1.6	92	-2.8	21	48	985.6	NA	0.0000		9999	1770	0	0	0
2017/11/21 00:13:00	BASE	4.13	211	5.09	213	-1.6	92	-2.8	22	49	985.6	NA	0.0000		9999	1510	0	0	0
2017/11/21 00:14:00	BASE	4.32	205	5.09	213	-1.6	92	-2.8	22	49	985.6	NA	0.0000		9999	1770	0	0	0
2017/11/21 00:15:00	BASE	3.86	204	5.09	213	-1.6	92	-2.8	22	49	985.6	NA	0.0000		9999	1710	0	0	0
2017/11/21 00:16:00	BASE	3.67	207	5.09	213	-1.6	92	-2.7	21	48	985.6	NA	0.0000		9999	1740	0	0	0
2017/11/21 00:17:00	BASE	3.69	204	5.09	213	-1.6	92	-2.7	22	49	985.6	NA	0.0000		9999	1800	0	0	0
2017/11/21 00:18:00	BASE	3.78	198	5.09	213	-1.6	93	-2.7	22	49	985.6	NA	0.0000		9999	1800	0	0	0
2017/11/21 00:19:00	BASE	3.99	199	5.09	213	-1.6	93	-2.7	22	48	985.6	NA	0.0000		9999	1640	0	0	0
2017/11/21 00:20:00	BASE	3.86	203	5.09	213	-1.7	93	-2.6	22	49	985.6	NA	0.0000		9999	1640	0	0	0
2017/11/21 00:21:00	BASE	3.77	206	5.09	213	-1.7	93	-2.7	22	48	985.6	NA	0.0000		9999	1770	0	0	0
2017/11/21 00:22:00	BASE	3.64	208	5.09	213	-1.7	93	-2.7	22	47	985.6	NA	0.0000		9999	1940	0	0	0
2017/11/21 00:23:00	BASE	3.50	207	4.78	204	-1.7	93	-2.7	21	45	985.6	NA	0.0000		9999	1610	0	0	0
2017/11/21 00:24:00	BASE	3.48	208	4.42	200	-1.7	93	-2.6	21	45	985.6	NA	0.0000		9999	1570	0	0	0
2017/11/21 00:25:00	BASE	3.51	212	4.42	200	-1.6	93	-2.6	22	46	985.6	NA	0.0000		9999	1640	0	0	0
2017/11/21 00:26:00	BASE	3.68	214	4.42	200	-1.6	93	-2.5	23	48	985.6	NA	0.0000		9999	1570	0	0	0
2017/11/21 00:27:00	BASE	3.91	217	4.53	225	-1.6	94	-2.5	23	47	985.6	NA	0.0000		9999	1670	0	0	0
2017/11/21 00:28:00	BASE	3.90	221	4.53	225	-1.6	94	-2.5	22	46	985.6	NA	0.0000		9999	1940	0	0	0
2017/11/21 00:29:00	BASE	4.14	224	5.25	225	-1.6	94	-2.5	22	46	985.5	NA	0.0000		9999	1940	0	0	0
2017/11/21 00:30:00	BASE	4.65	222	5.45	228	-1.6	94	-2.5	22	45	985.5	NA	0.0000		9999	2000	0	0	0
2017/11/21 00:31:00	BASE	4.61	210	5.45	228	-1.7	94	-2.6	21	45	985.5	NA	0.0000		9999	1970	0	0	0
2017/11/21 00:32:00	BASE	4.16	208	5.45	228	-1.7	93	-2.6	21	44	985.6	NA	0.0000		9999	2000	0	0	0
2017/11/21 00:33:00	BASE	3.64	218	5.45	228	-1.7	93	-2.6	21	44	985.5	NA	0.0000		9999	1900	0	0	0
2017/11/21 00:34:00	BASE	3.51	219	5.45	228	-1.7	93	-2.6	20	42	985.5	NA	0.0000		9999	1940	0	0	0
2017/11/21 00:35:00	BASE	3.58	216	5.45	228	-1.7	93	-2.6	19	41	985.5	NA	0.0000		9999	2030	0	0	0
2017/11/21 00:36:00	BASE	3.41	217	5.45	228	-1.7	93	-2.7	19	40	985.4	NA	0.0000		9999	1940	0	0	0
2017/11/21 00:37:00	BASE	3.08	220	5.45	228	-1.7	93	-2.6	18	39	985.4	NA	0.0000		9999	1940	0	0	0
2017/11/21 00:38:00	BASE	2.61	222	5.45	228	-1.7	93	-2.6	18	38	985.4	NA	0.0000		9999	1940	0	0	0
2017/11/21 00:39:00	BASE	2.45	220	5.45	228	-1.6	93	-2.6	18	38	985.4	NA	0.0000		9999	1940	0	0	0
2017/11/21 00:40:00	BASE	3.05	215	5.14	204	-1.6	93	-2.6	18	38	985.4	NA	0.0000		9999	2000	0	0	0
2017/11/21 00:41:00	BASE	3.69	212	4.37	209	-1.6	94	-2.5	19	38	985.4	NA	0.0000		9999	2000	0	0	0
2017/11/21 00:42:00	BASE	3.52	213	4.32	209	-1.6	94	-2.5	18	38	985.4	NA	0.0000		9999	2000	0	0	0
2017/11/21 00:43:00	BASE	3.32	214	4.32	209	-1.6	94	-2.5	15	35	985.4	NA	0.0000		9999	2070	0	0	0
2017/11/21 00:44:00	BASE	3.29	211	4.32	209	-1.7	93	-2.6	14	33	985.4	NA	0.0000		9999	2030	0	0	0
2017/11/21 00:45:00	BASE	2.97	213	4.32	209	-1.7	93	-2.6	13	31	985.4	NA	0.0000		9999	2130	0	0	0
2017/11/21 00:46:00	BASE	2.91	220	4.32	209	-1.6	93	-2.6	12	30	985.4	NA	0.0000		9999	2200	0	0	0
2017/11/21 00:47:00	BASE	2.95	220	4.32	209	-1.6	93	-2.6	12	28	985.4	NA	0.0000		9999	2170	0	0	0
2017/11/21 00:48:00	BASE	3.04	216	4.32	209	-1.6	93	-2.6	11	28	985.5	NA	0.0000		9999	2130	0	0	0
2017/11/21 00:49:00	BASE	3.32	213	4.32	209	-1.6	93	-2.6	11	26	985.4	NA	0.0000		9999	2100	0	0	0
2017/11/21 00:50:00	BASE	3.23	214	4.22	209	-1.7	93	-2.6	10	25	985.5	NA	0.0000		9999	2100	0	0	0
2017/11/21 00:51:00	BASE	2.81	215	4.12	210	-1.7	93	-2.6	10	24	985.5	NA	0.0000		9999	2100	0	0	0
2017/11/21 00:52:00	BASE	2.52	217	4.12	210	-1.7	93	-2.6	8	22	985.5	NA	0.0000		9999	2070	0	0	0
2017/11/21 00:53:00	BASE	2.24	219	4.12	210	-1.6	93	-2.6	7	21	985.5	NA	0.0000		9999	2030	0	0	0
2017/11/21 00:54:00	BASE	1.95	215	3.81	211	-1.6	93	-2.6	7	20	985.5	NA	0.0000		9999	1940	0	0	0
2017/11/21 00:55:00	BASE	2.02	205	3.81	211	-1.6	93	-2.6	7	20	985.5	NA	0.0000		9999	1970	0	0	0
2017/11/21 00:56:00	BASE	2.19	204	3.81	211	-1.6	93	-2.6	7	20	985.5	NA	0.0000		9999	1940	0	0	0
2017/11/21 00:57:00	BASE	1.90	209	3.81	211	-1.6	93	-2.6	8	19	985.5	NA	0.0000		9999	2000	0	0	0
2017/11/21 00:58:00	BASE	1.63	209	3.81	211	-1.6	93	-2.6	8	19	985.5	NA	0.0000		9999	1970	0	0	0
2017/11/21 00:59:00	BASE	1.74	207	3.76	214	-1.6	93	-2.6	8	19	985.5	NA	0.0000		9999	1870	0	0	0
2017/11/21 01:00:00	BASE	1.68	209	2.98	215	-1.6	93	-2.5	8	19	985.5	NA	0.0000		9999	2000	0	0	0
2017/11/21 01:01:00	BASE	1.63	212	2.73	211	-1.6	94	-2.5	7	18	985.5	NA	0.0000		9999	1900	0	0	0
2017/11/21 01:02:00	BASE	1.80	208	2.47	206	-1.6	94	-2.5	7	17	985.5	NA	0.0000		9999	1940	0	0	0
2017/11/21 01:03:00	BASE	1.63	204	2.47	206	-1.6	94	-2.4	8	17	985.5	NA	0.0000		9999	1800	0	0	0
2017/11/21 01:04:00	BASE	1.53	197	2.47	206	-1.6	94	-2.4	7	17	985.5	NA	0.0000		9999	1870	0	0	0
2017/11/21 01:05:00	BASE	1.68	192	2.26	198	-1.6	94	-2.4	8	17	985.4	NA	0.0000		9999	1940	0	0	0
2017/11/21 01:06:00	BASE	2.29	200	3.19	206	-1.6	94	-2.4	8	18	985.4	NA	0.0000		9999	1710	0	0	0
2017/11/21 01:07:00	BASE	2.52	203	3.19	206	-1.6	94	-2.4	7	17	985.4	NA	0.0000		9999	2130	0	0	0
2017/11/21 01:08:00	BASE	1.90	196	3.19	206	-1.6	94	-2.4	7	17	985.4	NA	0.0000		9999	2130	0	0	0
2017/11/21 01:09:00	BASE	1.50	202	3.19	206	-1.6	94	-2.4	6	16	985.4	NA	0.0000		9999	2000	0	0	0
2017/11/21 01:10:00	BASE	1.59	207	3.19	206	-1.6	94	-2.5	6	15	985.4	NA	0.0000		9999	1900	0	0	0
2017/11/21 01:11:00	BASE	2.01	204	3.19	206	-1.6	94	-2.5	5	14	985.4	NA	0.0000		9999	1610	0	0	0
2017/11/21 01:12:00	BASE	2.30	206	3.19	206	-1.6	93	-2.5	5	14	985.4	NA	0.0000		9999	1540	1900	0	0
2017/11/21 01:13:00	BASE	2.34	205	3.19	206	-1.6	93	-2.6	5	13	985.4	NA	0.0000		9999	2100	0	0	0
2017/11/21 01:14:00	BASE	2.37	197	3.19	206	-1.6	93	-2.6	5	13	985.4	NA	0.0000		9999	1540	2070	0	0
2017/11/21 01:15:00	BASE	2.17	191	3.19	206	-1.6	93	-2.6	4	12	985.4	NA	0.0000		9999	2100	0	0	0
2017/11/21 01:16:00	BASE	2.03	199	2.98	191	-1.6	93	-2.6	4	12	985.4	NA	0.0000		9999	1970	0	0	0
2017/11/21 01:17:00	BASE	2.62	208	3.65	204	-1.6	93	-2.6	4	12	985.4	NA	0.0000		9999	1840	0	0	0
2017/11/21 01:18:00	BASE	3.19	207	3.65	204	-1.6	93	-2.5	4	11	985.4	NA	0.0000		9999	1770	0	0	0
2017/11/21 01:19:00	BASE	3.26	203	3.65	204	-1.6	94	-2.5	4	11	985.4	NA	0.0000		9999	2000	0	0	0
2017/11/21 01:20:00	BASE	3.17	205	3.65	204	-1.6	94	-2.5	4	10	985.4	NA	0.0000		9999	2000	0	0	0
2017/11/21 01:21:00	BASE	2.90	200	3.65	204	-1.6	94	-2.4	4	10	985.4	NA	0.0000		9999	1900	0	0	0
2017/11/21 01:22:00	BASE	2.75	195	3.65	204	-1.6	94	-2.4	4	10	985.4	NA	0.0000		9999	1480	0	0	0
2017/11/21 01:23:00	BASE	2.70	193	3.65	204	-1.6	94	-2.4	4	9	985.4	NA	0.0000		9999	1480	0	0	0
2017/11/21 01:24:00	BASE	2.62	196	3.65	204	-1.6	94	-2.4	4	9	985.4	NA	0.0000		9999	1280	0	0	0
2017/11/21 01:25:00	BASE	2.72	203	3.65	204	-1.6	94	-2.4	3	9	985.4	NA	0.0000		9999	1380	0	0	0
2017/11/21 01:26:00	BASE	2.95	204	3.65	204	-1.6	94	-2.4	3	9	985.4	NA	0.0000		9999	1970	0	0	0
2017/11/21 01:27:00	BASE	3.25	208	3.76	214	-1.6	94	-2.4	3	8	985.4	NA	0.0000		9999	1670	2130	0	0
2017/11/21 01:28:00	BASE	3.24	213	3.76	214	-1.6	94	-2.4	3	8	985.4	NA	0.0000		9999	1310	1940	0	0
2017/11/21 01:29:00	BASE	2.72	216	3.76	214	-1.6	94	-2.4	3	8	985.4	NA	0.0000		9999	1970	0	0	0
2017/11/21 01:30:00	BASE	2.47	220	3.76	214	-1.6	95	-2.4	3	8	985.4	NA	0.0000		9999	1540	1940	0	0
2017/11/21 01:31:00	BASE	2.68	224	3.76	214	-1.6	95	-2.3	3	8	985.4	NA	0.0000		9999	1870	0	0	0
2017/11/21 01:32:00	BASE	2.54	227	3.76	214	-1.6	95	-2.3	3	8	985.4	NA	0.0000		9999	2170	0	0	0
2017/11/21 01:33:00	BASE	2.30	227	3.76	214	-1.6	95	-2.3	3	8	985.4	NA	0.0000		9999	2030	0	0	0
2017/11/21 01:34:00	BASE	2.31	225	3.76	214	-1.6	95	-2.3	3	7	985.4	NA	0.0000		9999	2030	0	0	0
2017/11/21 01:35:00	BASE	2.19	226	3.76	214	-1.6	95	-2.3	3	7	985.4	NA	0.0000		9999	1970	0	0	0
2017/11/21 01:36:00	BASE	1.94	228	3.76	214	-1.6	96	-2.2	3	7	985.4	NA	0.0000		9999	2100	0	0	0
2017/11/21 01:37:00	BASE	1.77	227	3.34	210	-1.6	96	-2.2	2	6	985.4	NA	0.0000		9999	1970	0	0	0
2017/11/21 01:38:00	BASE	1.68	220	3.09	227	-1.6	96	-2.2	2	6	985.4	NA	0.0000		9999	2100	0	0	0
2017/11/21 01:39:00	BASE	1.78	216	3.09	227	-1.6	96	-2.2	2	6	985.4	NA	0.0000		9999	2030	0	0	0
2017/11/21 01:40:00	BASE	1.72	222	3.09	227	-1.6	96	-2.2	2	5	985.4	NA	0.0000		9999	1940	0	0	0
2017/11/21 01:41:00	BASE	1.65	231	2.88	229	-1.6	96	-2.2	2	5	985.4	NA	0.0000		9999	1770	0	0	0
2017/11/21 01:42:00	BASE	1.77	233	2.62	230	-1.6	96	-2.2	2	5	985.4	NA	0.0000		9999	1610	0	0	0
2017/11/21 01:43:00	BASE	1.94	234	2.62	230	-1.6	96	-2.2	2	5	985.4	NA	0.0000		9999	1250	2000	0	0
2017/11/21 01:44:00	BASE	2.01	238	2.31	218	-1.6	96	-2.2	2	5	985.4	NA	0.0000		9999	1970	0	0	0
2017/11/21 01:45:00	BASE	2.16	239	2.93	244	-1.6	96	-2.1	2	4	985.4	NA	0.0000		9999	1180	1940	0	0
2017/11/21 01:46:00	BASE	2.18	237	2.93	244	-1.6	96	-2.1	2	4	985.4	NA	0.0000		9999	1970	0	0	0
2017/11/21 01:47:00	BASE	1.99	234	2.93	244	-1.6	97	-2.1	1	4	985.4	NA	0.0000		9999	1670	0	0	0
2017/11/21 01:48:00	BASE	1.95	242	2.93	244	-1.6	97	-2.0	1	4	985.4	NA	0.0000		9999	1670	0	0	0
2017/11/21 01:49:00	BASE	2.26	240	3.04	232	-1.6	97	-2.0	1	4	985.4	NA	0.0000		9999	1610	0	0	0
2017/11/21 01:50:00	BASE	2.55	229	3.04	232	-1.6	97	-2.0	1	3	985.4	NA	0.0000		9999	1840	0	0	0
2017/11/21 01:51:00	BASE	2.41	226	3.04	232	-1.6	97	-2.0	1	3	985.4	NA	0.0000		9999	1440	1800	0	0
2017/11/21 01:52:00	BASE	2.01	231	3.04	232	-1.6	97	-2.0	1	3	985.4	NA	0.0000		9999	1480	2000	0	0
2017/11/21 01:53:00	BASE	1.94	236	3.04	232	-1.6	97	-2.0	1	3	985.4	NA	0.0000		9999	1870	0	0	0
2017/11/21 01:54:00	BASE	2.10	235	3.04	232	-1.6	97	-2.0	1	3	985.4	NA	0.0000		9999	1670	0	0	0
2017/11/21 01:55:00	BASE	2.07	236	3.04	232	-1.6	97	-2.0	1	3	985.4	NA	0.0000		9999	1900	0	0	0
2017/11/21 01:56:00	BASE	2.09	236	3.04	232	-1.6	97	-2.0	1	3	985.4	NA	0.0000		9999	1310	0	0	0
2017/11/21 01:57:00	BASE	2.02	235	3.04	232	-1.6	97	-2.0	1	2	985.4	NA	0.0000		9999	1350	1840	0	0
2017/11/21 01:58:00	BASE	2.11	232	3.04	232	-1.6	98	-1.9	1	2	985.4	NA	0.0000		9999	1310	1900	0	0
2017/11/21 01:59:00	BASE	2.17	227	2.83	211	-1.6	98	-1.9	1	2	985.4	NA	0.0000		9999	1610	0	0	0
2017/11/21 02:00:00	BASE	1.94	226	2.62	230	-1.6	98	-1.9	1	2	985.4	NA	0.0000		9999	1310	0	0	0
2017/11/21 02:01:00	BASE	1.68	234	2.47	229	-1.6	98	-1.9	1	2	985.4	NA	0.0000		9999	1410	0	0	0
2017/11/21 02:02:01	BASE	1.79	237	2.47	229	-1.6	98	-1.9	1	2	985.4	NA	0.0000		9999	1350	0	0	0
2017/11/21 02:03:00	BASE	1.90	233	2.47	229	-1.6	98	-1.9	1	2	985.4	NA	0.0000		9999	1350	1840	0	0
2017/11/21 02:04:00	BASE	1.76	235	2.47	229	-1.6	98	-1.9	1	2	985.4	NA	0.0000		9999	1310	0	0	0
2017/11/21 02:05:00	BASE	1.71	236	2.47	229	-1.6	98	-1.9	1	2	985.4	NA	0.0000		9999	1280	0	0	0
2017/11/21 02:06:00	BASE	1.63	232	2.47	229	-1.7	98	-1.9	1	2	985.4	NA	0.0000		9999	1440	0	0	0
2017/11/21 02:07:01	BASE	1.72	232	2.47	229	-1.6	98	-1.9	1	1	985.4	NA	0.0000		9999	1410	0	0	0
2017/11/21 02:08:00	BASE	2.06	238	2.57	230	-1.6	98	-1.9	1	1	985.4	NA	0.0000		9999	1310	0	0	0
2017/11/21 02:09:00	BASE	1.88	231	2.57	230	-1.6	98	-1.9	1	1	985.4	NA	0.0000		9999	1280	0	0	0
2017/11/21 02:10:00	BASE	1.29	219	2.57	230	-1.6	98	-1.9	1	1	985.4	NA	0.0000		9999	1280	1740	0	0
2017/11/21 02:11:00	BASE	1.21	224	2.57	230	-1.6	98	-1.9	1	1	985.4	NA	0.0000		9999	1480	0	0	0
2017/11/21 02:12:00	BASE	1.07	234	2.57	230	-1.6	98	-1.9	1	1	985.4	NA	0.0000		9999	1350	0	0	0
2017/11/21 02:13:00	BASE	0.80	235	2.57	230	-1.6	98	-1.9	1	1	985.4	NA	0.0000		9999	1440	0	0	0
2017/11/21 02:14:00	BASE	1.17	238	2.57	230	-1.6	98	-1.9	0	1	985.4	NA	0.0000		9999	1310	1940	0	0
2017/11/21 02:15:00	BASE	1.53	240	2.57	230	-1.6	98	-1.9	0	1	985.4	NA	0.0000		9999	1540	0	0	0
2017/11/21 02:16:00	BASE	1.32	231	2.57	230	-1.6	98	-1.9	0	1	985.4	NA	0.0000		9999	1380	0	0	0
2017/11/21 02:17:00	BASE	1.05	230	2.57	230	-1.6	98	-1.9	0	1	985.4	NA	0.0000		9999	1250	0	0	0
2017/11/21 02:18:00	BASE	1.19	231	1.90	244	-1.6	98	-1.9	0	1	985.4	NA	0.0000		9999	1280	0	0	0
2017/11/21 02:19:00	BASE	1.64	227	2.37	223	-1.6	98	-1.9	0	1	985.4	NA	0.0000		9999	1380	0	0	0
2017/11/21 02:20:00	BASE	1.97	233	2.52	248	-1.6	98	-1.9	0	1	985.4	NA	0.0000		9999	1210	0	0	0
2017/11/21 02:21:00	BASE	2.11	239	2.52	248	-1.6	98	-1.9	0	1	985.4	NA	0.0000		9999	1440	0	0	0
2017/11/21 02:22:00	BASE	2.00	234	2.52	248	-1.6	98	-1.9	0	1	985.4	NA	0.0000		9999	1380	0	0	0
2017/11/21 02:23:00	BASE	1.91	224	2.52	248	-1.6	98	-1.9	0	1	985.4	NA	0.0000		9999	1150	2070	0	0
2017/11/21 02:24:00	BASE	1.80	218	2.52	248	-1.6	98	-1.9	0	1	985.4	NA	0.0000		9999	1280	1940	0	0
2017/11/21 02:25:00	BASE	1.18	226	2.52	248	-1.6	98	-1.9	0	1	985.4	NA	0.0000		9999	1210	1840	0	0
2017/11/21 02:26:01	BASE	0.85	232	2.52	248	-1.6	98	-1.9	0	1	985.4	NA	0.0000		9999	1770	0	0	0
2017/11/21 02:27:01	BASE	0.70	224	2.52	248	-1.6	98	-1.9	0	1	985.5	NA	0.0000		9999	1710	0	0	0
2017/11/21 02:28:00	BASE	1.00	215	2.52	248	-1.6	98	-1.9	0	1	985.6	NA	0.0000		9999	1180	0	0	0
2017/11/21 02:29:00	BASE	1.48	211	2.52	248	-1.6	98	-1.9	0	1	985.5	NA	0.0000		9999	1080	0	0	0
2017/11/21 02:30:00	BASE	0.75	221	2.42	242	-1.6	98	-1.9	0	1	985.5	NA	0.0000		9999	1050	1740	0	0
2017/11/21 02:31:00	BASE	0.31	234	2.37	235	-1.6	98	-1.9	0	1	985.5	NA	0.0000		9999	1050	1670	2030	0
2017/11/21 02:32:00	BASE	0.75	232	2.31	220	-1.6	98	-1.9	0	1	985.5	NA	0.0000		9999	980	0	0	0
2017/11/21 02:33:00	BASE	0.97	232	2.21	212	-1.6	98	-1.9	0	1	985.5	NA	0.0000		9999	1350	1840	0	0
2017/11/21 02:34:00	BASE	1.02	233	1.75	213	-1.6	98	-1.9	0	0	985.4	NA	0.0000		9999	1310	1870	0	0
2017/11/21 02:35:00	BASE	1.30	220	1.80	212	-1.6	98	-1.9	0	0	985.4	NA	0.0000		9999	1180	0	0	0
2017/11/21 02:36:01	BASE	1.52	212	1.80	212	-1.6	98	-1.9	0	0	985.4	NA	0.0000		9999	1020	1800	0	0
2017/11/21 02:37:01	BASE	1.48	213	1.80	212	-1.6	98	-1.9	0	0	985.4	NA	0.0000		9999	1180	0	0	0
2017/11/21 02:38:01	BASE	0.76	214	1.80	212	-1.6	98	-1.9	0	0	985.4	NA	0.0000		9999	1150	0	0	0
2017/11/21 02:39:01	BASE	0.45	221	1.80	212	-1.6	98	-1.9	0	0	985.4	NA	0.0000		9999	1150	0	0	0
2017/11/21 02:40:01	BASE	1.00	225	1.80	212	-1.6	98	-1.9	0	0	985.4	NA	0.0000		9999	1120	0	0	0
2017/11/21 02:41:01	BASE	1.83	214	3.19	201	-1.6	98	-1.9	0	0	985.4	NA	0.0000		9999	1020	0	0	0
2017/11/21 02:42:01	BASE	2.38	204	3.19	201	-1.6	98	-1.8	0	0	985.4	NA	0.0000		9999	1020	0	0	0
2017/11/21 02:43:01	BASE	1.94	214	3.19	201	-1.6	98	-1.8	0	0	985.4	NA	0.0000		9999	1350	1940	0	0
2017/11/21 02:44:01	BASE	1.57	226	3.19	201	-1.6	99	-1.8	0	0	985.4	NA	0.0000		9999	1020	0	0	0
2017/11/21 02:45:01	BASE	1.61	223	3.19	201	-1.6	99	-1.8	0	0	985.4	NA	0.0000		9999	1020	0	0	0
2017/11/21 02:46:01	BASE	1.63	214	3.19	201	-1.6	99	-1.7	0	0	985.4	NA	0.0000		9999	1020	1740	0	0
2017/11/21 02:47:01	BASE	1.85	205	3.19	201	-1.6	99	-1.7	0	0	985.4	NA	0.0000		9999	920	0	0	0
2017/11/21 02:48:01	BASE	1.83	195	3.19	201	-1.6	99	-1.7	0	0	985.4	NA	0.0000		9999	980	0	0	0
2017/11/21 02:49:01	BASE	0.77	201	3.19	201	-1.6	99	-1.7	0	0	985.4	NA	0.0000		9999	1380	2490	0	0
2017/11/21 02:50:01	BASE	0.00	228	3.19	201	-1.6	99	-1.7	0	0	985.4	NA	0.0000		9999	1120	2530	0	0
2017/11/21 02:51:01	BASE	0.05	251	2.68	201	-1.6	99	-1.7	0	0	985.4	NA	0.0000		9999	2490	0	0	0
2017/11/21 02:52:01	BASE	0.34	252	2.52	195	-1.6	99	-1.7	0	0	985.4	NA	0.0000		9999	980	2590	0	0
2017/11/21 02:53:01	BASE	1.32	246	2.52	195	-1.6	99	-1.7	0	0	985.4	NA	0.0000		9999	950	0	0	0
2017/11/21 02:54:01	BASE	1.94	237	2.52	195	-1.6	99	-1.7	0	0	985.4	NA	0.0000		9999	980	1410	0	0
2017/11/21 02:55:01	BASE	1.52	243	2.52	195	-1.6	99	-1.7	0	0	985.4	NA	0.0000		9999	1120	2530	0	0
2017/11/21 02:56:01	BASE	0.88	253	2.52	195	-1.6	99	-1.7	0	0	985.4	NA	0.0000		9999	1210	2030	2460	0
2017/11/21 02:57:01	BASE	1.02	263	2.31	235	-1.6	99	-1.7	0	0	985.4	NA	0.0000		9999	950	0	0	0
2017/11/21 02:58:01	BASE	1.78	254	2.47	222	-1.6	99	-1.7	0	0	985.4	NA	0.0000		9999	980	0	0	0
2017/11/21 02:59:01	BASE	2.39	229	3.09	221	-1.6	99	-1.7	0	0	985.4	NA	0.0000		9999	920	0	0	0
2017/11/21 03:00:01	BASE	2.11	227	3.09	221	-1.6	99	-1.8	0	0	985.4	NA	0.0000		9999	1210	1940	0	0
2017/11/21 03:01:01	BASE	1.08	245	3.09	221	-1.6	99	-1.8	0	0	985.4	NA	0.0000		9999	1050	0	0	0
2017/11/21 03:02:01	BASE	0.32	254	3.09	221	-1.6	99	-1.8	0	0	985.4	NA	0.0000		9999	980	0	0	0
2017/11/21 03:03:01	BASE	0.31	248	3.09	221	-1.6	99	-1.8	0	0	985.4	NA	0.0000		9999	950	0	0	0
2017/11/21 03:04:01	BASE	1.44	235	3.09	221	-1.6	99	-1.7	0	0	985.4	NA	0.0000		9999	980	0	0	0
2017/11/21 03:05:01	BASE	2.29	226	3.09	221	-1.6	99	-1.7	0	0	985.4	NA	0.0000		9999	1020	0	0	0
2017/11/21 03:06:01	BASE	2.19	231	3.09	221	-1.6	99	-1.7	0	0	985.4	NA	0.0000		9999	1020	0	0	0
2017/11/21 03:07:01	BASE	2.14	234	3.09	221	-1.6	99	-1.8	0	0	985.4	NA	0.0000		9999	980	0	0	0
2017/11/21 03:08:01	BASE	2.04	236	3.09	221	-1.6	99	-1.8	0	0	985.4	NA	0.0000		9999	950	0	0	0
2017/11/21 03:09:01	BASE	1.73	238	2.88	226	-1.6	99	-1.8	0	0	985.3	NA	0.0000		9999	1020	2360	0	0
2017/11/21 03:10:01	BASE	1.67	233	2.88	226	-1.6	99	-1.8	0	0	985.3	NA	0.0000		9999	1080	2460	0	0
2017/11/21 03:11:01	BASE	1.60	229	2.88	226	-1.6	99	-1.8	0	0	985.4	NA	0.0000		9999	1080	0	0	0
2017/11/21 03:12:01	BASE	1.75	232	2.88	226	-1.6	99	-1.7	0	0	985.3	NA	0.0000		9999	1020	0	0	0
2017/11/21 03:13:01	BASE	2.09	235	2.88	226	-1.6	99	-1.8	0	0	985.3	NA	0.0000		9999	1050	2260	0	0
2017/11/21 03:14:01	BASE	1.97	242	2.88	226	-1.6	99	-1.7	0	0	985.3	NA	0.0000		9999	1020	0	0	0
2017/11/21 03:15:01	BASE	1.72	245	2.62	244	-1.6	99	-1.7	0	0	985.3	NA	0.0000		9999	950	0	0	0
2017/11/21 03:16:01	BASE	1.74	240	2.62	244	-1.6	100	-1.7	0	0	985.3	NA	0.0000		9999	950	0	0	0
2017/11/21 03:17:01	BASE	1.71	242	2.57	236	-1.6	100	-1.6	0	0	985.3	NA	0.0000		9999	950	0	0	0
2017/11/21 03:18:01	BASE	1.69	242	2.57	236	-1.6	100	-1.6	0	0	985.3	NA	0.0000		9999	1020	0	0	0
2017/11/21 03:19:01	BASE	1.95	242	2.57	236	-1.6	100	-1.6	0	0	985.3	NA	0.0000		9999	950	0	0	0
2017/11/21 03:20:01	BASE	2.31	241	2.93	246	-1.6	100	-1.6	0	0	985.3	NA	0.0000		9999	1150	1900	0	0
2017/11/21 03:21:01	BASE	2.39	235	2.93	246	-1.6	100	-1.6	0	0	985.3	NA	0.0000		9999	1280	2300	0	0
2017/11/21 03:22:01	BASE	2.11	236	2.93	246	-1.7	100	-1.7	0	0	985.3	NA	0.0000		9999	1310	2300	0	0
2017/11/21 03:23:01	BASE	1.75	243	2.93	246	-1.7	100	-1.7	0	0	985.3	NA	0.0000		9999	1310	0	0	0
2017/11/21 03:24:01	BASE	1.97	241	2.93	246	-1.7	100	-1.7	0	0	985.3	NA	0.0000		9999	1180	0	0	0
2017/11/21 03:25:01	BASE	2.35	237	2.93	246	-1.7	100	-1.7	0	0	985.3	NA	0.0000		9999	1180	2200	0	0
2017/11/21 03:26:01	BASE	2.45	238	2.98	238	-1.7	100	-1.7	0	0	985.3	NA	0.0000		9999	1210	0	0	0
2017/11/21 03:27:01	BASE	2.22	242	2.98	238	-1.7	100	-1.7	0	0	985.3	NA	0.0000		9999	1180	2230	0	0
2017/11/21 03:28:01	BASE	1.79	249	2.98	238	-1.7	100	-1.7	0	0	985.3	NA	0.0000		9999	1120	0	0	0
2017/11/21 03:29:01	BASE	1.82	250	2.98	238	-1.7	100	-1.7	0	0	985.3	NA	0.0000		9999	1150	0	0	0
2017/11/21 03:30:01	BASE	2.00	247	2.98	238	-1.7	100	-1.7	0	0	985.3	NA	0.0000		9999	1050	2300	0	0
2017/11/21 03:31:01	BASE	2.10	245	2.98	238	-1.7	100	-1.7	0	0	985.3	NA	0.0000		9999	1150	0	0	0
2017/11/21 03:32:01	BASE	2.19	243	2.98	238	-1.7	100	-1.7	0	0	985.3	NA	0.0000		9999	1150	0	0	0
2017/11/21 03:33:01	BASE	1.93	239	2.98	238	-1.7	100	-1.7	0	0	985.3	NA	0.0000		9999	1150	0	0	0
2017/11/21 03:34:01	BASE	1.74	240	2.98	238	-1.7	100	-1.7	0	0	985.3	NA	0.0000		9999	1150	0	0	0
2017/11/21 03:35:01	BASE	2.16	242	3.19	242	-1.7	100	-1.7	0	0	985.3	NA	0.0000		9999	1150	0	0	0
2017/11/21 03:36:01	BASE	2.58	234	3.29	228	-1.7	100	-1.7	0	0	985.3	NA	0.0000		9999	1150	0	0	0
2017/11/21 03:37:01	BASE	2.60	228	3.29	228	-1.7	100	-1.7	0	0	985.3	NA	0.0000		9999	1150	0	0	0
2017/11/21 03:38:01	BASE	2.46	232	3.29	228	-1.7	100	-1.7	0	0	985.3	NA	0.0000		9999	1150	0	0	0
2017/11/21 03:39:01	BASE	2.22	235	3.29	228	-1.7	100	-1.7	0	0	985.3	NA	0.0000		9999	1120	0	0	0
2017/11/21 03:40:01	BASE	1.97	241	3.29	228	-1.7	100	-1.7	0	0	985.3	NA	0.0000		9999	1120	1840	0	0
2017/11/21 03:41:01	BASE	1.73	244	3.29	228	-1.7	100	-1.7	0	0	985.3	NA	0.0000		9999	1150	0	0	0
2017/11/21 03:42:01	BASE	2.00	241	3.29	228	-1.7	100	-1.7	0	0	985.3	NA	0.0000		9999	1180	1710	0	0
2017/11/21 03:43:01	BASE	2.70	234	3.55	225	-1.7	100	-1.7	0	0	985.3	NA	0.0000		9999	1150	0	0	0
2017/11/21 03:44:01	BASE	2.85	231	3.60	217	-1.7	100	-1.7	0	0	985.3	NA	0.0000		9999	1080	0	0	0
2017/11/21 03:45:01	BASE	2.72	237	3.60	217	-1.7	100	-1.7	0	0	985.3	NA	0.0000		9999	1120	0	0	0
2017/11/21 03:46:01	BASE	2.80	236	3.60	217	-1.7	100	-1.7	0	0	985.3	NA	0.0000		9999	1080	0	0	0
2017/11/21 03:47:01	BASE	2.80	234	3.60	217	-1.7	100	-1.7	0	0	985.3	NA	0.0000		9999	1120	0	0	0
2017/11/21 03:48:01	BASE	2.50	234	3.60	217	-1.7	100	-1.8	0	0	985.3	NA	0.0000		9999	1080	0	0	0
2017/11/21 03:49:01	BASE	2.44	234	3.60	217	-1.7	100	-1.8	0	0	985.3	NA	0.0000		9999	1080	0	0	0
2017/11/21 03:50:01	BASE	2.48	229	3.60	217	-1.7	99	-1.8	0	0	985.3	NA	0.0000		9999	1080	0	0	0
2017/11/21 03:51:01	BASE	2.27	225	3.60	217	-1.7	99	-1.8	0	0	985.3	NA	0.0000		9999	1080	0	0	0
2017/11/21 03:52:01	BASE	2.53	224	3.60	217	-1.7	99	-1.8	0	0	985.2	NA	0.0000		9999	1080	0	0	0
2017/11/21 03:53:01	BASE	2.57	224	3.60	217	-1.7	99	-1.8	0	0	985.2	NA	0.0000		9999	1080	0	0	0
2017/11/21 03:54:01	BASE	2.42	230	3.24	228	-1.7	99	-1.8	0	0	985.2	NA	0.0000		9999	1080	0	0	0
2017/11/21 03:55:01	BASE	2.90	237	3.55	236	-1.7	99	-1.8	0	0	985.2	NA	0.0000		9999	1080	0	0	0
2017/11/21 03:56:01	BASE	3.17	236	3.76	239	-1.7	99	-1.8	0	0	985.2	NA	0.0000		9999	1050	0	0	0
2017/11/21 03:57:01	BASE	2.90	235	3.76	239	-1.7	99	-1.8	0	0	985.2	NA	0.0000		9999	1050	0	0	0
2017/11/21 03:58:01	BASE	2.76	234	3.76	239	-1.7	99	-1.8	0	0	985.2	NA	0.0000		9999	1050	1640	0	0
2017/11/21 03:59:01	BASE	2.65	233	3.76	239	-1.7	99	-1.8	0	0	985.2	NA	0.0000		9999	1080	0	0	0
2017/11/21 04:00:01	BASE	2.23	241	3.76	239	-1.7	99	-1.8	0	0	985.2	NA	0.0000		9999	1050	1410	2100	0
2017/11/21 04:01:01	BASE	2.02	248	3.76	239	-1.7	99	-1.8	0	0	985.2	NA	0.0000		9999	2070	0	0	0
2017/11/21 04:02:01	BASE	2.26	241	3.76	239	-1.7	100	-1.8	0	0	985.2	NA	0.0000		9999	980	2200	0	0
2017/11/21 04:03:01	BASE	2.23	234	3.76	239	-1.7	100	-1.7	0	0	985.2	NA	0.0000		9999	1080	2070	0	0
2017/11/21 04:04:01	BASE	1.64	233	3.76	239	-1.7	100	-1.7	0	0	985.2	NA	0.0000		9999	1020	2030	0	0
2017/11/21 04:05:01	BASE	1.75	235	3.76	239	-1.7	100	-1.7	0	0	985.2	NA	0.0000		9999	2030	0	0	0
2017/11/21 04:06:01	BASE	2.36	239	3.29	229	-1.7	100	-1.7	0	0	985.2	NA	0.0000		9999	2000	0	0	0
2017/11/21 04:07:01	BASE	2.61	237	3.29	229	-1.7	100	-1.7	0	0	985.2	NA	0.0000		9999	2030	0	0	0
2017/11/21 04:08:01	BASE	2.47	236	3.24	227	-1.8	100	-1.8	0	0	985.2	NA	0.0000		9999	2030	0	0	0
2017/11/21 04:09:01	BASE	2.36	232	2.93	236	-1.8	100	-1.8	0	0	985.2	NA	0.0000		9999	2070	0	0	0
2017/11/21 04:10:01	BASE	2.35	227	2.93	236	-1.8	100	-1.8	0	0	985.2	NA	0.0000		9999	2000	0	0	0
2017/11/21 04:11:01	BASE	2.31	227	2.93	236	-1.8	100	-1.8	0	0	985.2	NA	0.0000		9999	2030	0	0	0
2017/11/21 04:12:01	BASE	2.42	227	2.98	224	-1.8	100	-1.8	0	0	985.1	NA	0.0000		9999	1970	0	0	0
2017/11/21 04:13:01	BASE	2.43	225	2.98	224	-1.8	100	-1.8	0	0	985.2	NA	0.0000		9999	1970	0	0	0
2017/11/21 04:14:01	BASE	2.24	225	2.98	224	-1.8	100	-1.8	0	0	985.2	NA	0.0000		9999	1970	0	0	0
2017/11/21 04:15:01	BASE	2.03	227	2.98	224	-1.8	100	-1.8	0	0	985.2	NA	0.0000		9999	2000	0	0	0
2017/11/21 04:16:01	BASE	2.13	227	2.98	224	-1.8	100	-1.8	0	0	985.2	NA	0.0000		9999	1940	0	0	0
2017/11/21 04:17:01	BASE	2.48	229	2.98	239	-1.8	100	-1.8	0	0	985.2	NA	0.0000		9999	1020	1940	0	0
2017/11/21 04:18:01	BASE	2.73	227	2.98	215	-1.8	100	-1.8	0	0	985.2	NA	0.0000		9999	1020	1940	0	0
2017/11/21 04:19:01	BASE	2.61	220	2.98	215	-1.7	100	-1.7	0	0	985.2	NA	0.0000		9999	950	1900	0	0
2017/11/21 04:20:01	BASE	2.25	224	2.98	215	-1.7	100	-1.7	0	0	985.2	NA	0.0000		9999	920	1770	0	0
2017/11/21 04:21:01	BASE	1.83	229	2.98	215	-1.7	100	-1.7	0	0	985.2	NA	0.0000		9999	1740	0	0	0
2017/11/21 04:22:01	BASE	2.03	232	2.98	215	-1.7	100	-1.7	0	0	985.2	NA	0.0000		9999	1250	1900	0	0
2017/11/21 04:23:01	BASE	2.51	225	3.34	221	-1.7	100	-1.7	0	0	985.2	NA	0.0000		9999	1250	1870	0	0
2017/11/21 04:24:01	BASE	2.63	214	3.34	221	-1.8	100	-1.8	0	0	985.2	NA	0.0000		9999	2130	0	0	0
2017/11/21 04:25:01	BASE	2.74	215	3.34	221	-1.8	100	-1.8	0	0	985.2	NA	0.0000		9999	2000	0	0	0
2017/11/21 04:26:01	BASE	2.48	225	3.34	221	-1.8	100	-1.8	0	0	985.2	NA	0.0000		9999	950	0	0	0
2017/11/21 04:27:01	BASE	2.22	235	3.34	221	-1.8	100	-1.8	0	0	985.2	NA	0.0000		9999	1900	0	0	0
2017/11/21 04:28:01	BASE	2.12	232	3.34	221	-1.8	100	-1.8	0	0	985.2	NA	0.0000		9999	1740	0	0	0
2017/11/21 04:29:01	BASE	2.04	231	3.34	221	-1.8	100	-1.8	0	0	985.1	NA	0.0000		9999	1640	0	0	0
2017/11/21 04:30:01	BASE	1.94	237	3.34	221	-1.8	100	-1.8	0	0	985.1	NA	0.0000		9999	1940	0	0	0
2017/11/21 04:31:01	BASE	1.94	239	3.34	221	-1.8	100	-1.8	0	0	985.2	NA	0.0000		9999	1180	1940	0	0
2017/11/21 04:32:01	BASE	2.06	246	3.34	221	-1.8	100	-1.8	0	0	985.1	NA	0.0000		9999	920	0	0	0
2017/11/21 04:33:01	BASE	1.99	249	3.09	215	-1.8	100	-1.8	0	0	985.1	NA	0.0000		9999	920	0	0	0
2017/11/21 04:34:01	BASE	1.79	244	3.09	215	-1.8	100	-1.8	0	0	985.1	NA	0.0000		9999	920	1900	0	0
2017/11/21 04:35:01	BASE	1.73	239	2.62	254	-1.8	100	-1.8	0	0	985.1	NA	0.0000		9999	2070	0	0	0
2017/11/21 04:36:01	BASE	2.11	239	2.83	248	-1.8	100	-1.8	0	0	985.1	NA	0.0000		9999	1800	0	0	0
2017/11/21 04:37:01	BASE	2.35	240	2.83	248	-1.8	100	-1.8	0	0	985.1	NA	0.0000		9999	2030	0	0	0
2017/11/21 04:38:01	BASE	2.13	239	2.83	248	-1.8	100	-1.8	0	0	985.1	NA	0.0000		9999	2130	0	0	0
2017/11/21 04:39:01	BASE	1.97	237	2.83	248	-1.8	100	-1.8	0	0	985.1	NA	0.0000		9999	2130	0	0	0
2017/11/21 04:40:01	BASE	1.97	236	2.83	248	-1.8	100	-1.8	0	0	985.1	NA	0.0000		9999	2100	0	0	0
2017/11/21 04:41:01	BASE	1.91	236	2.83	248	-1.8	100	-1.8	0	0	985.1	NA	0.0000		9999	2170	0	0	0
2017/11/21 04:42:01	BASE	2.21	228	3.09	216	-1.8	100	-1.8	0	0	985.1	NA	0.0000		9999	2130	0	0	0
2017/11/21 04:43:01	BASE	2.36	225	3.09	216	-1.8	100	-1.8	0	0	985.1	NA	0.0000		9999	2100	0	0	0
2017/11/21 04:44:01	BASE	2.17	225	3.09	216	-1.8	100	-1.8	0	0	985.1	NA	0.0000		9999	2030	0	0	0
2017/11/21 04:45:01	BASE	2.43	229	3.09	216	-1.8	100	-1.8	0	0	985.1	NA	0.0000		9999	2000	0	0	0
2017/11/21 04:46:01	BASE	2.67	226	3.09	216	-1.8	100	-1.8	0	0	985.1	NA	0.0000		9999	1940	0	0	0
2017/11/21 04:47:01	BASE	2.80	214	3.24	214	-1.8	100	-1.8	0	0	985.1	NA	0.0000		9999	1080	1440	1900	0
2017/11/21 04:48:01	BASE	2.69	217	3.24	214	-1.8	100	-1.8	0	0	985.1	NA	0.0000		9999	950	0	0	0
2017/11/21 04:49:01	BASE	2.41	220	3.24	214	-1.8	100	-1.8	0	0	985.1	NA	0.0000		9999	950	1740	0	0
2017/11/21 04:50:01	BASE	2.64	217	3.50	222	-1.8	100	-1.8	0	0	985.1	NA	0.0000		9999	1900	0	0	0
2017/11/21 04:51:01	BASE	2.58	219	3.50	222	-1.8	100	-1.8	0	0	985.1	NA	0.0000		9999	2000	0	0	0
2017/11/21 04:52:01	BASE	2.03	220	3.50	222	-1.8	100	-1.8	0	0	985.1	NA	0.0000		9999	1840	0	0	0
2017/11/21 04:53:01	BASE	1.94	215	3.50	222	-1.8	100	-1.8	0	0	985.1	NA	0.0000		9999	1770	0	0	0
2017/11/21 04:54:01	BASE	2.07	212	3.50	222	-1.8	100	-1.8	0	0	985.1	NA	0.0000		9999	980	0	0	0
2017/11/21 04:55:01	BASE	2.03	217	3.50	222	-1.8	100	-1.8	0	0	985.1	NA	0.0000		9999	820	0	0	0
2017/11/21 04:56:01	BASE	2.33	222	3.50	222	-1.8	100	-1.8	0	0	985.1	NA	0.0000		9999	850	1710	0	0
2017/11/21 04:57:01	BASE	2.50	219	3.50	222	-1.8	100	-1.8	0	0	985.1	NA	0.0000		9999	980	1900	0	0
2017/11/21 04:58:01	BASE	2.53	216	3.50	222	-1.8	100	-1.8	0	0	985.1	NA	0.0000		9999	1020	1900	0	0
2017/11/21 04:59:01	BASE	2.57	211	3.50	222	-1.8	100	-1.8	0	0	985.1	NA	0.0000		9999	920	2000	0	0
2017/11/21 05:00:01	BASE	2.23	207	3.19	221	-1.8	100	-1.8	0	0	985.1	NA	0.0000		9999	1970	0	0	0
2017/11/21 05:01:01	BASE	2.02	216	3.19	221	-1.8	100	-1.8	0	0	985.1	NA	0.0000		9999	980	2030	0	0
2017/11/21 05:02:00	BASE	1.92	229	3.19	221	-1.8	100	-1.8	0	0	985.0	NA	0.0000		9999	950	2030	0	0
2017/11/21 05:03:00	BASE	2.20	229	3.19	221	-1.8	100	-1.8	0	0	985.0	NA	0.0000		9999	850	1940	0	0
2017/11/21 05:04:00	BASE	2.77	224	3.45	228	-1.8	100	-1.8	0	0	985.0	NA	0.0000		9999	920	1770	0	0
2017/11/21 05:05:00	BASE	2.91	229	3.45	228	-1.8	100	-1.8	0	0	984.9	NA	0.0000		9999	850	1710	0	0
2017/11/21 05:06:00	BASE	2.66	230	3.45	228	-1.8	100	-1.8	0	0	985.0	NA	0.0000		9999	980	1540	0	0
2017/11/21 05:07:00	BASE	2.41	228	3.45	228	-1.8	100	-1.8	0	0	985.0	NA	0.0000		9999	820	0	0	0
2017/11/21 05:08:00	BASE	2.09	219	3.45	228	-1.8	100	-1.8	0	0	985.0	NA	0.0000		9999	1770	0	0	0
2017/11/21 05:09:00	BASE	1.74	213	3.45	228	-1.8	100	-1.8	0	0	985.0	NA	0.0000		9999	1710	0	0	0
2017/11/21 05:10:00	BASE	2.10	214	3.45	228	-1.8	100	-1.8	0	0	985.0	NA	0.0000		9999	890	1740	0	0
2017/11/21 05:11:00	BASE	2.43	208	3.45	228	-1.8	100	-1.8	0	0	985.0	NA	0.0000		9999	820	0	0	0
2017/11/21 05:12:00	BASE	2.03	207	3.45	228	-1.8	100	-1.8	0	0	985.0	NA	0.0000		9999	820	0	0	0
2017/11/21 05:13:00	BASE	1.99	213	3.45	228	-1.8	100	-1.8	0	0	985.0	NA	0.0000		9999	1020	0	0	0
2017/11/21 05:14:00	BASE	2.21	208	3.29	246	-1.8	100	-1.8	0	0	985.0	NA	0.0000		9999	1410	1840	0	0
2017/11/21 05:15:00	BASE	2.53	201	3.19	205	-1.8	100	-1.8	0	0	985.0	NA	0.0000		9999	1570	0	0	0
2017/11/21 05:16:00	BASE	2.82	204	3.19	202	-1.8	100	-1.8	0	0	985.0	NA	0.0000		9999	1710	0	0	0
2017/11/21 05:17:00	BASE	2.89	206	3.29	206	-1.8	100	-1.8	0	0	985.0	NA	0.0000		9999	1710	0	0	0
2017/11/21 05:18:00	BASE	2.86	206	3.29	206	-1.8	100	-1.8	0	0	984.9	NA	0.0000		9999	1770	0	0	0
2017/11/21 05:19:00	BASE	2.72	207	3.29	206	-1.8	100	-1.8	0	0	985.0	NA	0.0000		9999	1710	0	0	0
2017/11/21 05:20:00	BASE	2.69	210	3.29	206	-1.8	100	-1.8	0	0	985.0	NA	0.0000		9999	1710	0	0	0
2017/11/21 05:21:00	BASE	2.78	207	3.34	198	-1.8	100	-1.8	0	0	985.0	NA	0.0000		9999	1540	0	0	0
2017/11/21 05:22:00	BASE	2.92	207	3.55	207	-1.8	100	-1.8	0	0	985.1	NA	0.0000		9999	1670	0	0	0
2017/11/21 05:23:00	BASE	3.23	211	3.65	214	-1.8	100	-1.8	0	0	985.1	NA	0.0000		9999	1670	0	0	0
2017/11/21 05:24:00	BASE	3.27	211	3.65	214	-1.8	100	-1.8	0	0	985.1	NA	0.0000		9999	1640	0	0	0
2017/11/21 05:25:00	BASE	2.91	212	3.65	214	-1.8	100	-1.8	0	0	985.1	NA	0.0000		9999	1670	0	0	0
2017/11/21 05:26:00	BASE	3.09	209	3.65	214	-1.9	100	-1.9	0	0	985.1	NA	0.0000		9999	1570	0	0	0
2017/11/21 05:27:00	BASE	3.34	208	3.65	214	-1.9	100	-1.9	0	0	985.1	NA	0.0000		9999	1510	0	0	0
2017/11/21 05:28:00	BASE	3.21	212	3.65	214	-1.9	100	-1.9	0	0	985.1	NA	0.0000		9999	1540	0	0	0
2017/11/21 05:29:00	BASE	3.17	215	3.65	214	-1.9	100	-1.9	0	0	985.1	NA	0.0000		9999	1570	0	0	0
2017/11/21 05:30:00	BASE	3.32	212	3.76	208	-1.9	100	-1.9	0	0	985.1	NA	0.0000		9999	1540	0	0	0
2017/11/21 05:31:00	BASE	3.36	210	3.76	208	-1.9	100	-1.9	0	0	985.1	NA	0.0000		9999	1480	0	0	0
2017/11/21 05:32:00	BASE	3.14	212	3.76	208	-1.8	100	-1.8	0	0	985.1	NA	0.0000		9999	1540	0	0	0
2017/11/21 05:33:00	BASE	2.98	216	3.76	208	-1.8	100	-1.8	0	0	985.1	NA	0.0000		9999	1570	0	0	0
2017/11/21 05:34:00	BASE	3.11	214	3.81	206	-1.8	100	-1.8	0	0	985.1	NA	0.0000		9999	1510	0	0	0
2017/11/21 05:35:00	BASE	3.58	215	4.58	212	-1.8	100	-1.8	0	0	985.1	NA	0.0000		9999	1540	0	0	0
2017/11/21 05:36:00	BASE	3.79	221	4.58	212	-1.9	100	-1.9	0	0	985.1	NA	0.0000		9999	1570	0	0	0
2017/11/21 05:37:00	BASE	3.28	221	4.58	212	-1.9	100	-1.9	0	0	985.1	NA	0.0000		9999	1380	0	0	0
2017/11/21 05:38:00	BASE	2.68	218	4.58	212	-1.9	100	-1.9	0	0	985.1	NA	0.0000		9999	1410	0	0	0
2017/11/21 05:39:00	BASE	2.45	211	4.58	212	-1.9	100	-1.9	0	1	985.1	NA	0.0000		9999	1480	0	0	0
2017/11/21 05:40:00	BASE	2.72	205	4.58	212	-1.9	100	-1.9	0	1	985.1	NA	0.0000		9999	1480	0	0	0
2017/11/21 05:41:00	BASE	2.97	202	4.58	212	-1.9	99	-1.9	0	1	985.1	NA	0.0000		9999	1350	0	0	0
2017/11/21 05:42:00	BASE	2.80	202	4.58	212	-1.8	99	-1.9	0	1	985.1	NA	0.0000	UP	9999	1510	0	0	0
2017/11/21 05:43:00	BASE	2.75	205	4.58	212	-1.8	99	-1.9	0	1	985.1	NA	0.0000	UP	9999	1510	0	0	0
2017/11/21 05:44:00	BASE	2.70	206	4.58	212	-1.8	99	-1.9	0	1	985.1	NA	0.0000	UP	9999	1410	0	0	0
2017/11/21 05:45:00	BASE	2.67	209	4.17	221	-1.8	100	-1.8	0	1	985.1	NA	0.0000	UP	9999	1440	0	0	0
2017/11/21 05:46:00	BASE	2.83	216	3.24	200	-1.8	100	-1.8	0	1	985.1	NA	0.0000	UP	9999	1440	0	0	0
2017/11/21 05:47:00	BASE	2.62	218	3.24	200	-1.8	100	-1.8	0	1	985.1	NA	0.0000	UP	9999	1440	0	0	0
2017/11/21 05:48:00	BASE	2.70	219	3.34	222	-1.8	100	-1.8	0	1	985.1	NA	0.0000	UP	9999	1480	0	0	0
2017/11/21 05:49:00	BASE	2.92	216	3.60	215	-1.8	100	-1.8	0	1	985.1	NA	0.0000	UP	9999	1440	0	0	0
2017/11/21 05:50:00	BASE	3.06	208	4.01	207	-1.9	100	-1.9	0	1	985.1	NA	0.0000	UP	9999	1510	0	0	0
2017/11/21 05:51:00	BASE	3.55	206	4.06	207	-1.9	100	-1.9	0	1	985.1	NA	0.0000		9999	1480	0	0	0
2017/11/21 05:52:00	BASE	3.51	210	4.06	207	-1.9	99	-2.0	0	1	985.2	NA	0.0000		9999	1540	0	0	0
2017/11/21 05:53:00	BASE	3.30	213	4.06	207	-1.9	99	-2.1	0	1	985.1	NA	0.0000		9999	1510	0	0	0
2017/11/21 05:54:00	BASE	3.23	211	4.06	207	-1.9	98	-2.1	1	1	985.2	NA	0.0000		9999	1380	0	0	0
2017/11/21 05:55:00	BASE	2.93	211	4.06	207	-1.9	98	-2.2	1	1	985.2	NA	0.0000		9999	1410	0	0	0
2017/11/21 05:56:00	BASE	2.50	210	4.06	207	-1.8	97	-2.3	1	1	985.2	NA	0.0000		9999	1410	0	0	0
2017/11/21 05:57:00	BASE	1.90	204	4.06	207	-1.8	97	-2.3	1	1	985.2	NA	0.0000		9999	1610	0	0	0
2017/11/21 05:58:00	BASE	1.79	205	4.06	207	-1.8	96	-2.4	1	1	985.1	NA	0.0000		9999	1640	0	0	0
2017/11/21 05:59:00	BASE	2.05	205	4.06	207	-1.8	96	-2.4	1	2	985.2	NA	0.0000		9999	1610	0	0	0
2017/11/21 06:00:00	BASE	1.99	205	4.06	207	-1.8	95	-2.5	1	2	985.2	NA	0.0000		9999	1480	0	0	0
2017/11/21 06:01:00	BASE	2.50	218	3.81	215	-1.8	95	-2.6	1	2	985.1	NA	0.0000		9999	1250	0	0	0
2017/11/21 06:02:00	BASE	3.13	227	3.81	215	-1.8	94	-2.6	1	2	985.1	NA	0.0000		9999	1050	0	0	0
2017/11/21 06:03:00	BASE	3.13	225	3.45	232	-1.8	95	-2.6	1	2	985.1	NA	0.0000		9999	980	0	0	0
2017/11/21 06:04:00	BASE	3.00	221	3.45	232	-1.8	95	-2.5	1	2	985.1	NA	0.0000	UP	9000	1180	0	0	0
2017/11/21 06:05:00	BASE	2.80	218	3.45	232	-1.8	96	-2.4	1	2	985.1	NA	0.0000	UP	8000	660	0	0	0
2017/11/21 06:06:00	BASE	2.68	213	3.45	232	-1.9	97	-2.3	1	2	985.1	NA	0.0000	UP	6000	850	1510	0	0
2017/11/21 06:07:00	BASE	2.68	209	3.45	232	-1.9	98	-2.2	1	2	985.1	NA	0.0000	UP BR	5000	720	0	0	0
2017/11/21 06:08:00	BASE	2.91	209	3.45	232	-1.9	98	-2.2	1	2	985.1	NA	0.0000	UP BR	6000	1050	0	0	0
2017/11/21 06:09:00	BASE	2.94	207	3.45	232	-2.0	99	-2.1	1	3	985.1	NA	0.0000	UP BR	5000	1350	0	0	0
2017/11/21 06:10:00	BASE	2.63	205	3.45	232	-2.0	99	-2.1	1	3	985.2	NA	0.0000	UP BR	4200	1180	0	0	0
2017/11/21 06:11:00	BASE	2.30	202	3.34	226	-2.1	100	-2.1	1	3	985.1	NA	0.0000	UP BR	7000	980	0	0	0
2017/11/21 06:12:00	BASE	2.08	197	3.34	226	-2.1	100	-2.1	1	3	985.1	NA	0.0000	UP BR	9999	1310	0	0	0
2017/11/21 06:13:00	BASE	2.00	194	3.24	208	-2.1	100	-2.1	1	3	985.1	NA	0.0000	UP BR	9999	1350	0	0	0
2017/11/21 06:14:00	BASE	2.17	195	3.24	208	-2.1	100	-2.1	1	3	985.2	NA	0.0000	UP BR	9999	1480	0	0	0
2017/11/21 06:15:00	BASE	2.30	196	3.24	208	-2.1	100	-2.1	1	3	985.2	NA	0.0000	UP BR	9999	1540	0	0	0
2017/11/21 06:16:00	BASE	2.13	192	3.24	208	-2.1	100	-2.1	1	3	985.2	NA	0.0000	UP BR	9999	1540	0	0	0
2017/11/21 06:17:00	BASE	1.98	184	3.24	208	-2.0	100	-2.0	1	3	985.2	NA	0.0000	UP BR	8000	1570	0	0	0
2017/11/21 06:18:00	BASE	1.91	179	2.93	205	-2.0	100	-2.0	1	3	985.2	NA	0.0000	UP BR	9999	1610	0	0	0
2017/11/21 06:19:00	BASE	1.98	182	2.83	206	-2.0	100	-2.0	1	4	985.2	NA	0.0000	UP BR	9999	1610	0	0	0
2017/11/21 06:20:00	BASE	2.11	183	2.68	201	-2.0	100	-2.0	1	4	985.2	NA	0.0000	UP	9999	1610	0	0	0
2017/11/21 06:21:00	BASE	2.05	180	2.68	201	-2.0	100	-2.0	1	4	985.2	NA	0.0000		9999	1570	0	0	0
2017/11/21 06:22:00	BASE	2.03	181	2.68	201	-2.1	100	-2.1	1	4	985.2	NA	0.0000		9999	1510	0	0	0
2017/11/21 06:23:00	BASE	2.35	183	2.83	182	-2.1	100	-2.1	1	4	985.3	NA	0.0000		9999	1640	0	0	0
2017/11/21 06:24:00	BASE	2.51	187	2.83	182	-2.1	100	-2.1	1	4	985.3	NA	0.0000		9999	1670	0	0	0
2017/11/21 06:25:00	BASE	2.56	194	2.93	204	-2.0	100	-2.0	2	5	985.3	NA	0.0000		9999	820	1710	0	0
2017/11/21 06:26:00	BASE	2.76	198	3.09	201	-2.0	100	-2.0	2	5	985.3	NA	0.0000		9999	790	1670	0	0
2017/11/21 06:27:00	BASE	2.89	196	3.34	195	-2.0	100	-2.0	2	5	985.3	NA	0.0000		9999	720	0	0	0
2017/11/21 06:28:00	BASE	2.96	193	3.34	191	-2.0	100	-2.0	2	5	985.3	NA	0.0000		9999	720	0	0	0
2017/11/21 06:29:00	BASE	2.93	190	3.34	191	-2.0	100	-2.0	2	6	985.3	NA	0.0000		9999	620	1710	0	0
2017/11/21 06:30:00	BASE	3.00	189	3.45	184	-2.0	100	-2.0	2	6	985.3	NA	0.0000		9999	1670	0	0	0
2017/11/21 06:31:00	BASE	3.05	191	3.50	194	-2.0	100	-2.0	2	6	985.3	NA	0.0000		9999	1710	0	0	0
2017/11/21 06:32:00	BASE	3.17	189	4.06	184	-2.0	100	-2.0	2	6	985.3	NA	0.0000		9999	1770	0	0	0
2017/11/21 06:33:00	BASE	3.60	184	4.06	184	-2.0	100	-2.0	2	7	985.3	NA	0.0000		9999	1800	0	0	0
2017/11/21 06:34:00	BASE	3.67	184	4.06	184	-2.0	100	-2.0	2	7	985.4	NA	0.0000		9999	1670	0	0	0
2017/11/21 06:35:00	BASE	3.58	187	4.06	184	-2.0	100	-2.0	2	7	985.4	NA	0.0000		9999	1670	0	0	0
2017/11/21 06:36:00	BASE	3.75	193	4.06	195	-2.0	100	-2.0	2	7	985.4	NA	0.0000		9999	1770	0	0	0
2017/11/21 06:37:00	BASE	3.83	194	4.06	195	-2.0	100	-2.0	2	8	985.4	NA	0.0000		9999	1710	0	0	0
2017/11/21 06:38:00	BASE	3.50	189	4.06	195	-2.0	100	-2.0	2	8	985.4	NA	0.0000		9999	1670	0	0	0
2017/11/21 06:39:00	BASE	3.30	184	4.06	195	-2.0	100	-2.0	3	8	985.4	NA	0.0000		9999	1740	0	0	0
2017/11/21 06:40:00	BASE	3.57	176	4.58	170	-2.0	100	-2.0	3	9	985.4	NA	0.0000		9999	1770	0	0	0
2017/11/21 06:41:00	BASE	3.84	177	4.58	170	-2.0	100	-2.0	3	9	985.4	NA	0.0000		9999	1800	0	0	0
2017/11/21 06:42:00	BASE	4.36	188	5.50	182	-2.0	100	-2.0	3	10	985.4	NA	0.0000		9999	1800	0	0	0
2017/11/21 06:43:00	BASE	4.80	188	5.50	182	-2.1	100	-2.1	3	10	985.4	NA	0.0000		9999	1770	0	0	0
2017/11/21 06:44:00	BASE	4.93	182	5.61	175	-2.1	99	-2.2	3	10	985.4	NA	0.0000		9999	1800	0	0	0
2017/11/21 06:45:00	BASE	5.06	182	5.61	183	-2.1	99	-2.2	3	11	985.4	NA	0.0000		9999	1800	0	0	0
2017/11/21 06:46:00	BASE	5.26	186	5.86	190	-2.1	98	-2.4	3	11	985.4	NA	0.0000		9999	1800	0	0	0
2017/11/21 06:47:00	BASE	5.44	185	5.86	184	-2.1	97	-2.5	3	11	985.4	NA	0.0000		9999	1800	0	0	0
2017/11/21 06:48:00	BASE	5.21	179	5.86	184	-2.1	96	-2.7	3	12	985.4	NA	0.0000		9999	1740	0	0	0
2017/11/21 06:49:00	BASE	4.96	177	5.92	173	-2.1	94	-2.8	3	12	985.5	NA	0.0000		9999	1800	0	0	0
2017/11/21 06:50:00	BASE	4.86	181	5.92	173	-2.0	93	-3.0	4	13	985.6	NA	0.0000		9999	1840	0	0	0
2017/11/21 06:51:00	BASE	4.58	184	5.92	173	-2.0	92	-3.1	4	13	985.6	NA	0.0000		9999	1870	0	0	0
2017/11/21 06:52:00	BASE	4.32	190	5.92	173	-2.0	92	-3.2	4	13	985.6	NA	0.0000		9999	1840	0	0	0
2017/11/21 06:53:00	BASE	4.40	189	5.92	173	-2.0	91	-3.3	4	13	985.6	NA	0.0000		9999	1900	0	0	0
2017/11/21 06:54:00	BASE	4.08	183	5.92	173	-2.0	90	-3.4	4	14	985.7	NA	0.0000		9999	1800	0	0	0
2017/11/21 06:55:00	BASE	3.26	182	5.92	173	-2.0	89	-3.5	4	14	985.7	NA	0.0000		9999	1800	0	0	0
2017/11/21 06:56:00	BASE	2.79	185	5.92	173	-1.9	89	-3.5	4	14	985.7	NA	0.0000		9999	1800	0	0	0
2017/11/21 06:57:00	BASE	2.80	189	5.92	173	-1.9	88	-3.6	4	14	985.8	NA	0.0000		9999	1800	0	0	0
2017/11/21 06:58:00	BASE	3.50	193	5.92	173	-1.9	88	-3.6	4	15	985.7	NA	0.0000		9999	1800	0	0	0
2017/11/21 06:59:00	BASE	4.65	195	5.50	172	-1.9	88	-3.6	4	15	985.7	NA	0.0000		9999	1800	0	0	0
2017/11/21 07:00:00	BASE	4.96	192	5.35	197	-1.9	88	-3.6	4	16	985.7	NA	0.0000		9999	1800	0	0	0
2017/11/21 07:01:00	BASE	4.53	191	5.35	197	-1.9	88	-3.6	5	17	985.8	NA	0.0000		9999	1800	0	0	0
2017/11/21 07:02:00	BASE	4.42	196	5.61	187	-1.9	88	-3.6	5	17	985.8	NA	0.0000		9999	1800	0	0	0
2017/11/21 07:03:00	BASE	3.78	199	5.61	187	-1.9	88	-3.7	5	18	985.8	NA	0.0000		9999	1840	0	0	0
2017/11/21 07:04:00	BASE	2.76	186	5.61	187	-2.0	88	-3.7	6	19	985.8	NA	0.0000		9999	1770	0	0	0
2017/11/21 07:05:00	BASE	2.44	183	5.61	187	-2.0	87	-3.8	6	20	985.8	NA	0.0000		9999	1740	0	0	0
2017/11/21 07:06:00	BASE	2.72	194	5.61	187	-2.0	87	-3.8	7	20	985.8	NA	0.0000		9999	1770	0	0	0
2017/11/21 07:07:00	BASE	3.24	200	5.61	187	-1.9	87	-3.9	7	21	985.8	NA	0.0000		9999	1770	0	0	0
2017/11/21 07:08:00	BASE	4.14	200	5.61	187	-1.9	87	-3.8	8	22	985.8	NA	0.0000		9999	1740	0	0	0
2017/11/21 07:09:00	BASE	4.78	195	5.61	187	-1.9	87	-3.8	8	23	985.8	NA	0.0000		9999	1710	0	0	0
2017/11/21 07:10:00	BASE	4.71	193	5.61	187	-1.9	87	-3.7	9	25	985.8	NA	0.0000		9999	1770	0	0	0
2017/11/21 07:11:00	BASE	4.94	191	5.61	187	-1.9	88	-3.7	10	27	985.8	NA	0.0000		9999	1770	0	0	0
2017/11/21 07:12:00	BASE	4.95	194	5.56	199	-1.9	88	-3.6	11	29	985.9	NA	0.0000		9999	1770	0	0	0
2017/11/21 07:13:00	BASE	4.72	195	5.56	199	-2.0	89	-3.6	11	31	985.9	NA	0.0000		9999	1800	0	0	0
2017/11/21 07:14:00	BASE	4.95	193	5.56	199	-2.0	89	-3.6	12	34	985.9	NA	0.0000		9999	1800	0	0	0
2017/11/21 07:15:00	BASE	5.02	193	5.56	199	-2.0	89	-3.6	13	36	985.9	NA	0.0000		9999	1840	0	0	0
2017/11/21 07:16:00	BASE	4.45	192	5.56	199	-2.0	89	-3.7	13	37	985.9	NA	0.0000		9999	1770	0	0	0
2017/11/21 07:17:00	BASE	4.00	190	5.56	199	-2.1	88	-3.8	13	38	985.9	NA	0.0000		9999	2000	2660	0	0
2017/11/21 07:18:00	BASE	3.88	186	5.45	195	-2.1	88	-3.8	13	39	985.9	NA	0.0000		9999	0	0	0	0
2017/11/21 07:19:00	BASE	3.47	184	5.45	195	-2.1	87	-3.9	17	43	985.9	NA	0.0000		9999	0	0	0	0
2017/11/21 07:20:00	BASE	3.29	186	5.45	195	-2.1	87	-4.0	26	52	985.9	NA	0.0000		9999	0	0	0	0
2017/11/21 07:21:00	BASE	3.56	194	5.45	195	-2.2	87	-4.1	25	52	985.9	NA	0.0000		9999	2000	0	0	0
2017/11/21 07:22:00	BASE	3.86	199	5.45	195	-2.2	86	-4.1	23	51	985.9	NA	0.0000		9999	0	0	0	0
2017/11/21 07:23:00	BASE	4.10	201	5.45	195	-2.2	86	-4.2	24	53	986.0	NA	0.0000		9999	0	0	0	0
2017/11/21 07:24:00	BASE	4.00	200	5.35	193	-2.2	86	-4.2	27	57	986.0	NA	0.0000		9999	0	0	0	0
2017/11/21 07:25:00	BASE	3.72	194	4.68	192	-2.2	86	-4.2	30	62	986.0	NA	0.0000		9999	0	0	0	0
2017/11/21 07:26:00	BASE	3.28	191	4.58	189	-2.2	86	-4.2	37	69	986.0	NA	0.0000		9999	7480	0	0	0
2017/11/21 07:27:00	BASE	2.80	192	4.37	202	-2.2	86	-4.2	41	74	986.0	NA	0.0000		9999	7420	0	0	0
2017/11/21 07:28:00	BASE	2.63	195	4.37	202	-2.2	86	-4.2	46	80	986.0	NA	0.0000		9999	7320	0	0	0
2017/11/21 07:29:00	BASE	2.52	196	4.37	202	-2.2	86	-4.2	47	83	986.0	NA	0.0000		9999	7280	0	0	0
2017/11/21 07:30:00	BASE	2.19	189	4.37	202	-2.2	86	-4.2	47	84	986.0	NA	0.0000		9999	7280	0	0	0
2017/11/21 07:31:00	BASE	1.89	184	4.37	202	-2.2	86	-4.1	51	90	986.0	NA	0.0000		9999	7320	0	0	0
2017/11/21 07:32:00	BASE	1.72	187	4.32	195	-2.2	86	-4.2	53	93	986.1	NA	0.0000		9999	7350	0	0	0
2017/11/21 07:33:00	BASE	1.57	188	4.22	196	-2.1	86	-4.2	56	97	986.2	NA	0.0000		9999	7320	0	0	0
2017/11/21 07:34:00	BASE	1.45	183	4.06	188	-2.1	86	-4.2	61	103	986.2	NA	0.0000		9999	7480	0	0	0
2017/11/21 07:35:00	BASE	1.57	183	3.24	189	-2.1	86	-4.2	67	110	986.2	NA	0.0000		9999	7090	0	0	0
2017/11/21 07:36:00	BASE	1.94	192	2.93	204	-2.1	86	-4.1	70	113	986.2	NA	0.0000		9999	7420	0	0	0
2017/11/21 07:37:00	BASE	2.12	190	2.93	204	-2.1	86	-4.1	71	116	986.2	NA	0.0000		9999	7380	0	0	0
2017/11/21 07:38:00	BASE	2.32	183	2.73	187	-2.1	87	-4.0	73	119	986.2	NA	0.0000		9999	7420	0	0	0
2017/11/21 07:39:00	BASE	2.37	185	2.73	187	-2.1	87	-3.9	76	123	986.2	NA	0.0000		9999	7320	0	0	0
2017/11/21 07:40:00	BASE	2.25	188	2.73	187	-2.1	88	-3.8	79	128	986.2	NA	0.0000		9999	7280	0	0	0
2017/11/21 07:41:00	BASE	2.36	192	2.73	187	-2.0	88	-3.8	82	133	986.2	NA	0.0000		9999	7380	0	0	0
2017/11/21 07:42:00	BASE	2.36	196	2.73	187	-2.1	88	-3.8	85	137	986.2	NA	0.0000		9999	7380	0	0	0
2017/11/21 07:43:00	BASE	2.05	198	2.73	187	-2.0	88	-3.8	88	143	986.2	NA	0.0000		9999	7380	0	0	0
2017/11/21 07:44:00	BASE	1.71	194	2.73	187	-2.0	88	-3.8	91	147	986.3	NA	0.0000		9999	7320	0	0	0
2017/11/21 07:45:00	BASE	1.74	185	2.73	187	-2.1	88	-3.8	94	152	986.3	NA	0.0000		9999	7510	0	0	0
2017/11/21 07:46:00	BASE	1.93	180	2.73	187	-2.1	88	-3.8	98	158	986.3	NA	0.0000		9999	7280	0	0	0
2017/11/21 07:47:00	BASE	1.98	180	2.73	187	-2.1	88	-3.8	101	163	986.3	NA	0.0000		9999	7450	0	0	0
2017/11/21 07:48:00	BASE	1.80	177	2.52	196	-2.1	88	-3.8	103	167	986.3	NA	0.0000		9999	7120	0	0	0
2017/11/21 07:49:00	BASE	1.68	181	2.52	196	-2.1	88	-3.8	105	172	986.2	NA	0.0000		9999	7150	0	0	0
2017/11/21 07:50:00	BASE	1.66	191	2.52	196	-2.1	88	-3.8	108	177	986.2	NA	0.0000		9999	7120	0	0	0
2017/11/21 07:51:00	BASE	1.52	195	2.52	196	-2.1	88	-3.8	111	182	986.2	NA	0.0000		9999	7150	0	0	0
2017/11/21 07:52:00	BASE	1.70	200	2.26	205	-2.0	88	-3.8	114	188	986.2	NA	0.0000		9999	7120	0	0	0
2017/11/21 07:53:00	BASE	1.91	205	2.26	205	-2.0	88	-3.8	118	195	986.2	NA	0.0000		9999	7150	0	0	0
2017/11/21 07:54:00	BASE	1.87	205	2.26	205	-2.1	88	-3.8	121	201	986.2	NA	0.0000		9999	7480	0	0	0
2017/11/21 07:55:00	BASE	1.75	202	2.26	205	-2.1	88	-3.8	124	206	986.2	NA	0.0000		9999	7120	0	0	0
2017/11/21 07:56:00	BASE	1.50	197	2.26	205	-2.1	88	-3.8	127	211	986.2	NA	0.0000		9999	7250	0	0	0
2017/11/21 07:57:00	BASE	1.37	196	2.26	205	-2.1	88	-3.8	130	217	986.3	NA	0.0000		9999	7580	0	0	0
2017/11/21 07:58:00	BASE	1.26	205	2.26	205	-2.1	88	-3.8	128	215	986.3	NA	0.0000		9999	2200	7150	7510	0
2017/11/21 07:59:00	BASE	1.16	210	2.26	205	-2.1	88	-3.8	125	212	986.3	NA	0.0000		9999	2200	7250	0	0
2017/11/21 08:00:00	BASE	1.31	208	2.26	205	-2.1	88	-3.8	120	206	986.3	NA	0.0000		9999	2200	7420	0	0
2017/11/21 08:01:00	BASE	1.46	213	2.26	205	-2.1	88	-3.8	114	199	986.2	NA	0.0000		9999	7220	0	0	0
2017/11/21 08:02:00	BASE	1.40	216	2.06	203	-2.1	88	-3.8	112	197	986.3	NA	0.0000		9999	7190	0	0	0
2017/11/21 08:03:00	BASE	1.34	217	2.06	203	-2.1	88	-3.8	112	198	986.3	NA	0.0000		9999	7150	0	0	0
2017/11/21 08:04:00	BASE	1.37	222	1.80	226	-2.1	88	-3.9	111	198	986.3	NA	0.0000		9999	0	0	0	0
2017/11/21 08:05:00	BASE	1.49	222	1.80	226	-2.2	88	-3.9	115	204	986.3	NA	0.0000		9999	7220	0	0	0
2017/11/21 08:06:00	BASE	1.48	217	1.80	226	-2.2	88	-3.9	84	167	986.3	NA	0.0000		9999	7050	0	0	0
2017/11/21 08:07:00	BASE	1.43	213	1.80	226	-2.2	88	-3.9	65	143	986.3	NA	0.0000		9999	7020	0	0	0
2017/11/21 08:08:00	BASE	1.44	209	1.80	226	-2.2	88	-3.9	47	120	986.4	NA	0.0000		9999	6990	0	0	0
2017/11/21 08:09:00	BASE	1.44	208	1.80	226	-2.2	88	-3.9	56	133	986.4	NA	0.0000		9999	0	0	0	0
2017/11/21 08:10:00	BASE	1.39	208	1.80	226	-2.2	88	-4.0	60	138	986.4	NA	0.0000		9999	0	0	0	0
2017/11/21 08:11:00	BASE	1.27	205	1.80	226	-2.3	88	-4.0	59	137	986.4	NA	0.0000		9999	0	0	0	0
2017/11/21 08:12:00	BASE	0.99	203	1.80	226	-2.3	88	-4.0	60	140	986.4	NA	0.0000		9999	2000	0	0	0
2017/11/21 08:13:00	BASE	0.42	203	1.80	226	-2.3	88	-4.0	54	132	986.4	NA	0.0000		9999	1970	0	0	0
2017/11/21 08:14:00	BASE	0.00	204	1.65	215	-2.3	88	-3.9	48	124	986.4	NA	0.0000		9999	1970	0	0	0
2017/11/21 08:15:00	BASE	0.00	207	1.65	215	-2.3	89	-3.9	41	116	986.4	NA	0.0000		9999	0	0	0	0
2017/11/21 08:16:00	BASE	0.00	209	1.54	208	-2.3	89	-3.9	40	116	986.4	NA	0.0000		9999	0	0	0	0
2017/11/21 08:17:00	BASE	0.00	210	1.54	208	-2.3	89	-3.9	42	119	986.4	NA	0.0000		9999	0	0	0	0
2017/11/21 08:18:00	BASE	0.00	213	1.44	207	-2.3	89	-3.9	56	139	986.4	NA	0.0000		9999	0	0	0	0
2017/11/21 08:19:00	BASE	0.00	222	1.44	207	-2.3	89	-3.8	124	229	986.4	NA	0.0000		9999	0	0	0	0
2017/11/21 08:20:00	BASE	0.26	227	1.23	203	-2.3	89	-3.8	149	262	986.4	NA	0.0000		9999	0	0	0	0
2017/11/21 08:21:00	BASE	0.44	226	1.23	203	-2.3	89	-3.8	126	235	986.4	NA	0.0000		9999	1900	0	0	0
2017/11/21 08:22:00	BASE	0.18	224	1.13	219	-2.3	89	-3.8	151	267	986.4	NA	0.0000		9999	1870	0	0	0
2017/11/21 08:23:00	BASE	0.00	229	1.13	219	-2.3	89	-3.8	148	264	986.4	NA	0.0000		9999	1840	0	0	0
2017/11/21 08:24:00	BASE	0.00	236	1.13	219	-2.3	89	-3.9	109	214	986.4	NA	0.0000		9999	1840	0	0	0
2017/11/21 08:25:00	BASE	0.00	237	1.13	219	-2.3	89	-3.9	69	159	986.4	NA	0.0000		9999	0	0	0	0
2017/11/21 08:26:00	BASE	0.00	237	1.13	219	-2.3	88	-3.9	64	151	986.4	NA	0.0000		9999	1870	0	0	0
2017/11/21 08:27:00	BASE	0.00	237	1.13	219	-2.2	88	-3.9	72	161	986.4	NA	0.0000		9999	0	0	0	0
2017/11/21 08:28:00	BASE	0.00	235	1.13	219	-2.2	88	-4.0	80	174	986.4	NA	0.0000		9999	1870	0	0	0
2017/11/21 08:29:00	BASE	0.00	232	1.13	219	-2.2	88	-4.0	78	171	986.5	NA	0.0000		9999	1870	0	0	0
2017/11/21 08:30:00	BASE	0.00	230	1.13	219	-2.3	88	-4.0	79	171	986.5	NA	0.0000		9999	1800	0	0	0
2017/11/21 08:31:00	BASE	0.00	224	M	M	-2.3	88	-4.1	76	166	986.5	NA	0.0000		9999	1840	0	0	0
2017/11/21 08:32:00	BASE	0.00	225	M	M	-2.3	87	-4.1	71	159	986.5	NA	0.0000		9999	1770	0	0	0
2017/11/21 08:33:00	BASE	0.00	234	M	M	-2.3	87	-4.1	67	153	986.5	NA	0.0000		9999	1740	0	0	0
2017/11/21 08:34:00	BASE	0.00	232	M	M	-2.3	87	-4.1	66	152	986.5	NA	0.0000		9999	1740	0	0	0
2017/11/21 08:35:00	BASE	0.00	227	M	M	-2.3	88	-4.1	71	160	986.5	NA	0.0000		9999	1670	0	0	0
2017/11/21 08:36:00	BASE	0.00	221	M	M	-2.3	88	-4.0	76	167	986.5	NA	0.0000		9999	1770	0	0	0
2017/11/21 08:37:00	BASE	0.00	212	M	M	-2.3	88	-4.0	72	162	986.5	NA	0.0000		9999	1740	0	0	0
2017/11/21 08:38:00	BASE	0.00	210	M	M	-2.2	88	-3.9	69	158	986.5	NA	0.0000		9999	1710	0	0	0
2017/11/21 08:39:00	BASE	0.00	210	M	M	-2.2	88	-3.9	69	159	986.5	NA	0.0000		9999	1740	0	0	0
2017/11/21 08:40:00	BASE	0.00	210	M	M	-2.2	88	-4.0	69	159	986.5	NA	0.0000		9999	1670	0	0	0
2017/11/21 08:41:00	BASE	0.00	210	M	M	-2.3	88	-3.9	71	162	986.5	NA	0.0000		9999	1670	0	0	0
2017/11/21 08:42:00	BASE	0.00	210	M	M	-2.3	88	-3.9	72	166	986.6	NA	0.0000		9999	1640	0	0	0
2017/11/21 08:43:00	BASE	0.25	208	1.29	207	-2.3	89	-3.9	72	165	986.6	NA	0.0000		9999	1640	0	0	0
2017/11/21 08:44:00	BASE	0.80	212	1.44	217	-2.3	89	-3.9	70	163	986.6	NA	0.0000		9000	1610	0	0	0
2017/11/21 08:45:00	BASE	0.82	215	1.44	217	-2.3	89	-3.9	71	166	986.6	NA	0.0000		9000	1610	0	0	0
2017/11/21 08:46:00	BASE	0.27	212	1.44	217	-2.3	89	-3.8	74	171	986.6	NA	0.0000		9000	1610	0	0	0
2017/11/21 08:47:00	BASE	0.19	218	1.44	217	-2.3	89	-3.8	77	176	986.5	NA	0.0000		9000	1670	0	0	0
2017/11/21 08:48:00	BASE	0.19	219	1.44	217	-2.3	90	-3.8	79	179	986.5	NA	0.0000		9000	1670	0	0	0
2017/11/21 08:49:00	BASE	0.00	220	1.44	217	-2.3	90	-3.7	80	182	986.5	NA	0.0000	BR	9000	1640	0	0	0
2017/11/21 08:50:00	BASE	0.35	232	1.44	217	-2.3	90	-3.7	82	187	986.5	NA	0.0000	BR	9000	1640	0	0	0
2017/11/21 08:51:00	BASE	1.06	233	1.75	235	-2.3	90	-3.7	85	192	986.5	NA	0.0000	BR	9000	1640	0	0	0
2017/11/21 08:52:00	BASE	1.53	234	1.80	241	-2.3	91	-3.6	87	196	986.5	NA	0.0000	BR	8000	1510	0	0	0
2017/11/21 08:53:00	BASE	1.56	241	1.80	243	-2.3	91	-3.6	90	201	986.5	NA	0.0000	BR	8000	1640	0	0	0
2017/11/21 08:54:00	BASE	1.30	240	1.80	243	-2.3	91	-3.5	92	205	986.5	NA	0.0000	BR	8000	1640	0	0	0
2017/11/21 08:55:00	BASE	1.24	239	1.80	243	-2.3	92	-3.5	90	203	986.6	NA	0.0000	BR	9000	1610	0	0	0
2017/11/21 08:56:00	BASE	1.44	240	1.80	243	-2.3	92	-3.5	85	194	986.6	NA	0.0000	BR	9000	1670	0	0	0
2017/11/21 08:57:00	BASE	1.41	243	1.80	243	-2.3	92	-3.4	81	188	986.6	NA	0.0000	BR	8000	1670	0	0	0
2017/11/21 08:58:00	BASE	0.98	244	1.80	243	-2.3	92	-3.4	79	185	986.6	NA	0.0000	BR	8000	1710	0	0	0
2017/11/21 08:59:00	BASE	0.41	247	1.80	243	-2.3	92	-3.4	79	185	986.6	NA	0.0000	BR	9000	1740	0	0	0
2017/11/21 09:00:00	BASE	0.44	247	1.80	243	-2.3	92	-3.4	78	185	986.6	NA	0.0000	BR	9000	1670	0	0	0
2017/11/21 09:01:00	BASE	1.00	239	1.80	243	-2.3	93	-3.3	79	186	986.6	NA	0.0000	BR	9000	1740	0	0	0
2017/11/21 09:02:00	BASE	1.45	234	1.80	243	-2.3	93	-3.3	82	193	986.6	NA	0.0000	BR	9000	1770	0	0	0
2017/11/21 09:03:00	BASE	1.50	233	1.75	237	-2.3	93	-3.2	85	198	986.6	NA	0.0000	BR	9000	1710	0	0	0
2017/11/21 09:04:00	BASE	1.23	235	1.75	237	-2.3	94	-3.2	87	202	986.6	NA	0.0000	BR	8000	1710	0	0	0
2017/11/21 09:05:00	BASE	1.12	240	1.75	237	-2.3	94	-3.2	91	210	986.6	NA	0.0000	BR	8000	1710	0	0	0
2017/11/21 09:06:00	BASE	1.22	239	1.75	237	-2.3	94	-3.1	94	214	986.6	NA	0.0000	BR	9000	1640	0	0	0
2017/11/21 09:07:00	BASE	0.85	229	1.75	237	-2.3	94	-3.0	94	214	986.6	NA	0.0000	BR	9999	1770	0	0	0
2017/11/21 09:08:00	BASE	0.83	223	1.75	237	-2.3	95	-3.0	96	218	986.6	NA	0.0000	BR	9000	1770	0	0	0
2017/11/21 09:09:00	BASE	1.15	226	1.75	237	-2.3	95	-2.9	105	235	986.7	NA	0.0000	BR	9000	1770	0	0	0
2017/11/21 09:10:00	BASE	0.55	231	1.75	237	-2.3	96	-2.9	107	238	986.7	NA	0.0000	BR	9000	1740	0	0	0
2017/11/21 09:11:00	BASE	0.09	236	1.65	235	-2.3	96	-2.9	108	241	986.7	NA	0.0000	BR	9000	1770	0	0	0
2017/11/21 09:12:00	BASE	0.09	241	1.54	233	-2.3	96	-2.9	114	252	986.7	NA	0.0000	BR	9000	1740	0	0	0
2017/11/21 09:13:00	BASE	0.00	243	1.44	235	-2.3	96	-2.9	123	268	986.7	NA	0.0000	BR	8000	1710	0	0	0
2017/11/21 09:14:00	BASE	0.00	248	1.44	235	-2.3	96	-2.9	133	286	986.7	NA	0.0000	BR	9000	1710	0	0	0
2017/11/21 09:15:00	BASE	0.00	251	1.44	235	-2.3	96	-2.9	142	301	986.7	NA	0.0000	BR	8000	1800	0	0	0
2017/11/21 09:16:00	BASE	0.59	253	1.54	257	-2.3	96	-2.9	142	303	986.7	NA	0.0000	BR	9000	1770	0	0	0
2017/11/21 09:17:00	BASE	1.38	256	1.85	255	-2.3	96	-2.9	132	287	986.7	NA	0.0000	BR	9999	1770	0	0	0
2017/11/21 09:18:00	BASE	1.59	256	1.85	255	-2.3	96	-2.8	116	260	986.7	NA	0.0000	BR	9999	1740	0	0	0
2017/11/21 09:19:00	BASE	1.36	255	1.85	255	-2.3	96	-2.8	103	239	986.6	NA	0.0000	BR	9999	1710	0	0	0
2017/11/21 09:20:00	BASE	0.98	256	1.85	255	-2.3	96	-2.8	100	234	986.6	NA	0.0000	BR	9999	1740	0	0	0
2017/11/21 09:21:00	BASE	0.41	254	1.85	255	-2.3	96	-2.8	106	245	986.7	NA	0.0000	BR	9999	1710	0	0	0
2017/11/21 09:22:00	BASE	0.61	246	2.16	230	-2.3	96	-2.8	118	267	986.7	NA	0.0000		9999	1710	0	0	0
2017/11/21 09:23:00	BASE	1.66	238	2.31	236	-2.3	96	-2.9	126	281	986.7	NA	0.0000		9999	1710	0	0	0
2017/11/21 09:24:00	BASE	2.06	236	2.31	236	-2.3	96	-2.9	129	288	986.7	NA	0.0000		9999	1670	0	0	0
2017/11/21 09:25:00	BASE	1.95	238	2.31	236	-2.3	96	-2.9	130	291	986.7	NA	0.0000		9999	1740	0	0	0
2017/11/21 09:26:00	BASE	2.06	239	2.52	236	-2.3	96	-2.9	126	283	986.7	NA	0.0000		9999	1740	0	0	0
2017/11/21 09:27:00	BASE	2.11	238	2.52	236	-2.3	96	-2.8	125	283	986.7	NA	0.0000		9999	1710	0	0	0
2017/11/21 09:28:00	BASE	1.90	240	2.52	236	-2.3	96	-2.8	115	265	986.7	NA	0.0000		9999	1710	0	0	0
2017/11/21 09:29:00	BASE	1.62	246	2.52	236	-2.3	97	-2.7	110	259	986.7	NA	0.0000		9999	1710	0	0	0
2017/11/21 09:30:00	BASE	1.61	251	2.52	236	-2.3	97	-2.7	105	250	986.7	NA	0.0000		9999	1740	0	0	0
2017/11/21 09:31:00	BASE	1.52	248	2.52	236	-2.3	97	-2.6	112	263	986.7	NA	0.0000		9999	1770	0	0	0
2017/11/21 09:32:00	BASE	1.40	242	2.52	236	-2.3	98	-2.6	121	279	986.7	NA	0.0000		9999	1770	0	0	0
2017/11/21 09:33:00	BASE	1.29	239	2.52	236	-2.3	98	-2.6	127	291	986.7	NA	0.0000		9999	1740	0	0	0
2017/11/21 09:34:00	BASE	1.26	244	2.52	236	-2.4	98	-2.6	128	292	986.7	NA	0.0000		9999	1770	0	0	0
2017/11/21 09:35:00	BASE	1.64	245	2.52	236	-2.4	99	-2.6	124	286	986.7	NA	0.0000		9999	1740	0	0	0
2017/11/21 09:36:00	BASE	1.76	243	2.11	238	-2.4	99	-2.6	119	278	986.7	NA	0.0000		9999	1770	0	0	0
2017/11/21 09:37:00	BASE	1.63	246	2.11	238	-2.4	99	-2.5	117	274	986.7	NA	0.0000		9999	1740	0	0	0
2017/11/21 09:38:00	BASE	1.92	240	2.78	228	-2.4	99	-2.5	115	271	986.7	NA	0.0000		9999	1740	0	0	0
2017/11/21 09:39:00	BASE	2.37	230	2.78	228	-2.4	99	-2.5	111	265	986.7	NA	0.0000		9999	590	1740	0	0
2017/11/21 09:40:00	BASE	2.32	231	2.78	228	-2.4	99	-2.5	112	266	986.7	NA	0.0000		9999	660	1670	0	0
2017/11/21 09:41:00	BASE	2.13	231	2.78	228	-2.4	99	-2.5	118	277	986.8	NA	0.0000		9999	1670	0	0	0
2017/11/21 09:42:00	BASE	1.88	229	2.78	228	-2.4	99	-2.5	127	295	986.7	NA	0.0000		9999	1640	0	0	0
2017/11/21 09:43:00	BASE	1.72	229	2.78	228	-2.5	100	-2.5	133	306	986.7	NA	0.0000		9999	1640	0	0	0
2017/11/21 09:44:00	BASE	1.65	227	2.78	228	-2.5	100	-2.5	132	304	986.7	NA	0.0000		9999	1670	0	0	0
2017/11/21 09:45:00	BASE	1.70	223	2.78	228	-2.5	100	-2.5	127	297	986.7	NA	0.0000		9999	1710	0	0	0
2017/11/21 09:46:00	BASE	1.79	219	2.78	228	-2.5	100	-2.5	126	296	986.7	NA	0.0000		9999	1670	0	0	0
2017/11/21 09:47:00	BASE	1.79	215	2.78	228	-2.5	100	-2.5	121	289	986.7	NA	0.0000		9999	1710	0	0	0
2017/11/21 09:48:00	BASE	1.91	209	2.78	228	-2.5	100	-2.5	115	280	986.7	NA	0.0000		9999	1710	0	0	0
2017/11/21 09:49:00	BASE	2.05	208	2.57	229	-2.6	100	-2.6	107	265	986.7	NA	0.0000		9999	1740	0	0	0
2017/11/21 09:50:00	BASE	1.99	211	2.21	209	-2.6	100	-2.6	107	265	986.7	NA	0.0000		9999	1770	0	0	0
2017/11/21 09:51:00	BASE	1.69	212	2.21	209	-2.6	100	-2.6	113	277	986.7	NA	0.0000		9999	0	0	0	0
2017/11/21 09:52:00	BASE	1.62	213	2.21	209	-2.7	100	-2.7	115	281	986.7	NA	0.0000		9999	0	0	0	0
2017/11/21 09:53:00	BASE	1.86	214	2.31	215	-2.7	100	-2.7	115	281	986.7	NA	0.0000		9999	0	0	0	0
2017/11/21 09:54:00	BASE	2.06	219	2.42	223	-2.7	100	-2.7	121	291	986.7	NA	0.0000		9999	1740	0	0	0
2017/11/21 09:55:00	BASE	2.44	222	2.88	224	-2.7	100	-2.7	125	298	986.7	NA	0.0000		9999	1740	0	0	0
2017/11/21 09:56:00	BASE	2.59	222	2.88	218	-2.7	100	-2.7	132	311	986.7	NA	0.0000		9999	0	0	0	0
2017/11/21 09:57:00	BASE	2.44	223	2.88	218	-2.7	100	-2.8	159	364	986.8	NA	0.0000		9999	0	0	0	0
2017/11/21 09:58:00	BASE	2.47	224	2.88	212	-2.7	100	-2.7	206	453	986.8	NA	0.0000		9999	1670	0	0	0
2017/11/21 09:59:00	BASE	2.59	221	3.14	220	-2.7	100	-2.7	194	429	986.8	NA	0.0000		9999	1640	0	0	0
2017/11/21 10:00:00	BASE	2.53	217	3.14	220	-2.7	100	-2.7	224	485	986.8	NA	0.0000		9999	1670	0	0	0
2017/11/21 10:01:00	BASE	2.14	215	3.14	220	-2.7	100	-2.7	261	550	986.8	NA	0.0000		9999	1670	0	0	0
2017/11/21 10:02:00	BASE	2.03	216	3.14	220	-2.7	100	-2.7	247	523	986.9	NA	0.0000		9999	1610	0	0	0
2017/11/21 10:03:00	BASE	2.25	223	3.14	220	-2.7	100	-2.7	221	475	986.9	NA	0.0000		9999	1640	0	0	0
2017/11/21 10:04:00	BASE	2.25	229	3.14	220	-2.7	100	-2.7	201	437	986.9	NA	0.0000		9999	1610	0	0	0
2017/11/21 10:05:00	BASE	2.37	228	3.14	220	-2.7	100	-2.7	195	427	986.9	NA	0.0000		9999	1610	0	0	0
2017/11/21 10:06:00	BASE	2.45	226	3.14	220	-2.6	100	-2.6	377	751	987.0	NA	0.0000		9999	1670	0	0	0
2017/11/21 10:07:00	BASE	2.55	226	3.14	220	-2.6	100	-2.6	487	930	987.0	NA	0.0000		9999	1670	0	0	0
2017/11/21 10:08:00	BASE	2.76	222	3.14	220	-2.5	100	-2.5	396	788	987.0	NA	0.0000		9999	1670	0	0	0
2017/11/21 10:09:00	BASE	2.84	217	3.24	213	-2.5	100	-2.5	235	511	987.0	NA	0.0000		9999	1670	0	0	0
2017/11/21 10:10:00	BASE	3.04	215	3.45	213	-2.5	100	-2.5	206	454	987.1	NA	0.0000		9999	1670	0	0	0
2017/11/21 10:11:00	BASE	3.16	212	3.45	211	-2.5	100	-2.5	194	432	987.1	NA	0.0000		9999	1610	0	0	0
2017/11/21 10:12:00	BASE	3.02	213	3.45	214	-2.6	100	-2.6	186	418	987.1	NA	0.0000		9999	1640	0	0	0
2017/11/21 10:13:00	BASE	3.07	215	3.45	213	-2.6	100	-2.6	184	415	987.1	NA	0.0000		9999	1640	0	0	0
2017/11/21 10:14:00	BASE	3.04	215	3.45	213	-2.6	100	-2.6	193	433	987.1	NA	0.0000		9999	1640	0	0	0
2017/11/21 10:15:00	BASE	2.93	212	3.45	213	-2.7	100	-2.7	205	454	987.1	NA	0.0000		9999	1640	0	0	0
2017/11/21 10:16:00	BASE	2.95	210	3.45	213	-2.7	100	-2.7	217	479	987.1	NA	0.0000		9999	1640	0	0	0
2017/11/21 10:17:00	BASE	2.84	210	3.45	213	-2.7	100	-2.7	227	496	987.1	NA	0.0000		9999	1640	0	0	0
2017/11/21 10:18:00	BASE	2.78	208	3.45	213	-2.7	100	-2.7	242	526	987.1	NA	0.0000		9999	1640	0	0	0
2017/11/21 10:19:00	BASE	2.75	206	3.45	213	-2.7	100	-2.7	229	500	987.1	NA	0.0000		9999	1610	0	0	0
2017/11/21 10:20:00	BASE	2.75	210	3.45	213	-2.7	100	-2.7	227	497	987.1	NA	0.0000		9999	1640	0	0	0
2017/11/21 10:21:00	BASE	2.72	217	3.45	213	-2.6	100	-2.6	232	505	987.1	NA	0.0000		9999	1610	0	0	0
2017/11/21 10:22:00	BASE	2.60	220	3.45	213	-2.6	100	-2.6	228	499	987.1	NA	0.0000		9999	1610	0	0	0
2017/11/21 10:23:00	BASE	2.61	218	3.40	209	-2.6	100	-2.6	224	493	987.1	NA	0.0000		9999	660	1610	0	0
2017/11/21 10:24:00	BASE	2.60	223	3.19	211	-2.6	100	-2.6	233	514	987.1	NA	0.0000		9999	1640	0	0	0
2017/11/21 10:25:00	BASE	2.39	228	3.14	213	-2.6	100	-2.6	244	535	987.1	NA	0.0000		9999	1640	0	0	0
2017/11/21 10:26:00	BASE	2.12	225	3.04	216	-2.6	100	-2.6	266	573	987.1	NA	0.0000		9999	1670	0	0	0
2017/11/21 10:27:00	BASE	2.01	221	3.04	216	-2.6	100	-2.6	286	615	987.1	NA	0.0000		9999	1710	0	0	0
2017/11/21 10:28:00	BASE	2.05	214	3.04	216	-2.6	100	-2.6	301	642	987.1	NA	0.0000		9999	1710	0	0	0
2017/11/21 10:29:00	BASE	2.22	210	3.04	216	-2.5	100	-2.5	272	585	987.1	NA	0.0000		9999	1710	0	0	0
2017/11/21 10:30:00	BASE	2.23	214	2.98	223	-2.5	100	-2.5	256	554	987.1	NA	0.0000		9999	1670	0	0	0
2017/11/21 10:31:00	BASE	2.10	213	2.98	223	-2.5	100	-2.5	250	544	987.1	NA	0.0000		9999	1710	0	0	0
2017/11/21 10:32:00	BASE	2.24	212	2.98	223	-2.5	100	-2.5	250	550	987.0	NA	0.0000		9999	1770	0	0	0
2017/11/21 10:33:00	BASE	2.16	212	2.93	228	-2.6	100	-2.6	306	654	987.0	NA	0.0000		9999	1710	0	0	0
2017/11/21 10:34:00	BASE	1.88	209	2.57	212	-2.6	100	-2.6	387	798	987.0	NA	0.0000		9999	1610	0	0	0
2017/11/21 10:35:00	BASE	1.77	203	2.57	212	-2.6	100	-2.6	266	578	987.0	NA	0.0000		9999	1610	0	0	0
2017/11/21 10:36:00	BASE	1.84	202	2.57	212	-2.6	100	-2.6	244	543	987.0	NA	0.0000		9999	1670	0	0	0
2017/11/21 10:37:00	BASE	1.88	203	2.57	212	-2.7	100	-2.7	248	551	987.0	NA	0.0000		9999	0	0	0	0
2017/11/21 10:38:00	BASE	1.71	204	2.57	212	-2.7	100	-2.7	240	537	987.0	NA	0.0000		9999	0	0	0	0
2017/11/21 10:39:00	BASE	1.70	206	2.57	212	-2.7	100	-2.7	313	674	987.0	NA	0.0000		9999	0	0	0	0
2017/11/21 10:40:00	BASE	1.87	212	2.57	212	-2.7	100	-2.7	451	917	987.0	NA	0.0000		9999	1710	0	0	0
2017/11/21 10:41:00	BASE	2.03	219	2.57	212	-2.7	100	-2.7	289	636	987.0	NA	0.0000		9999	0	0	0	0
2017/11/21 10:42:00	BASE	2.08	221	2.26	217	-2.6	100	-2.6	542	1061	987.0	NA	0.0000		9999	1670	0	0	0
2017/11/21 10:43:00	BASE	2.28	223	2.62	220	-2.6	100	-2.6	544	1062	987.0	NA	0.0000		9999	1640	0	0	0
2017/11/21 10:44:00	BASE	2.42	224	2.62	220	-2.6	100	-2.6	464	929	987.0	NA	0.0000		9999	1640	0	0	0
2017/11/21 10:45:00	BASE	2.30	222	2.62	220	-2.5	100	-2.5	458	926	987.0	NA	0.0000		9999	1610	0	0	0
2017/11/21 10:46:00	BASE	2.27	221	2.62	218	-2.5	100	-2.5	501	997	987.0	NA	0.0000		9999	1640	0	0	0
2017/11/21 10:47:00	BASE	2.47	218	2.83	210	-2.5	100	-2.5	483	967	987.0	NA	0.0000		9999	1670	0	0	0
2017/11/21 10:48:00	BASE	2.65	213	2.93	213	-2.5	100	-2.5	328	711	987.0	NA	0.0000		9999	1640	0	0	0
2017/11/21 10:49:00	BASE	2.76	212	3.04	211	-2.5	100	-2.5	178	430	987.0	NA	0.0000		9999	1570	0	0	0
2017/11/21 10:50:00	BASE	2.81	213	3.04	211	-2.5	100	-2.5	220	509	987.0	NA	0.0000		9999	1540	0	0	0
2017/11/21 10:51:00	BASE	2.47	220	3.04	211	-2.5	100	-2.5	273	612	987.0	NA	0.0000		9999	1510	0	0	0
2017/11/21 10:52:00	BASE	2.15	227	3.04	211	-2.5	100	-2.5	450	928	987.0	NA	0.0000		9999	1570	0	0	0
2017/11/21 10:53:00	BASE	2.10	227	3.04	211	-2.5	100	-2.5	528	1061	987.0	NA	0.0000		9999	1610	0	0	0
2017/11/21 10:54:00	BASE	1.92	225	3.04	211	-2.5	100	-2.5	496	1004	987.0	NA	0.0000		9999	1610	0	0	0
2017/11/21 10:55:00	BASE	1.73	220	3.04	211	-2.4	100	-2.4	405	851	987.1	NA	0.0000		9999	1610	0	0	0
2017/11/21 10:56:00	BASE	1.88	209	3.04	211	-2.4	100	-2.4	317	691	987.1	NA	0.0000		9999	1610	22470	0	0
2017/11/21 10:57:00	BASE	2.28	204	3.04	211	-2.4	100	-2.4	233	532	987.1	NA	0.0000		9999	1570	0	0	0
2017/11/21 10:58:00	BASE	2.61	205	3.04	211	-2.4	100	-2.4	239	548	987.0	NA	0.0000		9999	1540	0	0	0
2017/11/21 10:59:00	BASE	2.47	207	2.93	210	-2.4	100	-2.5	401	847	987.1	NA	0.0000		9999	1610	0	0	0
2017/11/21 11:00:00	BASE	1.99	208	2.78	206	-2.4	100	-2.5	462	951	987.1	NA	0.0000		9999	0	0	0	0
2017/11/21 11:01:00	BASE	1.78	209	2.78	206	-2.4	99	-2.5	526	1063	987.1	NA	0.0000		9999	0	0	0	0
2017/11/21 11:02:00	BASE	1.86	211	2.78	206	-2.5	99	-2.6	323	704	987.1	NA	0.0000		9999	0	0	0	0
2017/11/21 11:03:00	BASE	1.91	214	2.78	206	-2.4	99	-2.6	385	819	987.1	NA	0.0000		9999	1570	0	0	0
2017/11/21 11:04:00	BASE	2.15	211	2.78	206	-2.4	99	-2.6	366	785	987.1	NA	0.0000		9999	1610	0	0	0
2017/11/21 11:05:00	BASE	2.27	213	2.78	206	-2.4	99	-2.6	303	673	987.1	NA	0.0000		9999	1570	0	0	0
2017/11/21 11:06:00	BASE	2.38	218	2.83	223	-2.5	99	-2.6	247	574	987.1	NA	0.0000		9999	1570	0	0	0
2017/11/21 11:07:00	BASE	2.51	221	2.83	223	-2.5	99	-2.5	230	546	987.1	NA	0.0000		9999	1570	0	0	0
2017/11/21 11:08:00	BASE	2.38	222	2.83	223	-2.5	100	-2.5	523	1053	987.1	NA	0.0000		9999	1570	0	0	0
2017/11/21 11:09:00	BASE	2.33	220	2.83	223	-2.5	100	-2.5	536	1069	987.1	NA	0.0000		9999	0	0	0	0
2017/11/21 11:10:00	BASE	2.13	216	2.83	223	-2.5	100	-2.5	425	883	987.1	NA	0.0000		9999	0	0	0	0
2017/11/21 11:11:00	BASE	1.81	213	2.83	223	-2.5	100	-2.5	414	870	987.1	NA	0.0000		9999	0	0	0	0
2017/11/21 11:12:00	BASE	1.90	209	2.83	223	-2.5	100	-2.5	405	856	987.1	NA	0.0000		9999	0	0	0	0
2017/11/21 11:13:00	BASE	2.08	207	2.83	223	-2.6	100	-2.6	296	671	987.1	NA	0.0000		9999	0	0	0	0
2017/11/21 11:14:00	BASE	2.02	209	2.83	223	-2.6	100	-2.6	373	806	987.1	NA	0.0000		9999	0	0	0	0
2017/11/21 11:15:00	BASE	1.92	211	2.83	223	-2.6	100	-2.6	526	1060	987.1	NA	0.0000		9999	0	0	0	0
2017/11/21 11:16:00	BASE	1.83	211	2.68	226	-2.6	100	-2.6	522	1055	987.1	NA	0.0000		9999	0	0	0	0
2017/11/21 11:17:00	BASE	1.66	215	2.62	220	-2.6	100	-2.6	519	1049	987.1	NA	0.0000		9999	0	0	0	0
2017/11/21 11:18:00	BASE	1.49	224	2.62	220	-2.6	100	-2.6	518	1049	987.1	NA	0.0000		9999	0	0	0	0
2017/11/21 11:19:00	BASE	1.40	223	2.26	205	-2.6	100	-2.6	514	1045	987.1	NA	0.0000		9999	0	0	0	0
2017/11/21 11:20:00	BASE	1.47	225	2.26	205	-2.5	100	-2.5	518	1053	987.1	NA	0.0000		9999	0	0	0	0
2017/11/21 11:21:00	BASE	1.65	234	2.26	205	-2.5	100	-2.5	377	815	987.1	NA	0.0000		9999	0	0	0	0
2017/11/21 11:22:00	BASE	1.73	240	2.21	244	-2.4	100	-2.4	511	1040	987.1	NA	0.0000		9999	0	0	0	0
2017/11/21 11:23:00	BASE	1.77	241	2.26	230	-2.4	100	-2.5	515	1049	987.1	NA	0.0000		9999	0	0	0	0
2017/11/21 11:24:00	BASE	1.89	235	2.31	235	-2.4	100	-2.5	517	1053	987.1	NA	0.0000		9999	0	0	0	0
2017/11/21 11:25:00	BASE	1.87	231	2.31	235	-2.4	99	-2.5	519	1059	987.1	NA	0.0000		9999	0	0	0	0
2017/11/21 11:26:00	BASE	1.83	228	2.31	235	-2.4	99	-2.5	521	1062	987.1	NA	0.0000		9999	0	0	0	0
2017/11/21 11:27:00	BASE	1.82	218	2.31	235	-2.4	99	-2.6	523	1067	987.1	NA	0.0000		9999	0	0	0	0
2017/11/21 11:28:00	BASE	1.53	214	2.31	235	-2.4	99	-2.6	524	1070	987.1	NA	0.0000		9999	0	0	0	0
2017/11/21 11:29:00	BASE	1.58	220	2.31	235	-2.4	99	-2.6	525	1071	987.1	NA	0.0000		9999	0	0	0	0
2017/11/21 11:30:00	BASE	2.00	222	2.47	222	-2.4	98	-2.6	527	1075	987.1	NA	0.0000		9999	0	0	0	0
2017/11/21 11:31:00	BASE	2.09	224	2.47	222	-2.4	98	-2.6	529	1079	987.1	NA	0.0000		9999	0	0	0	0
2017/11/21 11:32:00	BASE	2.05	225	2.52	217	-2.4	98	-2.6	530	1082	987.1	NA	0.0000		9999	0	0	0	0
2017/11/21 11:33:00	BASE	2.17	223	2.52	229	-2.3	98	-2.6	529	1080	987.1	NA	0.0000		9999	0	0	0	0
2017/11/21 11:34:00	BASE	2.30	224	2.62	220	-2.3	98	-2.6	528	1082	987.1	NA	0.0000		9999	0	0	0	0
2017/11/21 11:35:00	BASE	2.34	223	2.62	220	-2.3	98	-2.6	530	1086	987.1	NA	0.0000		9999	0	0	0	0
2017/11/21 11:36:00	BASE	2.37	219	2.62	220	-2.3	98	-2.6	533	1092	987.1	NA	0.0000		9999	0	0	0	0
2017/11/21 11:37:00	BASE	2.44	223	2.73	228	-2.3	98	-2.6	539	1102	987.1	NA	0.0000		9999	0	0	0	0
2017/11/21 11:38:00	BASE	2.66	224	3.24	223	-2.3	98	-2.6	554	1128	987.1	NA	0.0000		9999	0	0	0	0
2017/11/21 11:39:00	BASE	2.79	226	3.24	223	-2.3	98	-2.6	563	1144	987.1	NA	0.0000		9999	0	0	0	0
2017/11/21 11:40:00	BASE	2.69	228	3.24	223	-2.3	98	-2.6	561	1142	987.1	NA	0.0000		9999	0	0	0	0
2017/11/21 11:41:00	BASE	2.48	223	3.24	223	-2.3	98	-2.6	557	1137	987.2	NA	0.0000		9999	0	0	0	0
2017/11/21 11:42:00	BASE	2.34	222	3.24	223	-2.3	98	-2.5	554	1132	987.2	NA	0.0000		9999	0	0	0	0
2017/11/21 11:43:00	BASE	2.43	223	3.24	223	-2.3	98	-2.6	554	1132	987.2	NA	0.0000		9999	0	0	0	0
2017/11/21 11:44:00	BASE	2.48	220	3.24	223	-2.3	98	-2.6	558	1139	987.2	NA	0.0000		9999	0	0	0	0
2017/11/21 11:45:00	BASE	2.39	215	3.24	223	-2.3	98	-2.6	566	1152	987.2	NA	0.0000		9999	0	0	0	0
2017/11/21 11:46:00	BASE	2.34	217	3.24	223	-2.4	98	-2.6	567	1155	987.2	NA	0.0000		9999	0	0	0	0
2017/11/21 11:47:00	BASE	2.40	221	3.24	223	-2.4	98	-2.7	563	1151	987.2	NA	0.0000		9999	0	0	0	0
2017/11/21 11:48:00	BASE	2.41	218	2.98	230	-2.4	98	-2.7	564	1153	987.2	NA	0.0000		9999	0	0	0	0
2017/11/21 11:49:00	BASE	2.38	217	2.98	230	-2.4	98	-2.7	550	1130	987.2	NA	0.0000		9999	0	0	0	0
2017/11/21 11:50:00	BASE	2.40	219	2.83	218	-2.4	98	-2.7	568	1167	987.2	NA	0.0000		9999	0	0	0	0
2017/11/21 11:51:00	BASE	2.26	219	2.83	218	-2.5	98	-2.7	564	1156	987.2	NA	0.0000		9999	0	0	0	0
2017/11/21 11:52:00	BASE	2.14	222	2.73	219	-2.5	98	-2.7	563	1156	987.2	NA	0.0000		9999	0	0	0	0
2017/11/21 11:53:00	BASE	2.28	222	2.73	219	-2.5	98	-2.7	564	1158	987.2	NA	0.0000		9999	0	0	0	0
2017/11/21 11:54:00	BASE	2.20	222	2.73	219	-2.5	98	-2.8	565	1160	987.2	NA	0.0000		9999	0	0	0	0
2017/11/21 11:55:00	BASE	2.22	224	2.78	221	-2.5	98	-2.7	567	1164	987.2	NA	0.0000		9999	0	0	0	0
2017/11/21 11:56:00	BASE	2.49	223	3.04	228	-2.4	98	-2.7	569	1169	987.2	NA	0.0000		9999	0	0	0	0
2017/11/21 11:57:00	BASE	2.70	223	3.29	215	-2.4	98	-2.7	572	1175	987.2	NA	0.0000		9999	0	0	0	0
2017/11/21 11:58:00	BASE	2.89	217	3.29	215	-2.4	98	-2.6	579	1188	987.2	NA	0.0000		9999	0	0	0	0
2017/11/21 11:59:00	BASE	2.97	211	3.29	215	-2.4	98	-2.6	588	1204	987.3	NA	0.0000		9999	0	0	0	0
2017/11/21 12:00:00	BASE	3.01	209	3.29	215	-2.4	98	-2.7	593	1213	987.3	NA	0.0000		9999	0	0	0	0
2017/11/21 12:01:00	BASE	2.94	207	3.29	215	-2.4	98	-2.7	594	1217	987.3	NA	0.0000		9999	0	0	0	0
2017/11/21 12:02:00	BASE	3.03	204	3.34	206	-2.4	98	-2.7	593	1215	987.3	NA	0.0000		9999	0	0	0	0
2017/11/21 12:03:00	BASE	3.20	203	3.40	199	-2.4	98	-2.7	592	1216	987.3	NA	0.0000		9999	0	0	0	0
2017/11/21 12:04:00	BASE	3.09	204	3.40	199	-2.4	98	-2.7	591	1215	987.3	NA	0.0000		9999	0	0	0	0
2017/11/21 12:05:00	BASE	3.06	210	3.40	211	-2.4	98	-2.7	590	1214	987.3	NA	0.0000		9999	0	0	0	0
2017/11/21 12:06:00	BASE	2.92	216	3.40	211	-2.5	98	-2.7	589	1213	987.3	NA	0.0000		9999	0	0	0	0
2017/11/21 12:07:00	BASE	2.69	212	3.40	211	-2.5	98	-2.7	588	1213	987.3	NA	0.0000		9999	0	0	0	0
2017/11/21 12:08:00	BASE	2.69	201	3.40	211	-2.4	98	-2.7	588	1213	987.3	NA	0.0000		9999	0	0	0	0
2017/11/21 12:09:00	BASE	2.68	195	3.40	211	-2.5	98	-2.8	589	1215	987.4	NA	0.0000		9999	0	0	0	0
2017/11/21 12:10:00	BASE	2.78	194	3.40	211	-2.5	98	-2.8	590	1218	987.4	NA	0.0000		9999	0	0	0	0
2017/11/21 12:11:00	BASE	2.95	199	3.40	211	-2.5	97	-2.8	592	1223	987.4	NA	0.0000		9999	0	0	0	0
2017/11/21 12:12:00	BASE	2.87	204	3.40	211	-2.5	97	-2.9	594	1227	987.4	NA	0.0000		9999	0	0	0	0
2017/11/21 12:13:00	BASE	2.76	208	3.40	211	-2.5	97	-2.9	595	1230	987.3	NA	0.0000		9999	0	0	0	0
2017/11/21 12:14:00	BASE	2.72	207	3.40	211	-2.5	97	-2.9	596	1233	987.4	NA	0.0000		9999	0	0	0	0
2017/11/21 12:15:00	BASE	2.70	207	3.24	200	-2.5	97	-2.9	598	1237	987.4	NA	0.0000		9999	0	0	0	0
2017/11/21 12:16:00	BASE	2.81	210	3.24	200	-2.5	97	-2.9	600	1242	987.4	NA	0.0000		9999	0	0	0	0
2017/11/21 12:17:00	BASE	2.69	210	3.24	200	-2.5	98	-2.8	602	1245	987.4	NA	0.0000		9999	0	0	0	0
2017/11/21 12:18:00	BASE	2.48	209	3.24	200	-2.5	98	-2.8	603	1249	987.4	NA	0.0000		9999	0	0	0	0
2017/11/21 12:19:00	BASE	2.21	207	3.24	200	-2.5	98	-2.8	604	1250	987.4	NA	0.0000		9999	0	0	0	0
2017/11/21 12:20:00	BASE	1.94	208	3.24	200	-2.4	98	-2.8	604	1252	987.3	NA	0.0000		9999	0	0	0	0
2017/11/21 12:21:00	BASE	1.84	211	3.14	213	-2.4	97	-2.8	605	1254	987.3	NA	0.0000		9999	0	0	0	0
2017/11/21 12:22:00	BASE	1.76	215	3.14	213	-2.4	97	-2.8	607	1258	987.3	NA	0.0000		9999	0	0	0	0
2017/11/21 12:23:00	BASE	1.66	218	2.98	209	-2.5	97	-2.8	608	1260	987.3	NA	0.0000		9999	0	0	0	0
2017/11/21 12:24:00	BASE	1.56	216	2.98	209	-2.5	97	-2.9	613	1269	987.3	NA	0.0000		9999	0	0	0	0
2017/11/21 12:25:00	BASE	1.44	211	2.98	209	-2.5	97	-2.9	615	1273	987.3	NA	0.0000		9999	0	0	0	0
2017/11/21 12:26:00	BASE	1.32	207	2.83	210	-2.5	97	-2.9	617	1279	987.4	NA	0.0000		9999	0	0	0	0
2017/11/21 12:27:00	BASE	1.01	208	2.78	208	-2.4	97	-2.8	618	1281	987.4	NA	0.0000		9999	0	0	0	0
2017/11/21 12:28:00	BASE	0.94	206	2.11	210	-2.4	97	-2.8	621	1286	987.4	NA	0.0000		9999	0	0	0	0
2017/11/21 12:29:00	BASE	1.20	199	2.11	210	-2.4	97	-2.8	623	1290	987.4	NA	0.0000		9999	0	0	0	0
2017/11/21 12:30:00	BASE	1.04	200	1.95	223	-2.4	97	-2.8	623	1291	987.4	NA	0.0000		9999	0	0	0	0
2017/11/21 12:31:00	BASE	1.08	202	1.95	223	-2.4	96	-2.9	627	1297	987.4	NA	0.0000		9999	0	0	0	0
2017/11/21 12:32:00	BASE	1.34	193	1.85	203	-2.4	96	-2.9	651	1341	987.4	NA	0.0000		9999	0	0	0	0
2017/11/21 12:33:00	BASE	1.53	187	1.95	188	-2.4	96	-3.0	496	1074	987.5	NA	0.0000		9999	0	0	0	0
2017/11/21 12:34:00	BASE	1.80	189	2.06	191	-2.4	96	-2.9	573	1204	987.5	NA	0.0000		9999	0	0	0	0
2017/11/21 12:35:00	BASE	1.99	194	2.16	194	-2.4	96	-2.9	480	1044	987.5	NA	0.0000		9999	0	0	0	0
2017/11/21 12:36:00	BASE	2.01	196	2.16	198	-2.4	96	-2.9	370	850	987.5	NA	0.0000		9999	0	0	0	0
2017/11/21 12:37:00	BASE	1.91	198	2.16	198	-2.4	96	-3.0	464	1019	987.6	NA	0.0000		9999	0	0	0	0
2017/11/21 12:38:00	BASE	2.02	199	2.57	200	-2.4	96	-3.0	482	1051	987.5	NA	0.0000		9999	0	0	0	0
2017/11/21 12:39:00	BASE	2.30	197	2.62	195	-2.5	96	-3.0	668	1377	987.4	NA	0.0000		9999	0	0	0	0
2017/11/21 12:40:00	BASE	2.52	199	2.78	208	-2.4	96	-3.0	712	1462	987.5	NA	0.0000		9999	0	0	0	0
2017/11/21 12:41:00	BASE	2.55	201	2.98	204	-2.4	96	-3.0	391	891	987.5	NA	0.0000		9999	0	0	0	0
2017/11/21 12:42:00	BASE	2.23	197	2.98	204	-2.4	96	-3.0	318	757	987.6	NA	0.0000		9999	0	0	0	0
2017/11/21 12:43:00	BASE	2.00	192	2.98	204	-2.4	95	-3.0	586	1260	987.6	NA	0.0000		9999	0	0	0	0
2017/11/21 12:44:00	BASE	2.06	190	2.98	204	-2.3	95	-3.0	671	1400	987.6	NA	0.0000		9999	0	0	0	0
2017/11/21 12:45:00	BASE	2.06	198	2.98	204	-2.3	95	-3.0	734	1503	987.5	NA	0.0000		9999	0	0	0	0
2017/11/21 12:46:00	BASE	1.98	204	2.98	204	-2.3	95	-3.0	763	1515	987.4	NA	0.0000		9999	0	0	0	0
2017/11/21 12:47:00	BASE	1.71	201	2.98	204	-2.3	95	-3.1	682	1406	987.4	NA	0.0000		9999	0	0	0	0
2017/11/21 12:48:00	BASE	1.59	194	2.98	204	-2.3	95	-3.1	732	1490	987.4	NA	0.0000		9999	0	0	0	0
2017/11/21 12:49:00	BASE	1.68	186	2.98	204	-2.3	95	-3.1	727	1480	987.4	NA	0.0000		9999	0	0	0	0
2017/11/21 12:50:00	BASE	1.57	185	2.98	204	-2.4	95	-3.1	738	1499	987.4	NA	0.0000		9999	0	0	0	0
2017/11/21 12:51:00	BASE	1.38	192	2.42	187	-2.4	94	-3.2	742	1512	987.4	NA	0.0000		9999	0	0	0	0
2017/11/21 12:52:00	BASE	1.34	189	2.42	187	-2.4	95	-3.1	671	1393	987.4	NA	0.0000		9999	0	0	0	0
2017/11/21 12:53:00	BASE	1.29	182	2.31	189	-2.4	94	-3.1	723	1482	987.4	NA	0.0000		9999	0	0	0	0
2017/11/21 12:54:00	BASE	0.99	188	2.26	204	-2.4	94	-3.2	677	1394	987.4	NA	0.0000		9999	0	0	0	0
2017/11/21 12:55:00	BASE	1.19	201	2.21	209	-2.3	94	-3.2	576	1219	987.4	NA	0.0000		9999	0	0	0	0
2017/11/21 12:56:00	BASE	1.53	204	1.90	179	-2.3	94	-3.1	683	1410	987.4	NA	0.0000		9999	0	0	0	0
2017/11/21 12:57:00	BASE	1.52	203	1.90	179	-2.3	94	-3.2	652	1355	987.4	NA	0.0000		9999	0	0	0	0
2017/11/21 12:58:00	BASE	1.67	198	2.06	187	-2.3	94	-3.1	521	1131	987.5	NA	0.0000		9999	0	0	0	0
2017/11/21 12:59:00	BASE	1.72	190	2.06	187	-2.3	94	-3.1	508	1107	987.6	NA	0.0000		9999	0	0	0	0
2017/11/21 13:00:00	BASE	1.62	187	2.06	187	-2.3	94	-3.2	764	1515	987.6	NA	0.0000		9999	0	0	0	0
2017/11/21 13:01:00	BASE	1.44	196	2.06	187	-2.4	94	-3.2	556	1193	987.5	NA	0.0000		9999	0	0	0	0
2017/11/21 13:02:00	BASE	1.29	207	2.06	187	-2.3	94	-3.2	484	1066	987.6	NA	0.0000		9999	0	0	0	0
2017/11/21 13:03:00	BASE	1.04	209	2.06	187	-2.3	94	-3.2	673	1410	987.6	NA	0.0000		9999	0	0	0	0
2017/11/21 13:04:00	BASE	1.03	208	2.06	187	-2.3	94	-3.2	547	1176	987.6	NA	0.0000		9999	0	0	0	0
2017/11/21 13:05:00	BASE	1.15	205	2.06	187	-2.3	94	-3.1	472	1041	987.6	NA	0.0000		9999	0	0	0	0
2017/11/21 13:06:00	BASE	0.92	201	2.06	187	-2.3	94	-3.1	670	1409	987.6	NA	0.0000		9999	0	0	0	0
2017/11/21 13:07:00	BASE	0.74	194	2.06	187	-2.3	94	-3.1	668	1399	987.6	NA	0.0000		9999	0	0	0	0
2017/11/21 13:08:00	BASE	0.34	194	1.90	186	-2.3	94	-3.1	703	1453	987.6	NA	0.0000		9999	0	0	0	0
2017/11/21 13:09:00	BASE	0.00	195	1.75	180	-2.3	94	-3.1	656	1369	987.6	NA	0.0000		9999	0	0	0	0
2017/11/21 13:10:00	BASE	0.00	190	1.54	206	-2.2	94	-3.1	667	1396	987.6	NA	0.0000		9999	0	0	0	0
2017/11/21 13:11:00	BASE	0.00	166	1.44	197	-2.2	93	-3.2	635	1336	987.7	NA	0.0000		9999	0	0	0	0
2017/11/21 13:12:00	BASE	0.00	129	1.44	197	-2.2	93	-3.2	692	1435	987.6	NA	0.0000		9999	0	0	0	0
2017/11/21 13:13:00	BASE	0.00	125	1.44	197	-2.2	93	-3.2	722	1484	987.6	NA	0.0000		9999	0	0	0	0
2017/11/21 13:14:00	BASE	0.17	167	1.44	197	-2.1	93	-3.1	731	1494	987.7	NA	0.0000		9999	0	0	0	0
2017/11/21 13:15:00	BASE	0.52	193	1.29	187	-2.1	93	-3.1	776	1515	987.7	NA	0.0000		9999	0	0	0	0
2017/11/21 13:16:00	BASE	0.73	191	1.29	187	-2.0	93	-3.0	748	1515	987.7	NA	0.0000		9999	1150	0	0	0
2017/11/21 13:17:00	BASE	0.86	203	1.29	209	-2.0	92	-3.0	741	1515	987.7	NA	0.0000		9999	1150	0	0	0
2017/11/21 13:18:00	BASE	0.58	204	1.29	209	-2.0	92	-3.0	763	1515	987.7	NA	0.0000		9999	0	0	0	0
2017/11/21 13:19:00	BASE	0.42	190	1.75	158	-1.9	93	-3.0	740	1514	987.7	NA	0.0000		9999	0	0	0	0
2017/11/21 13:20:00	BASE	0.93	169	1.75	158	-1.9	93	-3.0	703	1455	987.6	NA	0.0000		9999	0	0	0	0
2017/11/21 13:21:00	BASE	0.81	147	1.75	158	-2.0	93	-3.0	697	1445	987.6	NA	0.0000		9999	0	0	0	0
2017/11/21 13:22:00	BASE	0.82	162	1.75	204	-1.9	93	-2.9	642	1350	987.7	NA	0.0000		9999	0	0	0	0
2017/11/21 13:23:00	BASE	0.67	217	1.75	204	-2.0	93	-3.0	698	1448	987.7	NA	0.0000		9999	0	0	0	0
2017/11/21 13:24:00	BASE	0.05	268	1.75	204	-2.0	93	-3.0	701	1454	987.7	NA	0.0000		9999	0	0	0	0
2017/11/21 13:25:00	BASE	0.00	296	1.75	204	-1.9	93	-2.9	703	1460	987.7	NA	0.0000		9999	0	0	0	0
2017/11/21 13:26:00	BASE	0.00	325	1.75	204	-1.8	93	-2.8	704	1462	987.7	NA	0.0000		9999	0	0	0	0
2017/11/21 13:27:00	BASE	0.50	22	1.75	204	-1.7	93	-2.7	705	1464	987.7	NA	0.0000		9999	0	0	0	0
2017/11/21 13:28:00	BASE	1.18	39	2.06	68	-1.4	93	-2.5	707	1468	987.7	NA	0.0000		9999	0	0	0	0
2017/11/21 13:29:00	BASE	0.68	36	2.06	68	-1.3	92	-2.4	708	1469	987.7	NA	0.0000		9999	0	0	0	0
2017/11/21 13:30:00	BASE	0.00	36	2.06	68	-1.3	92	-2.5	710	1470	987.7	NA	0.0000		9999	0	0	0	0
2017/11/21 13:31:00	BASE	0.00	25	2.06	68	-1.3	92	-2.5	711	1477	987.7	NA	0.0000		9999	0	0	0	0
2017/11/21 13:32:00	BASE	0.00	21	2.06	68	-1.3	91	-2.5	713	1478	987.7	NA	0.0000		9999	0	0	0	0
2017/11/21 13:33:00	BASE	0.00	28	2.06	68	-1.3	91	-2.6	714	1483	987.7	NA	0.0000		9999	0	0	0	0
2017/11/21 13:34:00	BASE	0.00	14	2.06	68	-1.3	91	-2.6	715	1480	987.7	NA	0.0000		9999	0	0	0	0
2017/11/21 13:35:00	BASE	0.00	251	2.06	68	-1.3	90	-2.7	716	1485	987.7	NA	0.0000		9999	0	0	0	0
2017/11/21 13:36:00	BASE	0.00	245	2.06	68	-1.5	90	-2.9	719	1488	987.7	NA	0.0000		9999	0	0	0	0
2017/11/21 13:37:00	BASE	0.00	297	2.06	68	-1.5	90	-2.9	719	1490	987.7	NA	0.0000		9999	0	0	0	0
2017/11/21 13:38:00	BASE	0.00	356	M	M	-1.6	90	-3.0	721	1494	987.7	NA	0.0000		9999	0	0	0	0
2017/11/21 13:39:00	BASE	0.00	13	M	M	-1.5	90	-2.9	723	1494	987.7	NA	0.0000		9999	0	0	0	0
2017/11/21 13:40:00	BASE	0.05	21	1.08	22	-1.4	90	-2.8	722	1497	987.7	NA	0.0000		9999	0	0	0	0
2017/11/21 13:41:00	BASE	0.05	23	1.08	22	-1.3	90	-2.7	726	1502	987.7	NA	0.0000		9999	0	0	0	0
2017/11/21 13:42:00	BASE	0.00	17	1.08	22	-1.3	90	-2.7	725	1507	987.6	NA	0.0000		9999	0	0	0	0
2017/11/21 13:43:00	BASE	0.00	7	1.08	22	-1.2	90	-2.6	727	1507	987.6	NA	0.0000		9999	0	0	0	0
2017/11/21 13:44:00	BASE	0.47	350	1.39	338	-1.2	90	-2.6	729	1512	987.6	NA	0.0000		9999	0	0	0	0
2017/11/21 13:45:00	BASE	0.62	347	1.39	338	-1.2	90	-2.6	729	1512	987.6	NA	0.0000		9999	0	0	0	0
2017/11/21 13:46:00	BASE	0.14	15	1.39	338	-1.2	90	-2.6	732	1515	987.6	NA	0.0000		9999	0	0	0	0
2017/11/21 13:47:00	BASE	0.00	357	1.39	338	-1.2	90	-2.6	732	1515	987.6	NA	0.0000		9999	0	0	0	0
2017/11/21 13:48:00	BASE	0.00	328	1.39	338	-1.2	90	-2.6	733	1514	987.7	NA	0.0000		9999	0	0	0	0
2017/11/21 13:49:00	BASE	0.41	337	1.44	20	-1.2	90	-2.5	735	1514	987.7	NA	0.0000		9999	0	0	0	0
2017/11/21 13:50:00	BASE	0.50	340	1.44	20	-1.2	90	-2.6	735	1515	987.7	NA	0.0000		9999	0	0	0	0
2017/11/21 13:51:00	BASE	0.24	333	1.44	20	-1.2	90	-2.6	736	1515	987.7	NA	0.0000		9999	0	0	0	0
2017/11/21 13:52:00	BASE	0.29	323	1.44	20	-1.2	90	-2.6	738	1515	987.7	NA	0.0000		9999	0	0	0	0
2017/11/21 13:53:00	BASE	0.24	304	1.44	20	-1.3	90	-2.7	740	1514	987.7	NA	0.0000		9999	0	0	0	0
2017/11/21 13:54:00	BASE	0.28	285	1.44	20	-1.4	90	-2.8	738	1515	987.8	NA	0.0000		9999	0	0	0	0
2017/11/21 13:55:00	BASE	0.28	270	1.44	20	-1.5	90	-3.0	740	1515	987.8	NA	0.0000		9999	0	0	0	0
2017/11/21 13:56:00	BASE	0.32	263	1.44	20	-1.7	90	-3.1	742	1514	987.8	NA	0.0000		9999	0	0	0	0
2017/11/21 13:57:00	BASE	0.23	258	1.44	20	-1.8	91	-3.1	743	1515	987.8	NA	0.0000		9999	0	0	0	0
2017/11/21 13:58:00	BASE	0.54	228	1.65	204	-1.8	91	-3.1	744	1514	987.8	NA	0.0000		9999	0	0	0	0
2017/11/21 13:59:00	BASE	1.40	208	1.95	210	-1.9	92	-3.1	745	1514	987.8	NA	0.0000		9999	0	0	0	0
2017/11/21 14:00:00	BASE	1.85	206	2.11	196	-1.9	92	-3.1	746	1515	987.8	NA	0.0000		9999	0	0	0	0
2017/11/21 14:01:00	BASE	2.05	203	2.47	203	-1.9	92	-3.0	748	1514	987.8	NA	0.0000		9999	0	0	0	0
2017/11/21 14:02:00	BASE	2.09	206	2.47	203	-1.9	93	-3.0	748	1515	987.8	NA	0.0000		9999	0	0	0	0
2017/11/21 14:03:00	BASE	1.87	210	2.47	203	-2.0	93	-3.0	749	1515	987.8	NA	0.0000		9999	0	0	0	0
2017/11/21 14:04:00	BASE	1.74	210	2.47	203	-2.0	93	-3.0	750	1514	987.8	NA	0.0000		9999	0	0	0	0
2017/11/21 14:05:00	BASE	1.72	217	2.47	203	-2.0	93	-3.0	751	1514	987.8	NA	0.0000		9999	0	0	0	0
2017/11/21 14:06:00	BASE	1.34	229	2.47	203	-2.0	93	-3.0	752	1515	987.8	NA	0.0000		9999	0	0	0	0
2017/11/21 14:07:00	BASE	0.60	223	2.47	203	-2.0	93	-3.0	753	1514	987.8	NA	0.0000		9999	0	0	0	0
2017/11/21 14:08:00	BASE	0.73	210	2.47	203	-2.0	93	-3.0	755	1514	987.8	NA	0.0000		9999	0	0	0	0
2017/11/21 14:09:00	BASE	1.41	214	2.47	203	-2.0	93	-3.0	757	1514	987.9	NA	0.0000		9999	0	0	0	0
2017/11/21 14:10:00	BASE	1.66	219	2.47	203	-2.0	93	-3.0	757	1515	987.9	NA	0.0000		9999	0	0	0	0
2017/11/21 14:11:00	BASE	1.66	221	2.26	204	-2.0	93	-3.0	758	1515	987.9	NA	0.0000		9999	0	0	0	0
2017/11/21 14:12:00	BASE	1.69	227	2.06	226	-2.0	93	-2.9	759	1514	987.9	NA	0.0000		9999	0	0	0	0
2017/11/21 14:13:00	BASE	1.77	234	2.42	243	-1.9	93	-2.9	759	1514	987.9	NA	0.0000		9999	0	0	0	0
2017/11/21 14:14:00	BASE	1.75	231	2.42	243	-1.9	93	-2.9	760	1515	987.9	NA	0.0000		9999	0	0	0	0
2017/11/21 14:15:00	BASE	1.73	227	2.42	243	-1.9	93	-2.8	759	1515	987.9	NA	0.0000		9999	0	0	0	0
2017/11/21 14:16:00	BASE	1.70	235	2.42	243	-1.8	93	-2.8	762	1515	987.9	NA	0.0000		9999	0	0	0	0
2017/11/21 14:17:00	BASE	1.83	246	2.42	243	-1.9	93	-2.8	762	1514	987.9	NA	0.0000		9999	0	0	0	0
2017/11/21 14:18:00	BASE	1.94	252	2.42	243	-1.9	93	-2.9	762	1515	987.9	NA	0.0000		9999	0	0	0	0
2017/11/21 14:19:00	BASE	1.94	244	2.42	243	-1.9	93	-2.9	765	1515	987.9	NA	0.0000		9999	0	0	0	0
2017/11/21 14:20:00	BASE	2.12	240	2.68	252	-2.0	93	-2.9	765	1514	987.9	NA	0.0000		9999	0	0	0	0
2017/11/21 14:21:00	BASE	2.29	245	2.68	252	-2.0	93	-3.0	766	1514	987.9	NA	0.0000		9999	0	0	0	0
2017/11/21 14:22:00	BASE	2.30	238	2.68	252	-2.0	93	-2.9	766	1514	987.9	NA	0.0000		9999	0	0	0	0
2017/11/21 14:23:00	BASE	2.38	233	2.73	232	-1.9	93	-2.8	769	1515	987.9	NA	0.0000		9999	0	0	0	0
2017/11/21 14:24:00	BASE	2.25	237	2.73	232	-1.9	93	-2.8	768	1514	987.9	NA	0.0000		9999	0	0	0	0
2017/11/21 14:25:00	BASE	1.79	239	2.73	232	-1.9	93	-2.9	768	1515	987.9	NA	0.0000		9999	0	0	0	0
2017/11/21 14:26:00	BASE	1.67	241	2.73	232	-1.9	94	-2.8	768	1515	987.9	NA	0.0000		9999	0	0	0	0
2017/11/21 14:27:00	BASE	1.80	239	2.73	232	-1.9	94	-2.8	768	1515	987.9	NA	0.0000		9999	0	0	0	0
2017/11/21 14:28:00	BASE	1.65	240	2.73	232	-2.0	93	-2.9	769	1515	987.9	NA	0.0000		9999	0	0	0	0
2017/11/21 14:29:00	BASE	1.62	250	2.73	232	-2.0	93	-2.9	770	1515	987.9	NA	0.0000		9999	0	0	0	0
2017/11/21 14:30:00	BASE	1.57	250	2.73	232	-2.0	93	-2.9	772	1515	987.9	NA	0.0000		9999	0	0	0	0
2017/11/21 14:31:00	BASE	1.53	247	2.73	232	-2.0	93	-2.9	773	1515	987.9	NA	0.0000		9999	0	0	0	0
2017/11/21 14:32:00	BASE	1.44	247	2.73	232	-2.0	93	-3.0	773	1514	987.9	NA	0.0000		9999	0	0	0	0
2017/11/21 14:33:00	BASE	1.31	247	2.37	240	-2.1	93	-3.0	774	1514	987.9	NA	0.0000		9999	0	0	0	0
2017/11/21 14:34:00	BASE	1.41	248	2.21	251	-2.1	93	-3.1	775	1515	987.9	NA	0.0000		9999	0	0	0	0
2017/11/21 14:35:00	BASE	1.22	253	2.21	251	-2.2	93	-3.1	776	1515	987.9	NA	0.0000		9999	0	0	0	0
2017/11/21 14:36:00	BASE	1.03	250	2.21	251	-2.2	93	-3.1	777	1515	987.9	NA	0.0000		9999	0	0	0	0
2017/11/21 14:37:00	BASE	1.30	242	2.21	251	-2.2	94	-3.1	778	1515	987.9	NA	0.0000		9999	0	0	0	0
2017/11/21 14:38:00	BASE	1.55	243	2.21	244	-2.2	94	-3.0	778	1515	987.9	NA	0.0000		9999	0	0	0	0
2017/11/21 14:39:00	BASE	1.53	242	2.21	244	-2.1	94	-3.0	779	1515	987.9	NA	0.0000		9999	0	0	0	0
2017/11/21 14:40:00	BASE	1.25	247	2.21	244	-2.1	94	-2.9	779	1515	987.9	NA	0.0000		9999	0	0	0	0
2017/11/21 14:41:00	BASE	1.35	248	2.21	244	-2.1	94	-2.9	781	1515	987.9	NA	0.0000		9999	0	0	0	0
2017/11/21 14:42:00	BASE	1.58	240	2.21	244	-2.1	94	-2.9	781	1514	987.9	NA	0.0000		9999	0	0	0	0
2017/11/21 14:43:00	BASE	1.63	237	2.21	244	-2.1	94	-2.9	782	1515	987.9	NA	0.0000		9999	0	0	0	0
2017/11/21 14:44:00	BASE	1.64	235	2.21	244	-2.1	94	-2.9	783	1514	987.9	NA	0.0000		9999	0	0	0	0
2017/11/21 14:45:00	BASE	1.58	235	2.21	244	-2.1	94	-2.9	786	1515	987.9	NA	0.0000		9999	0	0	0	0
2017/11/21 14:46:00	BASE	1.63	241	2.21	244	-2.1	94	-2.9	785	1515	987.9	NA	0.0000		9999	0	0	0	0
2017/11/21 14:47:00	BASE	1.84	249	2.88	238	-2.1	94	-2.9	785	1515	987.9	NA	0.0000		9999	0	0	0	0
2017/11/21 14:48:00	BASE	2.20	252	2.88	238	-2.0	94	-2.9	787	1515	987.9	NA	0.0000		9999	0	0	0	0
2017/11/21 14:49:00	BASE	2.19	253	2.88	238	-2.0	94	-2.9	788	1514	988.0	NA	0.0000		9999	0	0	0	0
2017/11/21 14:50:00	BASE	1.85	257	2.88	238	-2.0	94	-2.9	788	1515	988.0	NA	0.0000		9999	0	0	0	0
2017/11/21 14:51:00	BASE	1.70	258	2.88	238	-2.1	94	-2.9	789	1515	988.0	NA	0.0000		9999	0	0	0	0
2017/11/21 14:52:00	BASE	1.74	256	2.88	238	-2.1	94	-2.9	791	1515	988.0	NA	0.0000		9999	0	0	0	0
2017/11/21 14:53:00	BASE	1.81	256	2.88	238	-2.1	94	-2.9	791	1514	988.0	NA	0.0000		9999	0	0	0	0
2017/11/21 14:54:00	BASE	1.79	261	2.88	238	-2.0	94	-2.9	791	1515	988.0	NA	0.0000		9999	0	0	0	0
2017/11/21 14:55:00	BASE	1.68	263	2.88	238	-1.9	94	-2.8	792	1515	988.0	NA	0.0000		9999	0	0	0	0
2017/11/21 14:56:00	BASE	1.72	268	2.88	238	-1.9	94	-2.8	794	1515	988.0	NA	0.0000		9999	0	0	0	0
2017/11/21 14:57:00	BASE	1.81	278	2.78	249	-1.8	94	-2.6	794	1515	988.0	NA	0.0000		9999	0	0	0	0
2017/11/21 14:58:00	BASE	1.71	286	2.26	284	-1.6	93	-2.5	794	1515	988.0	NA	0.0000		9999	0	0	0	0
2017/11/21 14:59:00	BASE	1.42	287	2.26	284	-1.4	93	-2.3	795	1515	988.0	NA	0.0000		9999	0	0	0	0
2017/11/21 15:00:00	BASE	1.45	285	2.26	284	-1.2	93	-2.2	797	1514	988.0	NA	0.0000		9999	0	0	0	0
2017/11/21 15:01:00	BASE	1.64	281	2.26	284	-1.1	92	-2.2	798	1514	988.0	NA	0.0000		9999	0	0	0	0
2017/11/21 15:02:00	BASE	1.80	266	2.73	243	-1.1	91	-2.4	797	1515	988.0	NA	0.0000		9999	0	0	0	0
2017/11/21 15:03:00	BASE	1.94	259	2.73	243	-1.1	90	-2.6	797	1515	987.9	NA	0.0000		9999	0	0	0	0
2017/11/21 15:04:00	BASE	1.96	269	2.73	243	-1.3	90	-2.7	798	1515	987.9	NA	0.0000		9999	0	0	0	0
2017/11/21 15:05:00	BASE	2.07	276	2.73	243	-1.4	90	-2.7	798	1515	988.0	NA	0.0000		9999	0	0	0	0
2017/11/21 15:06:00	BASE	2.09	279	2.73	243	-1.4	91	-2.7	799	1515	988.0	NA	0.0000		9999	0	0	0	0
2017/11/21 15:07:00	BASE	2.09	275	2.73	253	-1.3	91	-2.6	800	1515	988.0	NA	0.0000		9999	0	0	0	0
2017/11/21 15:08:00	BASE	2.22	270	2.88	272	-1.2	92	-2.4	800	1515	988.0	NA	0.0000		9999	0	0	0	0
2017/11/21 15:09:00	BASE	2.48	269	3.09	257	-1.1	91	-2.3	800	1515	988.1	NA	0.0000		9999	0	0	0	0
2017/11/21 15:10:00	BASE	2.61	265	3.09	257	-1.1	91	-2.4	800	1515	988.2	NA	0.0000		9999	0	0	0	0
2017/11/21 15:11:00	BASE	2.50	260	3.09	257	-1.1	91	-2.4	800	1515	988.2	NA	0.0000		9999	0	0	0	0
2017/11/21 15:12:00	BASE	2.40	260	3.09	252	-1.1	91	-2.4	802	1514	988.2	NA	0.0000		9999	0	0	0	0
2017/11/21 15:13:00	BASE	2.56	265	3.19	274	-1.1	91	-2.4	802	1515	988.2	NA	0.0000		9999	0	0	0	0
2017/11/21 15:14:00	BASE	2.67	264	3.19	274	-1.1	91	-2.4	802	1514	988.2	NA	0.0000		9999	0	0	0	0
2017/11/21 15:15:00	BASE	2.73	263	3.34	273	-1.1	91	-2.4	803	1515	988.2	NA	0.0000		9999	0	0	0	0
2017/11/21 15:16:00	BASE	2.80	264	3.45	257	-1.1	91	-2.4	804	1515	988.2	NA	0.0000		9999	0	0	0	0
2017/11/21 15:17:00	BASE	2.70	260	3.45	257	-1.1	90	-2.5	804	1514	988.2	NA	0.0000		9999	0	0	0	0
2017/11/21 15:18:00	BASE	2.96	266	3.55	271	-1.1	90	-2.5	803	1515	988.2	NA	0.0000		9999	0	0	0	0
2017/11/21 15:19:00	BASE	3.00	269	3.55	271	-1.1	90	-2.5	805	1515	988.3	NA	0.0000		9999	0	0	0	0
2017/11/21 15:20:00	BASE	2.68	266	3.55	271	-1.1	91	-2.4	805	1515	988.3	NA	0.0000		9999	0	0	0	0
2017/11/21 15:21:00	BASE	2.60	269	3.55	271	-1.0	91	-2.3	806	1515	988.3	NA	0.0000		9999	0	0	0	0
2017/11/21 15:22:00	BASE	2.56	275	3.55	271	-1.0	91	-2.3	804	1515	988.3	NA	0.0000		9999	0	0	0	0
2017/11/21 15:23:00	BASE	2.61	275	3.55	271	-0.9	91	-2.3	806	1515	988.3	NA	0.0000		9999	0	0	0	0
2017/11/21 15:24:00	BASE	2.39	275	3.55	271	-1.0	90	-2.3	806	1514	988.3	NA	0.0000		9999	0	0	0	0
2017/11/21 15:25:00	BASE	2.35	281	3.55	271	-1.0	90	-2.4	806	1515	988.3	NA	0.0000		9999	0	0	0	0
2017/11/21 15:26:00	BASE	2.54	283	3.55	271	-1.1	90	-2.4	807	1515	988.3	NA	0.0000		9999	0	0	0	0
2017/11/21 15:27:00	BASE	2.40	281	3.55	271	-1.1	91	-2.4	807	1515	988.3	NA	0.0000		9999	0	0	0	0
2017/11/21 15:28:00	BASE	2.25	281	3.19	262	-1.1	91	-2.4	809	1514	988.3	NA	0.0000		9999	0	0	0	0
2017/11/21 15:29:00	BASE	2.51	293	3.19	262	-1.0	91	-2.3	808	1515	988.3	NA	0.0000		9999	0	0	0	0
2017/11/21 15:30:00	BASE	2.82	306	3.14	278	-1.0	91	-2.3	808	1514	988.3	NA	0.0000		9999	0	0	0	0
2017/11/21 15:31:00	BASE	2.71	305	3.04	307	-1.0	90	-2.4	809	1515	988.3	NA	0.0000		9999	0	0	0	0
2017/11/21 15:32:00	BASE	2.53	304	3.04	307	-0.9	89	-2.4	810	1515	988.3	NA	0.0000		9999	0	0	0	0
2017/11/21 15:33:00	BASE	2.47	306	3.04	307	-0.8	89	-2.4	810	1515	988.3	NA	0.0000		9999	0	0	0	0
2017/11/21 15:34:00	BASE	2.51	309	3.04	307	-0.7	88	-2.4	809	1515	988.3	NA	0.0000		9999	0	0	0	0
2017/11/21 15:35:00	BASE	2.62	309	3.19	304	-0.6	88	-2.4	809	1515	988.3	NA	0.0000		9999	0	0	0	0
2017/11/21 15:36:00	BASE	2.70	305	3.19	304	-0.5	87	-2.3	809	1515	988.3	NA	0.0000		9999	0	0	0	0
2017/11/21 15:37:00	BASE	2.58	305	3.19	304	-0.6	87	-2.4	810	1514	988.3	NA	0.0000		9999	0	0	0	0
2017/11/21 15:38:00	BASE	2.40	309	3.19	304	-0.6	87	-2.4	810	1515	988.4	NA	0.0000		9999	0	0	0	0
2017/11/21 15:39:00	BASE	2.39	304	3.19	304	-0.7	88	-2.5	811	1515	988.4	NA	0.0000		9999	0	0	0	0
2017/11/21 15:40:00	BASE	2.37	297	3.19	304	-0.7	88	-2.5	810	1515	988.4	NA	0.0000		9999	0	0	0	0
2017/11/21 15:41:00	BASE	2.16	303	3.19	304	-0.8	88	-2.5	811	1515	988.4	NA	0.0000		9999	0	0	0	0
2017/11/21 15:42:00	BASE	1.94	311	3.19	304	-0.8	89	-2.4	811	1514	988.4	NA	0.0000		9999	0	0	0	0
2017/11/21 15:43:00	BASE	1.85	317	3.19	304	-0.9	89	-2.4	811	1515	988.4	NA	0.0000		9999	0	0	0	0
2017/11/21 15:44:00	BASE	1.91	318	3.19	304	-0.9	89	-2.4	812	1515	988.4	NA	0.0000		9999	0	0	0	0
2017/11/21 15:45:00	BASE	2.09	311	3.04	303	-0.9	90	-2.4	810	1515	988.4	NA	0.0000		9999	0	0	0	0
2017/11/21 15:46:00	BASE	2.10	305	2.73	304	-0.9	90	-2.3	811	1515	988.4	NA	0.0000		9999	0	0	0	0
2017/11/21 15:47:00	BASE	2.06	306	2.68	306	-0.9	90	-2.4	811	1515	988.4	NA	0.0000		9999	0	0	0	0
2017/11/21 15:48:00	BASE	2.19	312	2.62	296	-0.9	90	-2.4	811	1515	988.4	NA	0.0000		9999	0	0	0	0
2017/11/21 15:49:00	BASE	2.23	313	2.62	302	-0.8	90	-2.3	812	1515	988.4	NA	0.0000		9999	0	0	0	0
2017/11/21 15:50:00	BASE	2.20	314	2.62	302	-0.8	90	-2.3	812	1515	988.4	NA	0.0000		9999	0	0	0	0
2017/11/21 15:51:00	BASE	2.24	320	2.62	302	-0.8	90	-2.3	812	1515	988.4	NA	0.0000		9999	0	0	0	0
2017/11/21 15:52:00	BASE	2.13	325	2.62	302	-0.8	90	-2.3	813	1515	988.4	NA	0.0000		9999	0	0	0	0
2017/11/21 15:53:00	BASE	2.00	324	2.62	302	-0.8	90	-2.3	812	1515	988.3	NA	0.0000		9999	0	0	0	0
2017/11/21 15:54:00	BASE	1.80	315	2.62	302	-0.7	90	-2.2	813	1515	988.3	NA	0.0000		9999	0	0	0	0
2017/11/21 15:55:00	BASE	1.84	315	2.78	329	-0.7	89	-2.2	811	1515	988.3	NA	0.0000		9999	0	0	0	0
2017/11/21 15:56:00	BASE	2.38	322	3.14	319	-0.8	89	-2.3	812	1515	988.3	NA	0.0000		9999	0	0	0	0
2017/11/21 15:57:00	BASE	2.52	325	3.14	319	-0.7	89	-2.3	814	1515	988.3	NA	0.0000		9999	0	0	0	0
2017/11/21 15:58:00	BASE	2.60	329	3.14	319	-0.7	89	-2.2	812	1515	988.3	NA	0.0000		9999	0	0	0	0
2017/11/21 15:59:00	BASE	2.81	332	3.14	319	-0.6	89	-2.2	812	1515	988.3	NA	0.0000		9999	0	0	0	0
2017/11/21 16:00:00	BASE	2.75	339	3.14	319	-0.6	89	-2.1	812	1515	988.3	NA	0.0000		9999	0	0	0	0
2017/11/21 16:01:00	BASE	2.58	345	3.14	319	-0.6	89	-2.2	812	1515	988.3	NA	0.0000		9999	0	0	0	0
2017/11/21 16:02:00	BASE	2.38	339	3.14	319	-0.6	89	-2.2	811	1515	988.3	NA	0.0000		9999	0	0	0	0
2017/11/21 16:03:00	BASE	2.40	326	3.14	319	-0.5	89	-2.1	812	1515	988.3	NA	0.0000		9999	0	0	0	0
2017/11/21 16:04:00	BASE	2.61	325	3.14	319	-0.5	89	-2.0	813	1515	988.3	NA	0.0000		9999	0	0	0	0
2017/11/21 16:05:00	BASE	2.81	328	3.19	330	-0.4	89	-2.1	812	1515	988.3	NA	0.0000		9999	0	0	0	0
2017/11/21 16:06:00	BASE	2.91	330	3.29	327	-0.3	89	-2.0	811	1514	988.3	NA	0.0000		9999	0	0	0	0
2017/11/21 16:07:00	BASE	2.79	333	3.29	327	-0.4	88	-2.0	811	1515	988.3	NA	0.0000		9999	0	0	0	0
2017/11/21 16:08:00	BASE	2.59	339	3.29	327	-0.4	88	-2.1	813	1515	988.4	NA	0.0000		9999	0	0	0	0
2017/11/21 16:09:00	BASE	2.34	343	3.29	327	-0.4	88	-2.1	812	1515	988.4	NA	0.0000		9999	0	0	0	0
2017/11/21 16:10:00	BASE	2.29	345	3.29	327	-0.4	88	-2.1	811	1515	988.4	NA	0.0000		9999	0	0	0	0
2017/11/21 16:11:00	BASE	2.29	350	3.29	327	-0.4	88	-2.1	812	1515	988.4	NA	0.0000		9999	0	0	0	0
2017/11/21 16:12:00	BASE	2.22	354	3.29	327	-0.4	89	-2.1	812	1515	988.4	NA	0.0000		9999	0	0	0	0
2017/11/21 16:13:00	BASE	2.31	357	3.29	327	-0.4	89	-2.0	812	1514	988.4	NA	0.0000		9999	0	0	0	0
2017/11/21 16:14:00	BASE	2.37	347	3.29	327	-0.4	89	-2.0	812	1515	988.4	NA	0.0000		9999	0	0	0	0
2017/11/21 16:15:00	BASE	2.28	338	3.29	327	-0.3	89	-2.0	810	1514	988.4	NA	0.0000		9999	0	0	0	0
2017/11/21 16:16:00	BASE	2.20	330	2.83	328	-0.2	89	-1.9	811	1515	988.4	NA	0.0000		9999	0	0	0	0
2017/11/21 16:17:00	BASE	2.25	329	2.73	347	-0.2	88	-1.9	811	1515	988.4	NA	0.0000		9999	0	0	0	0
2017/11/21 16:18:00	BASE	2.38	341	2.73	333	-0.3	88	-2.0	811	1514	988.4	NA	0.0000		9999	0	0	0	0
2017/11/21 16:19:00	BASE	2.41	337	2.73	330	-0.3	88	-2.0	811	1515	988.4	NA	0.0000		9999	0	0	0	0
2017/11/21 16:20:00	BASE	2.21	334	2.73	330	-0.4	88	-2.1	810	1514	988.4	NA	0.0000		9999	0	0	0	0
2017/11/21 16:21:00	BASE	2.19	336	2.73	330	-0.5	89	-2.1	809	1514	988.4	NA	0.0000		9999	0	0	0	0
2017/11/21 16:22:00	BASE	2.20	333	2.73	330	-0.5	89	-2.1	810	1515	988.5	NA	0.0000		9999	0	0	0	0
2017/11/21 16:23:00	BASE	2.13	328	2.73	330	-0.5	89	-2.1	811	1515	988.4	NA	0.0000		9999	0	0	0	0
2017/11/21 16:24:00	BASE	1.92	328	2.73	330	-0.5	89	-2.1	810	1515	988.4	NA	0.0000		9999	0	0	0	0
2017/11/21 16:25:00	BASE	1.71	343	2.73	330	-0.5	89	-2.0	811	1515	988.4	NA	0.0000		9999	0	0	0	0
2017/11/21 16:26:00	BASE	1.98	351	2.73	330	-0.3	89	-1.9	810	1515	988.4	NA	0.0000		9999	0	0	0	0
2017/11/21 16:27:00	BASE	2.06	342	2.73	330	-0.3	89	-1.8	810	1515	988.4	NA	0.0000		9999	0	0	0	0
2017/11/21 16:28:00	BASE	2.07	343	2.73	330	-0.2	89	-1.8	809	1515	988.4	NA	0.0000		9999	0	0	0	0
2017/11/21 16:29:00	BASE	2.40	349	2.78	355	-0.2	89	-1.8	809	1515	988.4	NA	0.0000		9999	0	0	0	0
2017/11/21 16:30:00	BASE	2.26	352	2.78	355	-0.2	89	-1.7	810	1515	988.5	NA	0.0000		9999	0	0	0	0
2017/11/21 16:31:00	BASE	2.03	343	2.78	355	-0.2	89	-1.9	808	1515	988.5	NA	0.0000		9999	0	0	0	0
2017/11/21 16:32:00	BASE	2.02	340	2.78	355	-0.3	89	-1.9	807	1515	988.5	NA	0.0000		9999	0	0	0	0
2017/11/21 16:33:00	BASE	2.01	356	2.78	355	-0.3	89	-1.9	807	1515	988.5	NA	0.0000		9999	0	0	0	0
2017/11/21 16:34:00	BASE	2.07	3	2.78	355	-0.2	89	-1.8	807	1515	988.5	NA	0.0000		9999	0	0	0	0
2017/11/21 16:35:00	BASE	2.04	359	2.78	355	-0.3	89	-1.9	806	1514	988.5	NA	0.0000		9999	0	0	0	0
2017/11/21 16:36:00	BASE	1.74	359	2.78	355	-0.3	89	-1.8	808	1515	988.5	NA	0.0000		9999	0	0	0	0
2017/11/21 16:37:00	BASE	1.30	8	2.78	355	-0.2	89	-1.8	806	1514	988.5	NA	0.0000		9999	0	0	0	0
2017/11/21 16:38:00	BASE	1.48	13	2.78	355	-0.3	89	-1.9	806	1515	988.5	NA	0.0000		9999	0	0	0	0
2017/11/21 16:39:00	BASE	1.89	9	2.68	6	-0.3	89	-1.9	804	1515	988.5	NA	0.0000		9999	0	0	0	0
2017/11/21 16:40:00	BASE	1.78	15	2.68	6	-0.2	89	-1.8	805	1515	988.4	NA	0.0000		9999	0	0	0	0
2017/11/21 16:41:00	BASE	1.81	24	2.68	6	-0.0	88	-1.7	806	1514	988.4	NA	0.0000		9999	0	0	0	0
2017/11/21 16:42:00	BASE	2.09	23	2.68	6	0.0	88	-1.7	805	1514	988.4	NA	0.0000		9999	0	0	0	0
2017/11/21 16:43:00	BASE	2.20	25	2.68	6	0.1	88	-1.7	804	1515	988.4	NA	0.0000		9999	0	0	0	0
2017/11/21 16:44:00	BASE	2.04	21	2.68	6	0.1	87	-1.8	803	1514	988.4	NA	0.0000		9999	0	0	0	0
2017/11/21 16:45:00	BASE	1.87	16	2.47	32	0.0	87	-2.0	803	1515	988.4	NA	0.0000		9999	0	0	0	0
2017/11/21 16:46:00	BASE	1.89	7	2.47	32	-0.1	86	-2.1	803	1515	988.4	NA	0.0000		9999	0	0	0	0
2017/11/21 16:47:00	BASE	1.83	353	2.47	32	-0.1	86	-2.1	802	1515	988.4	NA	0.0000		9999	0	0	0	0
2017/11/21 16:48:00	BASE	1.54	341	2.47	32	-0.2	86	-2.2	801	1515	988.4	NA	0.0000		9999	0	0	0	0
2017/11/21 16:49:00	BASE	1.28	330	2.47	32	-0.2	87	-2.2	802	1514	988.4	NA	0.0000		9999	0	0	0	0
2017/11/21 16:50:00	BASE	1.14	319	2.47	32	-0.3	87	-2.2	801	1515	988.4	NA	0.0000		9999	0	0	0	0
2017/11/21 16:51:00	BASE	1.27	318	2.47	32	-0.3	87	-2.2	801	1514	988.4	NA	0.0000		9999	0	0	0	0
2017/11/21 16:52:00	BASE	1.56	320	2.31	324	-0.4	87	-2.3	799	1515	988.4	NA	0.0000		9999	0	0	0	0
2017/11/21 16:53:00	BASE	1.46	316	2.31	324	-0.4	88	-2.2	800	1515	988.4	NA	0.0000		9999	0	0	0	0
2017/11/21 16:54:00	BASE	1.29	316	2.31	324	-0.3	88	-2.1	799	1515	988.4	NA	0.0000		9999	0	0	0	0
2017/11/21 16:55:00	BASE	0.81	326	2.31	324	-0.2	88	-2.0	798	1514	988.5	NA	0.0000		9999	0	0	0	0
2017/11/21 16:56:00	BASE	0.59	332	2.31	324	-0.2	87	-2.0	799	1514	988.5	NA	0.0000		9999	22410	0	0	0
2017/11/21 16:57:00	BASE	1.21	329	2.31	324	-0.1	87	-1.9	798	1515	988.5	NA	0.0000		9999	0	0	0	0
2017/11/21 16:58:00	BASE	1.72	323	2.31	332	0.1	87	-1.9	798	1514	988.4	NA	0.0000		9999	0	0	0	0
2017/11/21 16:59:00	BASE	1.94	321	2.31	332	0.2	86	-1.8	796	1514	988.5	NA	0.0000		9999	0	0	0	0
2017/11/21 17:00:00	BASE	1.78	326	2.31	332	0.1	86	-1.9	796	1515	988.5	NA	0.0000		9999	0	0	0	0
2017/11/21 17:01:00	BASE	1.71	330	2.31	332	0.2	86	-1.9	795	1515	988.5	NA	0.0000		9999	0	0	0	0
2017/11/21 17:02:00	BASE	1.78	331	2.31	332	0.1	86	-2.0	795	1515	988.5	NA	0.0000		9999	0	0	0	0
2017/11/21 17:03:00	BASE	1.71	342	2.31	332	0.1	86	-2.0	794	1515	988.5	NA	0.0000		9999	0	0	0	0
2017/11/21 17:04:00	BASE	1.84	349	2.31	332	0.0	86	-2.0	793	1515	988.5	NA	0.0000		9999	0	0	0	0
2017/11/21 17:05:00	BASE	1.88	345	2.31	332	0.0	86	-2.0	792	1515	988.5	NA	0.0000		9999	0	0	0	0
2017/11/21 17:06:00	BASE	1.62	1	2.31	332	-0.1	86	-2.1	792	1515	988.5	NA	0.0000		9999	0	0	0	0
2017/11/21 17:07:00	BASE	1.69	18	2.42	21	0.0	86	-2.0	792	1514	988.5	NA	0.0000		9999	0	0	0	0
2017/11/21 17:08:00	BASE	1.82	13	2.42	21	0.1	86	-2.0	792	1515	988.5	NA	0.0000		9999	0	0	0	0
2017/11/21 17:09:00	BASE	1.51	5	2.42	21	0.1	86	-2.0	791	1515	988.5	NA	0.0000		9999	0	0	0	0
2017/11/21 17:10:00	BASE	1.35	5	2.42	21	0.1	85	-2.1	790	1515	988.4	NA	0.0000		9999	0	0	0	0
2017/11/21 17:11:00	BASE	1.46	5	2.42	21	0.0	85	-2.2	790	1515	988.4	NA	0.0000		9999	0	0	0	0
2017/11/21 17:12:00	BASE	1.31	8	2.42	21	-0.1	85	-2.4	789	1515	988.4	NA	0.0000		9999	0	0	0	0
2017/11/21 17:13:00	BASE	1.35	4	2.42	21	-0.2	85	-2.4	788	1515	988.4	NA	0.0000		9999	0	0	0	0
2017/11/21 17:14:00	BASE	1.33	343	2.42	21	-0.1	86	-2.2	787	1515	988.4	NA	0.0000		9999	0	0	0	0
2017/11/21 17:15:00	BASE	0.90	320	2.42	21	0.1	86	-2.0	786	1515	988.4	NA	0.0000		9999	0	0	0	0
2017/11/21 17:16:00	BASE	0.45	315	2.42	21	0.3	85	-1.9	787	1515	988.5	NA	0.0000		9999	0	0	0	0
2017/11/21 17:17:00	BASE	0.20	324	2.26	21	0.4	85	-1.8	787	1515	988.4	NA	0.0000		9999	0	0	0	0
2017/11/21 17:18:00	BASE	0.52	340	2.06	353	0.5	84	-1.8	787	1515	988.4	NA	0.0000		9999	0	0	0	0
2017/11/21 17:19:00	BASE	0.70	360	2.06	353	0.5	84	-1.9	786	1515	988.4	NA	0.0000		9999	0	0	0	0
2017/11/21 17:20:00	BASE	0.94	14	2.06	353	0.4	83	-2.1	785	1514	988.5	NA	0.0000		9999	0	0	0	0
2017/11/21 17:21:00	BASE	1.26	23	2.06	353	0.4	83	-2.1	783	1515	988.5	NA	0.0000		9999	0	0	0	0
2017/11/21 17:22:00	BASE	0.60	36	2.06	353	0.4	83	-2.2	780	1514	988.5	NA	0.0000		9999	0	0	0	0
2017/11/21 17:23:00	BASE	0.54	48	1.75	18	0.4	82	-2.3	782	1515	988.5	NA	0.0000		9999	0	0	0	0
2017/11/21 17:24:00	BASE	1.33	32	2.42	15	0.4	82	-2.3	781	1515	988.5	NA	0.0000		9999	0	0	0	0
2017/11/21 17:25:00	BASE	1.67	18	2.42	15	0.5	82	-2.2	779	1514	988.5	NA	0.0000		9999	0	0	0	0
2017/11/21 17:26:00	BASE	1.72	23	2.42	15	0.6	81	-2.2	778	1515	988.5	NA	0.0000		9999	0	0	0	0
2017/11/21 17:27:00	BASE	0.97	37	2.42	15	0.6	81	-2.3	777	1514	988.5	NA	0.0000		9999	0	0	0	0
2017/11/21 17:28:00	BASE	0.14	34	2.42	15	0.6	81	-2.4	774	1515	988.4	NA	0.0000		9999	0	0	0	0
2017/11/21 17:29:00	BASE	0.00	287	2.42	15	0.5	80	-2.5	774	1514	988.4	NA	0.0000		9999	0	0	0	0
2017/11/21 17:30:00	BASE	0.15	237	2.42	15	0.3	80	-2.8	774	1515	988.4	NA	0.0000		9999	0	0	0	0
2017/11/21 17:31:00	BASE	0.59	222	2.42	15	0.2	80	-2.9	774	1515	988.4	NA	0.0000		9999	0	0	0	0
2017/11/21 17:32:00	BASE	0.91	220	2.42	15	0.2	79	-2.9	773	1515	988.4	NA	0.0000		9999	0	0	0	0
2017/11/21 17:33:00	BASE	0.91	219	2.42	15	0.2	79	-3.0	772	1514	988.4	NA	0.0000		9999	0	0	0	0
2017/11/21 17:34:00	BASE	0.93	218	2.06	33	0.2	79	-3.1	772	1515	988.4	NA	0.0000		9999	0	0	0	0
2017/11/21 17:35:00	BASE	1.18	234	2.06	33	0.2	78	-3.1	769	1515	988.4	NA	0.0000		9999	0	0	0	0
2017/11/21 17:36:00	BASE	1.43	260	1.95	259	0.2	79	-3.1	767	1514	988.4	NA	0.0000		9999	0	0	0	0
2017/11/21 17:37:00	BASE	1.54	268	1.95	259	0.3	79	-3.0	767	1514	988.4	NA	0.0000		9999	0	0	0	0
2017/11/21 17:38:00	BASE	1.48	258	1.95	263	0.3	79	-2.9	766	1514	988.4	NA	0.0000		9999	0	0	0	0
2017/11/21 17:39:00	BASE	1.46	252	2.31	257	0.3	80	-2.8	765	1515	988.4	NA	0.0000		9999	0	0	0	0
2017/11/21 17:40:00	BASE	1.84	255	2.42	223	0.4	80	-2.6	764	1515	988.4	NA	0.0000		9999	0	0	0	0
2017/11/21 17:41:00	BASE	2.01	256	2.42	223	0.5	80	-2.6	762	1515	988.4	NA	0.0000		9999	0	0	0	0
2017/11/21 17:42:00	BASE	1.95	254	2.42	256	0.4	80	-2.6	762	1515	988.4	NA	0.0000		9999	0	0	0	0
2017/11/21 17:43:00	BASE	2.09	250	2.42	256	0.4	80	-2.7	762	1515	988.4	NA	0.0000		9999	0	0	0	0
2017/11/21 17:44:00	BASE	2.02	259	2.42	256	0.3	79	-2.8	760	1515	988.4	NA	0.0000		9999	0	0	0	0
2017/11/21 17:45:00	BASE	1.79	266	2.42	256	0.3	79	-2.9	757	1514	988.4	NA	0.0000		9999	0	0	0	0
2017/11/21 17:46:00	BASE	1.72	263	2.42	256	0.3	79	-2.9	759	1515	988.4	NA	0.0000		9999	0	0	0	0
2017/11/21 17:47:00	BASE	1.76	265	2.42	256	0.2	79	-3.0	759	1514	988.4	NA	0.0000		9999	0	0	0	0
2017/11/21 17:48:00	BASE	1.83	275	2.42	256	0.2	80	-2.9	758	1515	988.4	NA	0.0000		9999	0	0	0	0
2017/11/21 17:49:00	BASE	1.90	284	2.42	256	0.3	79	-2.9	757	1515	988.4	NA	0.0000		9999	0	0	0	0
2017/11/21 17:50:00	BASE	1.90	285	2.42	256	0.3	79	-2.9	756	1514	988.4	NA	0.0000		9999	0	0	0	0
2017/11/21 17:51:00	BASE	1.88	282	2.42	256	0.4	79	-2.8	755	1514	988.4	NA	0.0000		9999	0	0	0	0
2017/11/21 17:52:00	BASE	1.89	277	2.31	274	0.6	78	-2.8	754	1515	988.4	NA	0.0000		9999	0	0	0	0
2017/11/21 17:53:00	BASE	1.85	276	2.31	274	0.7	77	-2.9	753	1515	988.5	NA	0.0000		9999	0	0	0	0
2017/11/21 17:54:00	BASE	1.76	277	2.31	274	0.7	77	-2.9	752	1514	988.5	NA	0.0000		9999	0	0	0	0
2017/11/21 17:55:00	BASE	1.52	281	2.31	274	0.6	77	-3.0	752	1514	988.5	NA	0.0000		9999	0	0	0	0
2017/11/21 17:56:00	BASE	1.50	285	2.31	274	0.7	77	-3.0	752	1515	988.5	NA	0.0000		9999	0	0	0	0
2017/11/21 17:57:00	BASE	1.83	279	2.31	274	0.6	77	-3.0	750	1514	988.5	NA	0.0000		9999	0	0	0	0
2017/11/21 17:58:00	BASE	1.88	273	2.31	274	0.5	77	-3.1	747	1515	988.5	NA	0.0000		9999	0	0	0	0
2017/11/21 17:59:00	BASE	1.76	274	2.31	274	0.5	77	-3.1	747	1514	988.5	NA	0.0000		9999	0	0	0	0
2017/11/21 18:00:00	BASE	1.84	280	2.31	293	0.6	77	-3.0	747	1515	988.5	NA	0.0000		9999	0	0	0	0
2017/11/21 18:01:00	BASE	1.84	283	2.31	293	0.5	77	-3.2	745	1515	988.5	NA	0.0000		9999	0	0	0	0
2017/11/21 18:02:00	BASE	1.90	281	2.31	263	0.5	77	-3.1	743	1515	988.5	NA	0.0000		9999	0	0	0	0
2017/11/21 18:03:00	BASE	1.99	280	2.31	289	0.6	77	-2.9	742	1515	988.5	NA	0.0000		9999	0	0	0	0
2017/11/21 18:04:00	BASE	1.97	280	2.31	286	0.7	77	-2.9	742	1514	988.5	NA	0.0000		9999	0	0	0	0
2017/11/21 18:05:00	BASE	1.95	279	2.31	286	0.7	77	-2.9	739	1515	988.5	NA	0.0000		9999	0	0	0	0
2017/11/21 18:06:00	BASE	1.87	277	2.31	286	0.8	76	-2.9	739	1514	988.5	NA	0.0000		9999	0	0	0	0
2017/11/21 18:07:00	BASE	1.84	278	2.31	286	0.8	76	-3.0	738	1515	988.6	NA	0.0000		9999	0	0	0	0
2017/11/21 18:08:00	BASE	2.00	277	2.31	286	0.9	76	-3.0	736	1515	988.7	NA	0.0000		9999	0	0	0	0
2017/11/21 18:09:00	BASE	2.31	275	2.93	279	0.9	75	-3.0	737	1515	988.6	NA	0.0000		9999	0	0	0	0
2017/11/21 18:10:00	BASE	2.61	275	3.09	281	1.0	75	-3.0	734	1514	988.6	NA	0.0000		9999	0	0	0	0
2017/11/21 18:11:00	BASE	2.92	277	3.34	273	1.0	75	-2.9	732	1515	988.6	NA	0.0000		9999	0	0	0	0
2017/11/21 18:12:00	BASE	3.04	279	3.40	264	1.0	76	-2.8	731	1515	988.6	NA	0.0000		9999	0	0	0	0
2017/11/21 18:13:00	BASE	3.09	280	3.91	280	0.9	76	-2.8	729	1515	988.5	NA	0.0000		9999	0	0	0	0
2017/11/21 18:14:00	BASE	3.49	276	4.27	281	0.9	77	-2.6	728	1515	988.6	NA	0.0000		9999	0	0	0	0
2017/11/21 18:15:00	BASE	3.44	279	4.27	281	1.0	78	-2.4	726	1514	988.6	NA	0.0000		9999	0	0	0	0
2017/11/21 18:16:00	BASE	3.06	281	4.27	281	1.0	78	-2.4	725	1514	988.6	NA	0.0000		9999	0	0	0	0
2017/11/21 18:17:00	BASE	3.12	282	4.27	281	1.1	79	-2.2	724	1515	988.7	NA	0.0000		9999	0	0	0	0
2017/11/21 18:18:00	BASE	3.43	281	4.27	281	1.1	79	-2.1	723	1515	988.7	NA	0.0000		9999	0	0	0	0
2017/11/21 18:19:00	BASE	3.56	278	4.27	281	1.1	79	-2.1	721	1515	988.7	NA	0.0000		9999	0	0	0	0
2017/11/21 18:20:00	BASE	3.51	280	4.27	281	1.1	79	-2.2	720	1515	988.7	NA	0.0000		9999	0	0	0	0
2017/11/21 18:21:00	BASE	3.58	283	4.27	281	1.1	79	-2.2	719	1514	988.7	NA	0.0000		9999	0	0	0	0
2017/11/21 18:22:00	BASE	3.54	283	4.27	281	1.1	78	-2.2	718	1514	988.7	NA	0.0000		9999	0	0	0	0
2017/11/21 18:23:00	BASE	3.73	288	4.27	281	1.1	78	-2.3	715	1514	988.7	NA	0.0000		9999	0	0	0	0
2017/11/21 18:24:00	BASE	3.89	289	4.12	287	1.0	78	-2.3	716	1514	988.7	NA	0.0000		9999	0	0	0	0
2017/11/21 18:25:00	BASE	3.89	284	4.27	278	1.0	79	-2.3	713	1511	988.7	NA	0.0000		9999	0	0	0	0
2017/11/21 18:26:00	BASE	3.84	285	4.27	278	1.0	78	-2.4	712	1509	988.7	NA	0.0000		9999	0	0	0	0
2017/11/21 18:27:00	BASE	3.72	290	4.27	278	0.9	78	-2.4	711	1507	988.7	NA	0.0000		9999	0	0	0	0
2017/11/21 18:28:00	BASE	3.50	290	4.27	278	0.8	79	-2.4	710	1502	988.7	NA	0.0000		9999	0	0	0	0
2017/11/21 18:29:00	BASE	3.04	290	4.27	278	0.9	79	-2.3	708	1501	988.7	NA	0.0000		9999	0	0	0	0
2017/11/21 18:30:00	BASE	3.04	292	4.27	278	0.9	79	-2.3	707	1497	988.7	NA	0.0000		9999	0	0	0	0
2017/11/21 18:31:00	BASE	2.95	291	4.27	278	0.8	79	-2.4	705	1495	988.7	NA	0.0000		9999	0	0	0	0
2017/11/21 18:32:00	BASE	2.46	295	4.27	278	0.9	80	-2.3	704	1492	988.7	NA	0.0000		9999	0	0	0	0
2017/11/21 18:33:00	BASE	2.31	300	4.27	278	0.9	79	-2.3	703	1488	988.7	NA	0.0000		9999	0	0	0	0
2017/11/21 18:34:00	BASE	2.46	299	4.27	278	0.7	79	-2.5	702	1486	988.7	NA	0.0000		9999	0	0	0	0
2017/11/21 18:35:00	BASE	2.52	299	4.12	290	0.6	79	-2.6	700	1481	988.7	NA	0.0000		9999	0	0	0	0
2017/11/21 18:36:00	BASE	2.37	289	4.12	290	0.6	79	-2.5	699	1480	988.7	NA	0.0000		9999	0	0	0	0
2017/11/21 18:37:00	BASE	2.12	289	3.76	286	0.6	79	-2.6	700	1478	988.7	NA	0.0000		9999	0	0	0	0
2017/11/21 18:38:00	BASE	1.96	311	3.55	294	0.6	79	-2.6	698	1474	988.7	NA	0.0000		9999	0	0	0	0
2017/11/21 18:39:00	BASE	2.05	327	3.55	294	0.6	80	-2.5	696	1473	988.7	NA	0.0000		9999	0	0	0	0
2017/11/21 18:40:00	BASE	2.26	330	3.19	289	0.6	80	-2.4	694	1468	988.7	NA	0.0000		9999	0	0	0	0
2017/11/21 18:41:00	BASE	2.26	331	3.09	301	0.6	80	-2.4	693	1465	988.7	NA	0.0000		9999	0	0	0	0
2017/11/21 18:42:00	BASE	1.93	336	3.09	301	0.6	81	-2.3	692	1462	988.7	NA	0.0000		9999	0	0	0	0
2017/11/21 18:43:00	BASE	1.87	345	3.09	301	0.6	80	-2.4	690	1460	988.7	NA	0.0000		9999	0	0	0	0
2017/11/21 18:44:00	BASE	2.01	352	3.09	301	0.6	80	-2.4	688	1457	988.7	NA	0.0000		9999	0	0	0	0
2017/11/21 18:45:01	BASE	1.95	354	2.83	280	0.6	80	-2.4	686	1455	988.7	NA	0.0000		9999	0	0	0	0
2017/11/21 18:46:00	BASE	1.92	352	2.68	332	0.8	80	-2.3	686	1451	988.6	NA	0.0000		9999	0	0	0	0
2017/11/21 18:47:00	BASE	1.98	344	2.68	332	0.7	80	-2.4	684	1449	988.6	NA	0.0000		9999	0	0	0	0
2017/11/21 18:48:00	BASE	2.05	336	2.68	332	0.7	80	-2.3	684	1448	988.6	NA	0.0000		9999	0	0	0	0
2017/11/21 18:49:00	BASE	2.20	336	2.68	332	0.6	80	-2.4	682	1445	988.6	NA	0.0000		9999	0	0	0	0
2017/11/21 18:50:00	BASE	2.32	340	2.68	340	0.6	81	-2.4	681	1442	988.5	NA	0.0000		9999	0	0	0	0
2017/11/21 18:51:00	BASE	2.26	339	2.68	340	0.5	81	-2.5	679	1438	988.5	NA	0.0000		9999	0	0	0	0
2017/11/21 18:52:00	BASE	2.09	334	2.68	340	0.4	81	-2.5	677	1434	988.6	NA	0.0000		9999	0	0	0	0
2017/11/21 18:53:00	BASE	1.97	330	2.68	340	0.3	81	-2.5	676	1433	988.6	NA	0.0000		9999	0	0	0	0
2017/11/21 18:54:00	BASE	2.02	322	2.68	340	0.3	81	-2.5	676	1432	988.7	NA	0.0000		9999	0	0	0	0
2017/11/21 18:55:00	BASE	2.07	317	2.68	340	0.4	82	-2.4	673	1425	988.7	NA	0.0000		9999	0	0	0	0
2017/11/21 18:56:00	BASE	2.06	321	2.68	340	0.4	82	-2.4	672	1421	988.7	NA	0.0000		9999	0	0	0	0
2017/11/21 18:57:00	BASE	2.15	324	2.68	340	0.5	82	-2.3	671	1419	988.7	NA	0.0000		9999	0	0	0	0
2017/11/21 18:58:00	BASE	2.19	327	2.68	340	0.5	82	-2.3	667	1412	988.7	NA	0.0000		9999	0	0	0	0
2017/11/21 18:59:00	BASE	2.02	330	2.68	340	0.5	82	-2.2	666	1412	988.7	NA	0.0000		9999	0	0	0	0
2017/11/21 19:00:00	BASE	1.75	332	2.52	324	0.5	81	-2.3	665	1409	988.7	NA	0.0000		9999	0	0	0	0
2017/11/21 19:01:00	BASE	1.58	336	2.42	327	0.5	81	-2.3	664	1406	988.7	NA	0.0000		9999	0	0	0	0
2017/11/21 19:02:00	BASE	1.46	337	2.42	327	0.5	81	-2.4	663	1403	988.7	NA	0.0000		9999	0	0	0	0
2017/11/21 19:03:00	BASE	1.34	335	2.42	327	0.5	80	-2.5	662	1400	988.7	NA	0.0000		9999	0	0	0	0
2017/11/21 19:04:00	BASE	1.28	338	2.42	327	0.5	80	-2.6	660	1396	988.7	NA	0.0000		9999	0	0	0	0
2017/11/21 19:05:00	BASE	1.13	331	2.42	327	0.6	80	-2.5	659	1393	988.7	NA	0.0000		9999	0	0	0	0
2017/11/21 19:06:00	BASE	1.21	316	2.42	327	0.7	80	-2.4	657	1389	988.7	NA	0.0000		9999	0	0	0	0
2017/11/21 19:07:00	BASE	1.35	306	2.31	331	0.8	79	-2.4	655	1386	988.7	NA	0.0000		9999	0	0	0	0
2017/11/21 19:08:00	BASE	1.49	307	2.06	322	0.9	79	-2.3	653	1383	988.7	NA	0.0000		9999	0	0	0	0
2017/11/21 19:09:00	BASE	1.75	308	2.16	296	1.0	79	-2.3	652	1382	988.7	NA	0.0000		9999	0	0	0	0
2017/11/21 19:10:00	BASE	2.00	296	2.42	290	1.0	78	-2.4	651	1379	988.7	NA	0.0000		9999	0	0	0	0
2017/11/21 19:11:00	BASE	2.19	290	2.62	294	0.9	77	-2.6	649	1376	988.7	NA	0.0000		9999	0	0	0	0
2017/11/21 19:12:00	BASE	2.33	293	2.68	296	1.0	77	-2.5	647	1370	988.7	NA	0.0000		9999	0	0	0	0
2017/11/21 19:13:00	BASE	2.42	292	2.68	296	1.0	77	-2.6	646	1370	988.7	NA	0.0000		9999	0	0	0	0
2017/11/21 19:14:00	BASE	2.21	289	2.68	296	1.0	77	-2.5	646	1370	988.7	NA	0.0000		9999	0	0	0	0
2017/11/21 19:15:00	BASE	1.76	290	2.68	296	1.1	78	-2.4	642	1363	988.7	NA	0.0000		9999	0	0	0	0
2017/11/21 19:16:00	BASE	1.83	280	2.68	296	1.1	78	-2.3	642	1359	988.7	NA	0.0000		9999	0	0	0	0
2017/11/21 19:17:00	BASE	2.00	255	2.68	296	1.0	78	-2.3	639	1355	988.7	NA	0.0000		9999	0	0	0	0
2017/11/21 19:18:00	BASE	1.88	238	2.68	296	0.9	79	-2.4	637	1353	988.7	NA	0.0000		9999	0	0	0	0
2017/11/21 19:19:00	BASE	1.89	234	2.68	296	0.7	80	-2.4	637	1350	988.7	NA	0.0000		9999	0	0	0	0
2017/11/21 19:20:00	BASE	1.58	237	2.68	296	0.5	80	-2.5	635	1344	988.7	NA	0.0000		9999	0	0	0	0
2017/11/21 19:21:00	BASE	1.30	254	2.68	296	0.4	81	-2.5	634	1342	988.7	NA	0.0000		9999	0	0	0	0
2017/11/21 19:22:00	BASE	1.61	271	2.62	291	0.3	82	-2.4	632	1337	988.7	NA	0.0000		9999	0	0	0	0
2017/11/21 19:23:00	BASE	1.99	273	2.52	288	0.4	82	-2.3	629	1335	988.7	NA	0.0000		9999	0	0	0	0
2017/11/21 19:24:00	BASE	2.11	283	2.52	293	0.4	83	-2.1	627	1331	988.7	NA	0.0000		9999	0	0	0	0
2017/11/21 19:25:00	BASE	1.98	290	2.52	293	0.6	83	-2.0	625	1327	988.7	NA	0.0000		9999	0	0	0	0
2017/11/21 19:26:00	BASE	1.74	288	2.52	293	0.7	83	-1.9	625	1323	988.7	NA	0.0000		9999	0	0	0	0
2017/11/21 19:27:00	BASE	1.33	294	2.52	293	0.8	82	-1.9	622	1323	988.7	NA	0.0000		9999	0	0	0	0
2017/11/21 19:28:00	BASE	0.80	301	2.52	293	0.9	82	-1.8	621	1317	988.7	NA	0.0000		9999	0	0	0	0
2017/11/21 19:29:00	BASE	0.28	312	2.52	293	1.1	82	-1.7	619	1315	988.7	NA	0.0000		9999	0	0	0	0
2017/11/21 19:30:00	BASE	0.30	314	2.52	293	1.1	81	-1.8	617	1310	988.7	NA	0.0000		9999	0	0	0	0
2017/11/21 19:31:00	BASE	0.34	313	2.52	293	1.1	80	-1.9	615	1306	988.6	NA	0.0000		9999	0	0	0	0
2017/11/21 19:32:00	BASE	0.14	310	2.52	293	1.1	80	-2.0	614	1303	988.6	NA	0.0000		9999	0	0	0	0
2017/11/21 19:33:00	BASE	0.57	293	2.52	293	1.0	79	-2.1	613	1299	988.7	NA	0.0000		9999	0	0	0	0
2017/11/21 19:34:00	BASE	0.74	285	2.21	297	0.9	79	-2.3	611	1297	988.7	NA	0.0000		9999	0	0	0	0
2017/11/21 19:35:00	BASE	0.26	281	1.85	289	0.9	79	-2.3	609	1291	988.7	NA	0.0000		9999	0	0	0	0
2017/11/21 19:36:00	BASE	0.22	271	1.54	285	0.8	79	-2.4	608	1288	988.7	NA	0.0000		9999	0	0	0	0
2017/11/21 19:37:00	BASE	0.22	263	1.54	285	0.7	79	-2.5	605	1283	988.7	NA	0.0000		9999	0	0	0	0
2017/11/21 19:38:00	BASE	0.00	256	1.54	285	0.6	80	-2.5	604	1280	988.7	NA	0.0000		9999	0	0	0	0
2017/11/21 19:39:00	BASE	0.40	256	1.54	285	0.5	80	-2.5	603	1277	988.6	NA	0.0000		9999	0	0	0	0
2017/11/21 19:40:00	BASE	0.77	274	1.54	285	0.5	80	-2.6	601	1273	988.6	NA	0.0000		9999	0	0	0	0
2017/11/21 19:41:00	BASE	0.90	287	1.54	285	0.5	80	-2.5	598	1268	988.6	NA	0.0000		9999	0	0	0	0
2017/11/21 19:42:00	BASE	0.76	294	1.54	285	0.5	80	-2.5	598	1266	988.7	NA	0.0000		9999	0	0	0	0
2017/11/21 19:43:00	BASE	0.42	294	1.39	278	0.5	80	-2.5	596	1264	988.7	NA	0.0000		9999	0	0	0	0
2017/11/21 19:44:00	BASE	0.33	292	1.39	278	0.6	80	-2.4	595	1259	988.7	NA	0.0000		9999	0	0	0	0
2017/11/21 19:45:00	BASE	0.43	293	1.39	278	0.7	80	-2.3	593	1256	988.7	NA	0.0000		9999	0	0	0	0
2017/11/21 19:46:00	BASE	0.78	293	1.65	286	0.7	80	-2.3	592	1253	988.7	NA	0.0000		9999	0	0	0	0
2017/11/21 19:47:00	BASE	1.04	303	1.65	286	0.8	80	-2.3	590	1248	988.7	NA	0.0000		9999	0	0	0	0
2017/11/21 19:48:00	BASE	1.29	306	1.65	298	0.8	80	-2.3	588	1245	988.7	NA	0.0000		9999	0	0	0	0
2017/11/21 19:49:00	BASE	1.38	306	1.65	298	0.8	80	-2.2	585	1241	988.7	NA	0.0000		9999	0	0	0	0
2017/11/21 19:50:00	BASE	1.18	308	1.65	298	0.8	80	-2.3	582	1238	988.7	NA	0.0000		9999	0	0	0	0
2017/11/21 19:51:00	BASE	1.11	313	1.65	298	0.8	80	-2.2	581	1231	988.6	NA	0.0000		9999	0	0	0	0
2017/11/21 19:52:00	BASE	0.61	324	1.65	298	1.0	80	-2.0	580	1230	988.6	NA	0.0000		9999	0	0	0	0
2017/11/21 19:53:00	BASE	0.24	321	1.65	298	1.0	80	-2.0	578	1226	988.7	NA	0.0000		9999	0	0	0	0
2017/11/21 19:54:00	BASE	0.81	320	1.65	298	1.1	80	-2.0	576	1222	988.7	NA	0.0000		9999	0	0	0	0
2017/11/21 19:55:00	BASE	1.22	321	1.65	298	1.1	80	-2.0	575	1218	988.7	NA	0.0000		9999	0	0	0	0
2017/11/21 19:56:00	BASE	1.26	319	1.65	325	1.1	80	-2.0	572	1214	988.6	NA	0.0000		9999	0	0	0	0
2017/11/21 19:57:00	BASE	1.26	324	1.65	325	1.0	80	-2.1	570	1209	988.7	NA	0.0000		9999	0	0	0	0
2017/11/21 19:58:00	BASE	1.15	326	1.65	325	1.1	80	-2.0	569	1207	988.7	NA	0.0000		9999	0	0	0	0
2017/11/21 19:59:00	BASE	1.36	310	1.85	300	1.1	80	-1.9	567	1203	988.7	NA	0.0000		9999	0	0	0	0
2017/11/21 20:00:00	BASE	1.70	298	2.01	297	1.1	80	-1.9	566	1198	988.7	NA	0.0000		9999	0	0	0	0
2017/11/21 20:01:00	BASE	1.81	297	2.16	300	1.1	80	-2.0	564	1195	988.7	NA	0.0000		9999	0	0	0	0
2017/11/21 20:02:00	BASE	1.75	297	2.16	300	1.0	80	-2.1	562	1192	988.7	NA	0.0000		9999	0	0	0	0
2017/11/21 20:03:00	BASE	1.58	295	2.16	300	0.9	80	-2.1	559	1187	988.7	NA	0.0000		9999	0	0	0	0
2017/11/21 20:04:00	BASE	1.27	292	2.16	300	0.9	80	-2.2	558	1183	988.7	NA	0.0000		9999	0	0	0	0
2017/11/21 20:05:00	BASE	0.77	293	2.16	300	0.9	80	-2.1	556	1179	988.7	NA	0.0000		9999	0	0	0	0
2017/11/21 20:06:00	BASE	0.98	297	2.16	300	0.9	80	-2.1	555	1174	988.7	NA	0.0000		9999	0	0	0	0
2017/11/21 20:07:00	BASE	1.44	301	2.16	300	0.9	79	-2.2	554	1172	988.7	NA	0.0000		9999	0	0	0	0
2017/11/21 20:08:00	BASE	1.23	302	2.16	300	0.9	79	-2.3	551	1168	988.7	NA	0.0000		9999	0	0	0	0
2017/11/21 20:09:00	BASE	1.00	296	2.16	300	0.9	79	-2.4	550	1164	988.7	NA	0.0000		9999	0	0	0	0
2017/11/21 20:10:00	BASE	1.19	288	2.16	300	0.9	79	-2.4	546	1159	988.7	NA	0.0000		9999	0	0	0	0
2017/11/21 20:11:00	BASE	1.49	281	2.01	294	0.9	79	-2.4	544	1156	988.7	NA	0.0000		9999	0	0	0	0
2017/11/21 20:12:00	BASE	1.55	281	1.80	280	0.9	79	-2.2	543	1152	988.7	NA	0.0000		9999	0	0	0	0
2017/11/21 20:13:00	BASE	1.57	285	1.95	310	0.9	79	-2.2	541	1148	988.7	NA	0.0000		9999	0	0	0	0
2017/11/21 20:14:00	BASE	1.53	290	1.95	310	1.0	80	-2.2	539	1143	988.7	NA	0.0000		9999	0	0	0	0
2017/11/21 20:15:00	BASE	1.70	297	2.21	299	0.9	79	-2.2	537	1139	988.7	NA	0.0000		9999	0	0	0	0
2017/11/21 20:16:00	BASE	2.01	304	2.31	305	0.9	80	-2.2	535	1136	988.7	NA	0.0000		9999	0	0	0	0
2017/11/21 20:17:00	BASE	2.17	307	2.42	305	0.9	80	-2.2	534	1131	988.7	NA	0.0000		9999	0	0	0	0
2017/11/21 20:18:00	BASE	2.07	302	2.42	305	0.9	80	-2.1	532	1126	988.7	NA	0.0000		9999	0	0	0	0
2017/11/21 20:19:00	BASE	1.93	298	2.42	305	0.9	80	-2.1	528	1119	988.7	NA	0.0000		9999	0	0	0	0
2017/11/21 20:20:00	BASE	1.89	301	2.42	305	0.9	80	-2.1	526	1113	988.7	NA	0.0000		9999	0	0	0	0
2017/11/21 20:21:00	BASE	1.78	306	2.42	305	0.9	80	-2.1	523	1102	988.7	NA	0.0000		9999	0	0	0	0
2017/11/21 20:22:00	BASE	1.73	316	2.42	305	0.9	81	-2.0	511	942	988.7	NA	0.0000		9999	0	0	0	0
2017/11/21 20:23:00	BASE	1.70	321	2.42	305	0.9	81	-2.0	400	741	988.7	NA	0.0000		9999	0	0	0	0
2017/11/21 20:24:00	BASE	1.77	319	2.42	305	0.8	81	-2.0	370	756	988.7	NA	0.0000		9999	0	0	0	0
2017/11/21 20:25:00	BASE	2.03	318	2.42	321	0.9	82	-1.9	375	836	988.7	NA	0.0000		9999	0	0	0	0
2017/11/21 20:26:00	BASE	2.12	318	2.42	321	0.9	82	-1.8	404	998	988.7	NA	0.0000		9999	0	0	0	0
2017/11/21 20:27:00	BASE	2.03	319	2.42	321	0.9	82	-1.8	509	1089	988.7	NA	0.0000		9999	0	0	0	0
2017/11/21 20:28:00	BASE	1.88	316	2.42	321	0.9	82	-1.7	513	1083	988.7	NA	0.0000		9999	0	0	0	0
2017/11/21 20:29:00	BASE	1.86	305	2.42	321	1.0	82	-1.7	511	1080	988.7	NA	0.0000		9999	0	0	0	0
2017/11/21 20:30:00	BASE	1.93	300	2.42	321	0.9	82	-1.7	508	1076	988.7	NA	0.0000		9999	0	0	0	0
2017/11/21 20:31:00	BASE	1.81	314	2.42	321	1.0	82	-1.6	507	1071	988.7	NA	0.0000		9999	0	0	0	0
2017/11/21 20:32:00	BASE	1.73	322	2.42	321	1.0	82	-1.7	505	1066	988.7	NA	0.0000		9999	0	0	0	0
2017/11/21 20:33:00	BASE	1.61	313	2.42	321	1.1	82	-1.6	503	1062	988.7	NA	0.0000		9999	0	0	0	0
2017/11/21 20:34:00	BASE	1.86	300	2.57	289	1.1	82	-1.7	501	1059	988.7	NA	0.0000		9999	0	0	0	0
2017/11/21 20:35:00	BASE	2.20	290	2.57	289	1.1	82	-1.6	498	1054	988.7	NA	0.0000		9999	0	0	0	0
2017/11/21 20:36:00	BASE	2.35	287	3.04	293	1.1	82	-1.7	497	1050	988.7	NA	0.0000		9999	0	0	0	0
2017/11/21 20:37:00	BASE	2.56	288	3.04	293	1.1	82	-1.7	495	1045	988.7	NA	0.0000		9999	0	0	0	0
2017/11/21 20:38:00	BASE	2.46	286	3.04	293	1.1	81	-1.8	493	1042	988.7	NA	0.0000		9999	0	0	0	0
2017/11/21 20:39:00	BASE	2.43	284	3.04	293	1.1	81	-1.7	491	1037	988.7	NA	0.0000		9999	0	0	0	0
2017/11/21 20:40:00	BASE	2.56	282	3.04	293	1.2	81	-1.7	488	1033	988.7	NA	0.0000		9999	0	0	0	0
2017/11/21 20:41:00	BASE	2.69	281	3.04	293	1.1	81	-1.8	486	1029	988.7	NA	0.0000		9999	0	0	0	0
2017/11/21 20:42:00	BASE	2.82	281	3.19	283	1.2	81	-1.7	484	1024	988.7	NA	0.0000		9999	0	0	0	0
2017/11/21 20:43:00	BASE	3.02	283	3.40	286	1.2	80	-1.8	482	1020	988.7	NA	0.0000		9999	0	0	0	0
2017/11/21 20:44:00	BASE	3.33	286	3.65	286	1.1	80	-1.9	480	1016	988.7	NA	0.0000		9999	0	0	0	0
2017/11/21 20:45:00	BASE	3.44	287	3.70	286	1.1	80	-1.9	478	1012	988.7	NA	0.0000		9999	0	0	0	0
2017/11/21 20:46:00	BASE	3.32	285	3.70	286	1.1	80	-1.9	475	1007	988.7	NA	0.0000		9999	0	0	0	0
2017/11/21 20:47:00	BASE	3.06	281	3.70	286	1.1	81	-1.9	474	1003	988.7	NA	0.0000		9999	0	0	0	0
2017/11/21 20:48:00	BASE	2.91	280	3.70	286	1.1	81	-1.9	471	998	988.7	NA	0.0000		9999	0	0	0	0
2017/11/21 20:49:00	BASE	2.96	280	3.70	286	1.1	81	-1.8	470	994	988.7	NA	0.0000		9999	0	0	0	0
2017/11/21 20:50:00	BASE	3.04	280	3.70	286	1.2	81	-1.8	468	990	988.7	NA	0.0000		9999	0	0	0	0
2017/11/21 20:51:00	BASE	3.12	279	3.70	286	1.2	81	-1.7	466	985	988.7	NA	0.0000		9999	0	0	0	0
2017/11/21 20:52:00	BASE	3.07	280	3.70	286	1.2	81	-1.7	464	981	988.7	NA	0.0000		9999	0	0	0	0
2017/11/21 20:53:00	BASE	3.15	280	3.70	286	1.3	81	-1.6	461	977	988.7	NA	0.0000		9999	0	0	0	0
2017/11/21 20:54:00	BASE	3.39	281	3.70	286	1.3	81	-1.6	460	973	988.7	NA	0.0000		9999	0	0	0	0
2017/11/21 20:55:00	BASE	3.35	283	3.60	282	1.3	81	-1.6	458	968	988.7	NA	0.0000		9999	0	0	0	0
2017/11/21 20:56:00	BASE	3.21	285	3.60	282	1.2	81	-1.7	455	964	988.7	NA	0.0000		9999	0	0	0	0
2017/11/21 20:57:00	BASE	3.09	287	3.60	282	1.2	81	-1.8	454	961	988.7	NA	0.0000		9999	0	0	0	0
2017/11/21 20:58:00	BASE	2.88	290	3.60	282	1.1	81	-1.8	450	955	988.7	NA	0.0000		9999	0	0	0	0
2017/11/21 20:59:00	BASE	2.78	293	3.60	282	1.0	81	-1.9	448	950	988.7	NA	0.0000		9999	0	0	0	0
2017/11/21 21:00:00	BASE	2.78	291	3.60	282	0.9	82	-1.9	447	945	988.7	NA	0.0000		9999	0	0	0	0
2017/11/21 21:01:00	BASE	2.79	288	3.60	282	0.9	82	-1.8	444	940	988.7	NA	0.0000		9999	0	0	0	0
2017/11/21 21:02:00	BASE	2.79	287	3.60	282	0.9	83	-1.7	442	937	988.8	NA	0.0000		9999	0	0	0	0
2017/11/21 21:03:00	BASE	2.97	286	3.60	282	0.9	83	-1.7	440	932	988.8	NA	0.0000		9999	0	0	0	0
2017/11/21 21:04:00	BASE	3.06	289	3.55	285	0.9	84	-1.5	438	928	988.8	NA	0.0000		9999	0	0	0	0
2017/11/21 21:05:00	BASE	2.89	290	3.55	285	0.9	84	-1.5	436	923	988.8	NA	0.0000		9999	0	0	0	0
2017/11/21 21:06:00	BASE	2.67	291	3.34	282	0.9	84	-1.4	433	918	988.9	NA	0.0000		9999	0	0	0	0
2017/11/21 21:07:00	BASE	2.51	292	3.34	282	0.9	84	-1.4	430	913	988.9	NA	0.0000		9999	0	0	0	0
2017/11/21 21:08:00	BASE	2.38	290	3.34	282	1.0	84	-1.4	429	910	988.9	NA	0.0000		9999	0	0	0	0
2017/11/21 21:09:00	BASE	2.27	289	3.34	282	1.1	84	-1.2	427	906	988.9	NA	0.0000		9999	0	0	0	0
2017/11/21 21:10:00	BASE	2.45	289	3.34	282	1.2	84	-1.2	426	901	988.9	NA	0.0000		9999	0	0	0	0
2017/11/21 21:11:00	BASE	2.47	290	3.34	282	1.1	84	-1.4	423	897	988.9	NA	0.0000		9999	0	0	0	0
2017/11/21 21:12:00	BASE	2.30	293	3.34	282	1.0	83	-1.5	420	891	988.9	NA	0.0000		9999	0	0	0	0
2017/11/21 21:13:00	BASE	2.32	293	3.24	290	0.8	83	-1.7	419	887	988.9	NA	0.0000		9999	0	0	0	0
2017/11/21 21:14:00	BASE	2.46	290	3.19	287	0.7	83	-1.8	416	882	988.9	NA	0.0000		9999	0	0	0	0
2017/11/21 21:15:00	BASE	2.61	287	2.88	284	0.6	84	-1.8	415	878	989.0	NA	0.0000		9999	0	0	0	0
2017/11/21 21:16:00	BASE	2.69	285	2.88	284	0.7	84	-1.7	412	873	989.0	NA	0.0000		9999	0	0	0	0
2017/11/21 21:17:00	BASE	2.70	287	2.93	279	0.8	85	-1.5	411	869	989.0	NA	0.0000		9999	0	0	0	0
2017/11/21 21:18:00	BASE	2.69	291	2.93	279	0.8	85	-1.4	408	865	989.0	NA	0.0000		9999	0	0	0	0
2017/11/21 21:19:00	BASE	2.65	293	2.93	279	0.8	85	-1.4	407	861	989.0	NA	0.0000		9999	0	0	0	0
2017/11/21 21:20:00	BASE	2.50	294	2.93	279	0.8	85	-1.4	405	856	988.9	NA	0.0000		9999	0	0	0	0
2017/11/21 21:21:00	BASE	2.26	296	2.93	279	0.7	85	-1.5	402	850	988.9	NA	0.0000		9999	0	0	0	0
2017/11/21 21:22:00	BASE	2.04	296	2.93	279	0.7	85	-1.6	400	846	988.9	NA	0.0000		9999	0	0	0	0
2017/11/21 21:23:00	BASE	1.81	295	2.93	279	0.6	85	-1.6	398	841	988.9	NA	0.0000		9999	0	0	0	0
2017/11/21 21:24:00	BASE	1.69	294	2.93	279	0.6	85	-1.6	395	836	988.9	NA	0.0000		9999	0	0	0	0
2017/11/21 21:25:00	BASE	1.76	295	2.93	279	0.6	85	-1.6	394	833	988.9	NA	0.0000		9999	0	0	0	0
2017/11/21 21:26:00	BASE	1.85	299	2.93	279	0.6	85	-1.6	391	827	988.9	NA	0.0000		9999	0	0	0	0
2017/11/21 21:27:00	BASE	1.88	305	2.88	294	0.6	85	-1.6	389	822	988.9	NA	0.0000		9999	0	0	0	0
2017/11/21 21:28:00	BASE	1.97	302	2.73	292	0.6	85	-1.6	387	818	988.9	NA	0.0000		9999	0	0	0	0
2017/11/21 21:29:00	BASE	2.12	288	2.52	296	0.7	85	-1.5	385	813	988.9	NA	0.0000		9999	0	0	0	0
2017/11/21 21:30:00	BASE	2.25	278	2.42	281	0.7	85	-1.5	384	809	989.0	NA	0.0000		9999	0	0	0	0
2017/11/21 21:31:00	BASE	2.38	285	2.62	289	0.8	85	-1.4	381	805	988.9	NA	0.0000		9999	0	0	0	0
2017/11/21 21:32:00	BASE	2.57	293	2.98	289	0.9	85	-1.4	378	800	988.9	NA	0.0000		9999	0	0	0	0
2017/11/21 21:33:00	BASE	2.81	291	3.19	288	0.9	85	-1.3	377	795	988.9	NA	0.0000		9999	0	0	0	0
2017/11/21 21:34:00	BASE	2.99	288	3.45	286	0.9	85	-1.3	375	792	988.9	NA	0.0000		9999	0	0	0	0
2017/11/21 21:35:00	BASE	3.29	287	3.70	286	0.9	85	-1.3	373	787	988.9	NA	0.0000		9999	0	0	0	0
2017/11/21 21:36:00	BASE	3.50	286	3.70	286	0.9	86	-1.2	371	782	988.9	NA	0.0000		9999	0	0	0	0
2017/11/21 21:37:00	BASE	3.46	284	3.70	286	0.9	86	-1.2	369	778	988.9	NA	0.0000		9999	0	0	0	0
2017/11/21 21:38:00	BASE	3.36	282	3.70	286	1.0	86	-1.1	367	774	988.9	NA	0.0000		9999	0	0	0	0
2017/11/21 21:39:00	BASE	3.24	282	3.70	286	1.0	87	-1.0	365	769	988.9	NA	0.0000		9999	0	0	0	0
2017/11/21 21:40:00	BASE	3.18	284	3.70	286	0.9	87	-1.1	363	765	988.9	NA	0.0000		9999	0	0	0	0
2017/11/21 21:41:00	BASE	3.24	282	3.70	286	0.9	87	-1.0	361	760	988.9	NA	0.0000		9999	0	0	0	0
2017/11/21 21:42:00	BASE	3.43	278	3.76	276	0.9	87	-1.0	359	757	988.9	NA	0.0000		9999	0	0	0	0
2017/11/21 21:43:00	BASE	3.58	276	4.01	278	0.9	87	-1.0	357	752	988.9	NA	0.0000		9999	0	0	0	0
2017/11/21 21:44:00	BASE	3.61	278	4.01	277	0.9	87	-1.0	355	749	988.9	NA	0.0000		9999	0	0	0	0
2017/11/21 21:45:00	BASE	3.70	280	4.01	277	0.9	87	-1.0	353	745	988.9	NA	0.0000		9999	0	0	0	0
2017/11/21 21:46:00	BASE	3.79	283	4.17	285	0.9	87	-1.0	352	741	988.9	NA	0.0000		9999	0	0	0	0
2017/11/21 21:47:00	BASE	3.55	286	4.17	285	0.9	87	-1.1	350	736	989.0	NA	0.0000		9999	0	0	0	0
2017/11/21 21:48:00	BASE	3.35	287	4.17	285	0.9	87	-1.1	348	732	989.0	NA	0.0000		9999	0	0	0	0
2017/11/21 21:49:00	BASE	3.15	290	4.17	285	0.8	87	-1.1	345	727	989.0	NA	0.0000		9999	0	0	0	0
2017/11/21 21:50:00	BASE	2.96	293	4.17	285	0.7	87	-1.2	343	723	989.0	NA	0.0000		9999	0	0	0	0
2017/11/21 21:51:00	BASE	3.05	293	4.17	285	0.6	87	-1.2	341	718	989.0	NA	0.0000		9999	0	0	0	0
2017/11/21 21:52:00	BASE	2.96	290	4.17	285	0.6	88	-1.1	339	713	989.0	NA	0.0000		9999	0	0	0	0
2017/11/21 21:53:00	BASE	2.76	288	4.17	285	0.7	88	-1.0	336	709	988.9	NA	0.0000		9999	0	0	0	0
2017/11/21 21:54:00	BASE	2.77	288	4.17	285	0.6	88	-1.1	334	704	988.9	NA	0.0000		9999	0	0	0	0
2017/11/21 21:55:00	BASE	2.74	286	4.17	285	0.6	89	-1.0	332	700	988.9	NA	0.0000		9999	0	0	0	0
2017/11/21 21:56:00	BASE	2.86	285	3.65	288	0.7	89	-0.9	330	695	988.9	NA	0.0000		9999	0	0	0	0
2017/11/21 21:57:00	BASE	3.20	288	3.65	288	0.7	89	-0.9	328	691	988.9	NA	0.0000		9999	0	0	0	0
2017/11/21 21:58:00	BASE	3.23	289	3.45	289	0.6	89	-1.0	326	686	988.9	NA	0.0000		9999	0	0	0	0
2017/11/21 21:59:00	BASE	3.15	286	3.45	289	0.7	89	-0.9	324	682	988.9	NA	0.0000		9999	0	0	0	0
2017/11/21 22:00:00	BASE	3.06	283	3.45	289	0.8	89	-0.8	322	676	988.9	NA	0.0000		9999	0	0	0	0
2017/11/21 22:01:00	BASE	2.90	277	3.45	289	0.8	89	-0.8	320	672	989.0	NA	0.0000		9999	0	0	0	0
2017/11/21 22:02:00	BASE	2.76	272	3.45	289	0.8	89	-0.7	319	670	989.0	NA	0.0000		9999	0	0	0	0
2017/11/21 22:03:00	BASE	2.48	268	3.45	289	0.9	89	-0.6	317	666	989.0	NA	0.0000		9999	0	0	0	0
2017/11/21 22:04:00	BASE	2.38	264	3.45	289	0.8	89	-0.8	316	661	989.0	NA	0.0000		9999	0	0	0	0
2017/11/21 22:05:00	BASE	2.57	265	3.45	289	0.8	89	-0.9	314	657	989.0	NA	0.0000		9999	0	0	0	0
2017/11/21 22:06:00	BASE	2.54	270	3.45	289	0.7	89	-0.9	311	652	989.0	NA	0.0000		9999	0	0	0	0
2017/11/21 22:07:00	BASE	2.44	271	3.34	285	0.7	89	-0.9	308	647	989.0	NA	0.0000		9999	0	0	0	0
2017/11/21 22:08:00	BASE	2.59	268	3.34	285	0.7	89	-1.0	307	642	989.0	NA	0.0000		9999	0	0	0	0
2017/11/21 22:09:00	BASE	2.82	271	3.24	284	0.7	89	-0.9	305	638	989.0	NA	0.0000		9999	0	0	0	0
2017/11/21 22:10:00	BASE	2.73	273	3.19	273	0.7	89	-0.9	302	633	989.0	NA	0.0000		9999	0	0	0	0
2017/11/21 22:11:00	BASE	2.65	274	3.19	273	0.6	89	-1.0	300	630	989.0	NA	0.0000		9999	0	0	0	0
2017/11/21 22:12:00	BASE	2.92	278	3.34	284	0.6	89	-0.9	298	625	989.0	NA	0.0000		9999	0	0	0	0
2017/11/21 22:13:00	BASE	3.02	279	3.34	284	0.7	89	-0.9	297	621	988.9	NA	0.0000		9999	0	0	0	0
2017/11/21 22:14:00	BASE	2.96	278	3.34	284	0.6	89	-0.9	295	617	988.9	NA	0.0000		9999	0	0	0	0
2017/11/21 22:15:00	BASE	2.84	278	3.34	284	0.6	90	-0.9	293	613	988.9	NA	0.0000		9999	0	0	0	0
2017/11/21 22:16:00	BASE	2.57	283	3.34	284	0.7	90	-0.9	291	609	988.9	NA	0.0000		9999	0	0	0	0
2017/11/21 22:17:00	BASE	2.20	288	3.34	284	0.6	90	-0.9	289	603	988.9	NA	0.0000		9999	0	0	0	0
2017/11/21 22:18:00	BASE	2.08	288	3.34	284	0.6	90	-0.9	287	600	988.9	NA	0.0000		9999	0	0	0	0
2017/11/21 22:19:00	BASE	2.17	285	3.34	284	0.6	90	-0.9	285	595	988.9	NA	0.0000		9999	0	0	0	0
2017/11/21 22:20:00	BASE	2.17	285	3.34	284	0.6	90	-0.9	283	591	988.9	NA	0.0000		9999	0	0	0	0
2017/11/21 22:21:00	BASE	2.05	294	3.34	284	0.6	90	-0.9	281	587	988.9	NA	0.0000		9999	0	0	0	0
2017/11/21 22:22:00	BASE	1.95	294	3.19	278	0.5	90	-0.9	278	581	988.9	NA	0.0000		9999	0	0	0	0
2017/11/21 22:23:00	BASE	1.82	287	3.19	278	0.5	91	-0.8	277	578	988.9	NA	0.0000		9999	0	0	0	0
2017/11/21 22:24:00	BASE	1.87	292	2.93	284	0.6	91	-0.7	275	573	988.9	NA	0.0000		9999	0	0	0	0
2017/11/21 22:25:00	BASE	2.18	295	2.78	286	0.6	91	-0.7	274	570	988.9	NA	0.0000		9999	0	0	0	0
2017/11/21 22:26:00	BASE	2.25	293	2.52	296	0.6	91	-0.7	272	565	988.9	NA	0.0000		9999	0	0	0	0
2017/11/21 22:27:00	BASE	2.00	291	2.52	296	0.7	91	-0.6	270	561	988.9	NA	0.0000		9999	0	0	0	0
2017/11/21 22:28:00	BASE	1.91	293	2.52	296	0.7	91	-0.6	269	558	988.9	NA	0.0000		9999	0	0	0	0
2017/11/21 22:29:00	BASE	2.06	296	2.52	296	0.7	91	-0.6	268	554	988.9	NA	0.0000		9999	0	0	0	0
2017/11/21 22:30:00	BASE	2.03	293	2.52	296	0.7	91	-0.6	266	551	988.9	NA	0.0000		9999	0	0	0	0
2017/11/21 22:31:00	BASE	1.77	290	2.52	296	0.7	91	-0.7	264	545	988.9	NA	0.0000		9999	0	0	0	0
2017/11/21 22:32:00	BASE	1.50	292	2.52	296	0.5	91	-0.8	260	538	988.9	NA	0.0000		9999	0	0	0	0
2017/11/21 22:33:00	BASE	1.24	304	2.52	296	0.4	91	-0.9	258	534	988.9	NA	0.0000		9999	0	0	0	0
2017/11/21 22:34:00	BASE	1.31	321	2.52	296	0.4	91	-0.9	256	530	988.9	NA	0.0000		9999	0	0	0	0
2017/11/21 22:35:00	BASE	1.58	325	2.42	295	0.4	91	-0.9	253	524	988.9	NA	0.0000		9999	0	0	0	0
2017/11/21 22:36:00	BASE	1.68	321	2.37	302	0.4	91	-0.9	252	521	988.9	NA	0.0000		9999	0	0	0	0
2017/11/21 22:37:00	BASE	1.54	317	2.37	302	0.4	91	-0.9	250	516	988.8	NA	0.0000		9999	0	0	0	0
2017/11/21 22:38:00	BASE	1.32	316	2.37	302	0.4	91	-0.9	248	511	988.8	NA	0.0000		9999	0	0	0	0
2017/11/21 22:39:00	BASE	1.23	317	2.11	292	0.4	91	-0.9	246	508	988.7	NA	0.0000		9999	0	0	0	0
2017/11/21 22:40:00	BASE	1.34	308	1.85	320	0.3	91	-0.9	243	503	988.7	NA	0.0000		9999	0	0	0	0
2017/11/21 22:41:00	BASE	1.13	295	1.85	320	0.3	91	-1.0	242	498	988.7	NA	0.0000		9999	0	0	0	0
2017/11/21 22:42:00	BASE	0.47	301	1.85	320	0.2	91	-1.1	240	494	988.7	NA	0.0000		9999	0	0	0	0
2017/11/21 22:43:00	BASE	0.13	307	1.85	320	0.2	91	-1.1	238	490	988.7	NA	0.0000		9999	0	0	0	0
2017/11/21 22:44:00	BASE	0.05	309	1.85	320	0.1	91	-1.2	237	487	988.7	NA	0.0000		9999	0	0	0	0
2017/11/21 22:45:00	BASE	0.00	313	1.85	320	0.1	91	-1.2	235	483	988.7	NA	0.0000		9999	0	0	0	0
2017/11/21 22:46:00	BASE	0.05	321	1.75	287	0.1	91	-1.2	233	478	988.7	NA	0.0000		9999	0	0	0	0
2017/11/21 22:47:00	BASE	0.65	358	1.75	287	0.2	91	-1.1	231	474	988.7	NA	0.0000		9999	0	0	0	0
2017/11/21 22:48:00	BASE	1.48	21	1.95	19	0.2	91	-1.0	229	470	988.7	NA	0.0000		9999	0	0	0	0
2017/11/21 22:49:00	BASE	1.81	20	2.01	19	0.3	91	-1.0	227	466	988.6	NA	0.0000		9999	0	0	0	0
2017/11/21 22:50:00	BASE	1.86	17	2.01	19	0.3	92	-0.9	225	461	988.7	NA	0.0000		9999	0	0	0	0
2017/11/21 22:51:00	BASE	1.88	14	2.11	3	0.3	92	-0.9	223	456	988.6	NA	0.0000		9999	0	0	0	0
2017/11/21 22:52:00	BASE	1.88	9	2.11	3	0.1	92	-1.0	221	451	988.5	NA	0.0000		9999	0	0	0	0
2017/11/21 22:53:00	BASE	1.82	7	2.11	3	0.0	92	-1.1	220	448	988.5	NA	0.0000		9999	0	0	0	0
2017/11/21 22:54:00	BASE	1.88	5	2.11	3	-0.0	92	-1.1	218	444	988.5	NA	0.0000		9999	0	0	0	0
2017/11/21 22:55:00	BASE	1.89	4	2.11	3	-0.1	93	-1.1	216	440	988.5	NA	0.0000		9999	0	0	0	0
2017/11/21 22:56:00	BASE	1.81	4	2.11	3	-0.1	93	-1.1	214	436	988.5	NA	0.0000		9999	0	0	0	0
2017/11/21 22:57:00	BASE	1.80	355	2.11	3	-0.0	93	-1.0	212	432	988.6	NA	0.0000		9999	0	0	0	0
2017/11/21 22:58:00	BASE	1.83	354	2.11	3	-0.0	93	-1.0	211	428	988.6	NA	0.0000		9999	0	0	0	0
2017/11/21 22:59:00	BASE	1.80	357	2.11	3	-0.0	93	-1.0	209	424	988.7	NA	0.0000		9999	0	0	0	0
2017/11/21 23:00:00	BASE	1.67	353	2.11	3	0.0	94	-0.9	207	420	988.7	NA	0.0000		9999	0	0	0	0
2017/11/21 23:01:00	BASE	1.66	344	2.06	330	0.1	94	-0.8	205	416	988.7	NA	0.0000		9999	0	0	0	0
2017/11/21 23:02:00	BASE	1.78	338	2.06	340	0.1	94	-0.8	203	412	988.7	NA	0.0000		9999	0	0	0	0
2017/11/21 23:03:00	BASE	1.90	340	2.06	340	0.1	93	-0.9	202	408	988.7	NA	0.0000		9999	0	0	0	0
2017/11/21 23:04:00	BASE	1.97	342	2.31	341	0.0	94	-0.9	200	404	988.7	NA	0.0000		9999	0	0	0	0
2017/11/21 23:05:00	BASE	2.10	344	2.42	341	-0.0	94	-0.9	198	400	988.7	NA	0.0000		9999	0	0	0	0
2017/11/21 23:06:00	BASE	2.16	344	2.42	341	-0.1	94	-0.9	196	396	988.7	NA	0.0000		9999	0	0	0	0
2017/11/21 23:07:00	BASE	2.18	340	2.42	344	-0.1	94	-0.9	194	392	988.7	NA	0.0000		9999	0	0	0	0
2017/11/21 23:08:00	BASE	2.09	336	2.42	344	-0.1	94	-0.9	193	388	988.7	NA	0.0000		9999	0	0	0	0
2017/11/21 23:09:00	BASE	1.92	340	2.42	344	-0.1	94	-0.9	191	384	988.7	NA	0.0000		9999	0	0	0	0
2017/11/21 23:10:00	BASE	1.93	345	2.42	344	-0.1	94	-1.0	189	380	988.7	NA	0.0000		9999	0	0	0	0
2017/11/21 23:11:00	BASE	2.00	346	2.42	344	-0.3	94	-1.1	187	377	988.7	NA	0.0000		9999	0	0	0	0
2017/11/21 23:12:00	BASE	2.05	344	2.42	337	-0.2	94	-1.1	186	373	988.7	NA	0.0000		9999	0	0	0	0
2017/11/21 23:13:00	BASE	2.09	340	2.42	338	-0.2	94	-1.1	184	369	988.7	NA	0.0000		9999	0	0	0	0
2017/11/21 23:14:00	BASE	2.00	345	2.42	338	-0.3	94	-1.1	182	364	988.7	NA	0.0000		9999	0	0	0	0
2017/11/21 23:15:00	BASE	1.76	353	2.42	338	-0.3	94	-1.1	180	360	988.7	NA	0.0000		9999	0	0	0	0
2017/11/21 23:16:00	BASE	1.51	352	2.42	338	-0.3	94	-1.1	178	356	988.7	NA	0.0000		9999	0	0	0	0
2017/11/21 23:17:00	BASE	1.69	341	2.42	335	-0.3	94	-1.1	176	351	988.7	NA	0.0000		9999	0	0	0	0
2017/11/21 23:18:00	BASE	2.26	333	2.68	329	-0.3	94	-1.1	175	348	988.7	NA	0.0000		9999	0	0	0	0
2017/11/21 23:19:00	BASE	2.50	327	2.68	323	-0.2	94	-1.1	174	347	988.7	NA	0.0000		9999	0	0	0	0
2017/11/21 23:20:00	BASE	2.60	326	2.83	324	-0.2	94	-1.0	167	336	988.7	NA	0.0000		9999	0	0	0	0
2017/11/21 23:21:00	BASE	2.56	325	2.83	324	-0.1	94	-1.0	170	338	988.7	NA	0.0000		9999	0	0	0	0
2017/11/21 23:22:00	BASE	2.64	325	3.24	328	-0.1	94	-1.0	168	334	988.7	NA	0.0000		9999	0	0	0	0
2017/11/21 23:23:00	BASE	2.91	327	3.24	328	-0.0	94	-0.9	166	330	988.7	NA	0.0000		9999	0	0	0	0
2017/11/21 23:24:00	BASE	2.94	327	3.24	328	-0.0	93	-1.0	165	327	988.7	NA	0.0000		9999	0	0	0	0
2017/11/21 23:25:00	BASE	2.91	326	3.24	328	-0.0	93	-1.0	164	325	988.7	NA	0.0000		9999	0	0	0	0
2017/11/21 23:26:00	BASE	2.82	328	3.24	328	-0.1	92	-1.2	162	320	988.7	NA	0.0000		9999	0	0	0	0
2017/11/21 23:27:00	BASE	2.75	324	3.24	328	-0.1	92	-1.2	161	318	988.7	NA	0.0000		9999	0	0	0	0
2017/11/21 23:28:00	BASE	2.61	314	3.24	328	-0.2	92	-1.3	162	318	988.7	NA	0.0000		9999	0	0	0	0
2017/11/21 23:29:00	BASE	2.41	310	3.24	328	-0.1	92	-1.2	163	317	988.7	NA	0.0000		9999	0	0	0	0
2017/11/21 23:30:00	BASE	2.55	315	3.24	328	-0.1	92	-1.2	161	313	988.7	NA	0.0000		9999	0	0	0	0
2017/11/21 23:31:00	BASE	2.78	318	3.24	328	-0.1	92	-1.2	157	307	988.7	NA	0.0000		9999	0	0	0	0
2017/11/21 23:32:00	BASE	2.77	318	3.09	328	-0.1	92	-1.2	153	300	988.7	NA	0.0000		9999	0	0	0	0
2017/11/21 23:33:00	BASE	2.72	319	3.09	328	-0.2	92	-1.3	150	294	988.7	NA	0.0000		9999	0	0	0	0
2017/11/21 23:34:00	BASE	2.66	318	2.98	321	-0.3	92	-1.4	149	290	988.7	NA	0.0000		9999	0	0	0	0
2017/11/21 23:35:00	BASE	2.57	314	2.98	296	-0.3	92	-1.4	147	288	988.7	NA	0.0000		9999	0	0	0	0
2017/11/21 23:36:00	BASE	2.72	302	3.34	291	-0.3	92	-1.4	146	285	988.7	NA	0.0000		9999	0	0	0	0
2017/11/21 23:37:00	BASE	3.07	291	3.55	291	-0.2	93	-1.2	145	282	988.7	NA	0.0000		9999	0	0	0	0
2017/11/21 23:38:00	BASE	3.25	290	3.55	291	-0.1	93	-1.1	143	278	988.7	NA	0.0000		9999	0	0	0	0
2017/11/21 23:39:00	BASE	3.16	292	3.55	291	-0.0	94	-0.9	142	275	988.7	NA	0.0000		9999	0	0	0	0
2017/11/21 23:40:00	BASE	3.11	293	3.55	291	0.0	94	-0.8	141	272	988.7	NA	0.0000		9999	0	0	0	0
2017/11/21 23:41:00	BASE	3.09	295	3.55	291	-0.0	95	-0.7	139	269	988.7	NA	0.0000		9999	0	0	0	0
2017/11/21 23:42:00	BASE	3.11	299	3.55	291	-0.0	96	-0.7	138	266	988.7	NA	0.0000		9999	0	0	0	0
2017/11/21 23:43:00	BASE	3.23	300	3.55	291	-0.1	96	-0.6	136	263	988.7	NA	0.0000		9999	0	0	0	0
2017/11/21 23:44:00	BASE	3.26	300	3.55	291	-0.1	97	-0.6	134	259	988.7	NA	0.0000		9999	0	0	0	0
2017/11/21 23:45:00	BASE	3.26	300	3.55	291	-0.2	97	-0.7	133	257	988.7	NA	0.0000		9999	0	0	0	0
2017/11/21 23:46:00	BASE	3.29	300	3.55	299	-0.2	97	-0.6	132	254	988.7	NA	0.0000		9999	0	0	0	0
2017/11/21 23:47:00	BASE	3.39	302	3.55	303	-0.3	97	-0.6	130	251	988.7	NA	0.0000		9999	0	0	0	0
2017/11/21 23:48:00	BASE	3.49	303	3.76	307	-0.3	97	-0.6	129	248	988.7	NA	0.0000		9999	0	0	0	0
2017/11/21 23:49:00	BASE	3.47	302	3.76	307	-0.3	98	-0.6	127	246	988.7	NA	0.0000		9999	0	0	0	0
2017/11/21 23:50:00	BASE	3.31	301	3.76	307	-0.3	98	-0.6	126	243	988.7	NA	0.0000		9999	0	0	0	0
2017/11/21 23:51:00	BASE	3.26	301	3.76	307	-0.3	98	-0.6	124	239	988.7	NA	0.0000		9999	0	0	0	0
2017/11/21 23:52:00	BASE	3.24	300	3.76	307	-0.3	98	-0.6	122	236	988.6	NA	0.0000		9999	0	0	0	0
2017/11/21 23:53:00	BASE	3.34	299	3.76	307	-0.4	98	-0.6	119	232	988.6	NA	0.0000		9999	0	0	0	0
2017/11/21 23:54:00	BASE	3.33	299	3.76	307	-0.4	98	-0.7	117	228	988.6	NA	0.0000		9999	0	0	0	0
2017/11/21 23:55:00	BASE	3.14	298	3.76	307	-0.4	98	-0.7	114	223	988.5	NA	0.0000		9999	0	0	0	0
2017/11/21 23:56:00	BASE	3.04	298	3.76	307	-0.3	98	-0.6	112	218	988.5	NA	0.0000		9999	0	0	0	0
2017/11/21 23:57:00	BASE	2.97	299	3.76	307	-0.3	98	-0.6	109	213	988.5	NA	0.0000		9999	0	0	0	0
2017/11/21 23:58:00	BASE	3.06	302	3.55	300	-0.3	98	-0.6	106	209	988.5	NA	0.0000		9999	0	0	0	0
2017/11/21 23:59:00	BASE	3.20	303	3.55	300	-0.3	98	-0.6	104	205	988.5	NA	0.0000		9999	0	0	0	0